[[{"header":{"parameterUnit":"m.s-1","parameterCategory":1,"la1":31.0,"la2":29.5877,"lo1":-88.7671,"lo2":-86.6584,"dx":0.0162,"dy":0.0185,"nx":115,"ny":88,"refTime":"2023-01-27T06:00:00:Z","depth":0,"parameterNumber":2,"parameterNumberName":"U-component_of_WINDS"},"data":[0.0,0.0,0.0,0.0,0.0,0.0,0.0,0.0,0.0,0.0,0.0,0.0,0.0,0.0,0.0,0.0,0.0,0.0,0.0,0.0,0.0,0.0,0.0,0.0,0.0,0.0,0.0,0.0,0.0,0.0,0.0,0.0,0.0,0.0,0.0,0.0,0.0,0.0,0.0,0.0,0.0,0.0,0.0,0.0,0.0,0.0,0.0,0.0,0.0,0.0,0.0,0.0,0.0,0.0,0.0,0.0,0.0,0.0,0.0,0.0,0.0,0.0,0.0,0.0,0.0,0.0,0.0,0.0,0.0,0.0,0.0,0.0,0.0,0.0,0.0,0.0,0.0,0.0,0.0,0.0,0.0,0.0,0.0,0.0,0.0,0.0,0.0,0.0,0.0,0.0,0.0,0.0,0.0,0.0,0.0,0.0,0.0,0.0,0.0,0.0,0.0,0.0,0.0,0.0,0.0,0.0,0.0,0.0,0.0,0.0,0.0,0.0,0.0,0.0,0.0,0.0,0.0,0.0,0.0,0.0,0.0,0.0,0.0,0.0,0.0,0.0,0.0,0.0,0.0,0.0,0.0,0.0,0.0,0.0,0.0,0.0,0.0,0.0,0.0,0.0,0.0,0.0,0.0,0.0,0.0,0.0,0.0,0.0,0.0,0.0,0.0,0.0,0.0,0.0,0.0,0.0,0.0,0.0,0.0,0.0,0.0,0.0,0.0,0.0,0.0,0.0,0.0,0.0,0.0,0.0,0.0,0.0,0.0,0.0,0.0,0.0,0.0,0.0,0.0,0.0,0.0,0.0,0.0,0.0,0.0,0.0,0.0,0.0,0.0,0.0,0.0,0.0,0.0,0.0,0.0,0.0,0.0,0.0,0.0,0.0,0.0,0.0,0.0,0.0,0.0,0.0,0.0,0.0,0.0,0.0,0.0,0.0,0.0,0.0,0.0,0.0,0.0,0.0,0.0,0.0,0.0,0.0,0.0,0.0,0.0,0.0,0.0,0.0,0.0,0.0,0.0,0.0,0.0,0.0,0.0,0.0,0.0,0.0,0.0,0.0,0.0,0.0,0.0,0.0,0.0,0.0,0.0,0.0,0.0,0.0,0.0,0.0,0.0,0.0,0.0,0.0,0.0,0.0,0.0,0.0,0.0,0.0,0.0,0.0,0.0,0.0,0.0,0.0,0.0,0.0,0.0,0.0,0.0,0.0,0.0,0.0,0.0,0.0,0.0,0.0,0.0,0.0,0.0,0.0,0.0,0.0,0.0,0.0,0.0,0.0,0.0,0.0,0.0,0.0,0.0,0.0,0.0,0.0,0.0,0.0,0.0,0.0,0.0,0.0,0.0,0.0,0.0,0.0,0.0,0.0,0.0,0.0,0.0,0.0,0.0,0.0,0.0,0.0,0.0,0.0,0.0,0.0,0.0,0.0,0.0,0.0,0.0,0.0,0.0,0.0,0.0,0.0,0.0,0.0,0.0,0.0,0.0,0.0,0.0,0.0,0.0,0.0,0.0,0.0,0.0,0.0,0.0,0.0,0.0,0.0,0.0,0.0,0.0,0.0,0.0,0.0,0.0,0.0,0.0,0.0,0.0,0.0,0.0,0.0,0.0,0.0,0.0,0.0,0.0,0.0,0.0,0.0,0.0,0.0,0.0,0.0,0.0,0.0,0.0,0.0,0.0,0.0,0.0,0.0,0.0,0.0,0.0,0.0,0.0,0.0,0.0,0.0,0.0,0.0,0.0,0.0,0.0,0.0,0.0,0.0,0.0,0.0,0.0,0.0,0.0,0.0,0.0,0.0,0.0,0.0,0.0,0.0,0.0,0.0,0.0,0.0,0.0,0.0,0.0,0.0,0.0,0.0,0.0,0.0,0.0,0.0,0.0,0.0,0.0,0.0,0.0,0.0,0.0,0.0,0.0,0.0,0.0,0.0,0.0,0.0,0.0,0.0,0.0,0.0,0.0,0.0,0.0,0.0,0.0,0.0,0.0,0.0,0.0,0.0,0.0,0.0,0.0,0.0,0.0,0.0,0.0,0.0,0.0,0.0,0.0,0.0,0.0,0.0,0.0,0.0,0.0,0.0,0.0,0.0,0.0,0.0,0.0,0.0,0.0,0.0,0.0,0.0,0.0,0.0,0.0,0.0,0.0,0.0,0.0,0.0,0.0,0.0,0.0,0.0,0.0,0.0,0.0,0.0,0.0,0.0,0.0,0.0,0.0,0.0,0.0,0.0,0.0,0.0,0.0,0.0,0.0,0.0,0.0,0.0,0.0,0.0,0.0,0.0,0.0,0.0,0.0,0.0,0.0,0.0,0.0,0.0,0.0,0.0,0.0,0.0,0.0,0.0,0.0,0.0,0.0,0.0,0.0,0.0,0.0,0.0,0.0,0.0,0.0,0.0,0.0,0.0,0.0,0.0,0.0,0.0,0.0,0.0,0.0,0.0,0.0,0.0,0.0,0.0,0.0,0.0,0.0,0.0,0.0,0.0,0.0,0.0,0.0,0.0,0.0,0.0,0.0,0.0,0.0,0.0,0.0,0.0,0.0,0.0,0.0,0.0,0.0,0.0,0.0,0.0,0.0,0.0,0.0,0.0,0.0,0.0,0.0,0.0,0.0,0.0,0.0,0.0,0.0,0.0,0.0,0.0,0.0,0.0,0.0,0.0,0.0,0.0,0.0,0.0,0.0,0.0,0.0,0.0,0.0,0.0,0.0,0.0,0.0,0.0,0.0,0.0,0.0,0.0,0.0,0.0,0.0,0.0,0.0,0.0,0.0,0.0,0.0,0.0,0.0,0.0,0.0,0.0,0.0,0.0,0.0,0.0,0.0,0.0,0.0,0.0,0.0,0.0,0.0,0.0,0.0,0.0,0.0,0.0,0.0,0.0,0.0,0.0,0.0,0.0,0.0,0.0,0.0,0.0,0.0,0.0,0.0,0.0,0.0,0.0,0.0,0.0,0.0,0.0,0.0,0.0,0.0,0.0,0.0,0.0,0.0,0.0,0.0,0.0,0.0,0.0,0.0,0.0,0.0,0.0,0.0,0.0,0.0,0.0,0.0,0.0,0.0,0.0,0.0,0.0,0.0,0.0,0.0,0.0,0.0,0.0,0.0,0.0,0.0,0.0,0.0,0.0,0.0,0.0,0.0,0.0,0.0,0.0,0.0,0.0,0.0,0.0,0.0,0.0,0.0,0.0,0.0,0.0,0.0,0.0,0.0,0.0,0.0,0.0,0.0,0.0,0.0,0.0,0.0,0.0,0.0,0.0,0.0,0.0,0.0,0.0,0.0,0.0,0.0,0.0,0.0,0.0,0.0,0.0,0.0,0.0,0.0,0.0,0.0,0.0,0.0,0.0,0.0,0.0,0.0,0.0,0.0,0.0,0.0,0.0,0.0,0.0,0.0,0.0,0.0,0.0,0.0,0.0,0.0,0.0,0.0,0.0,0.0,0.0,0.0,0.0,0.0,0.0,0.0,0.0,0.0,0.0,0.0,0.0,0.0,0.0,0.0,0.0,0.0,0.0,0.0,0.0,0.0,0.0,0.0,0.0,0.0,0.0,0.0,0.0,0.0,0.0,0.0,0.0,0.0,0.0,0.0,0.0,0.0,0.0,0.0,0.0,0.0,0.0,0.0,0.0,0.0,0.0,0.0,0.0,0.0,0.0,0.0,0.0,0.0,0.0,0.0,0.0,0.0,0.0,0.0,0.0,0.0,0.0,0.0,0.0,0.0,0.0,0.0,0.0,0.0,0.0,0.0,0.0,0.0,0.0,0.0,0.0,0.0,0.0,0.0,0.0,0.0,0.0,0.0,0.0,0.0,0.0,0.0,0.0,0.0,0.0,0.0,0.0,0.0,0.0,0.0,0.0,0.0,0.0,0.0,0.0,0.0,0.0,0.0,0.0,0.0,0.0,0.0,0.0,0.0,0.0,0.0,0.0,0.0,0.0,0.0,0.0,0.0,0.0,0.0,0.0,0.0,0.0,0.0,0.0,0.0,0.0,0.0,0.0,0.0,0.0,0.0,0.0,0.0,0.0,0.0,0.0,0.0,0.0,0.0,0.0,0.0,0.0,0.0,0.0,0.0,0.0,0.0,0.0,0.0,0.0,0.0,0.0,0.0,0.0,0.0,0.0,0.0,0.0,0.0,0.0,0.0,0.0,0.0,0.0,0.0,0.0,0.0,0.0,0.0,0.0,0.0,0.0,0.0,0.0,0.0,0.0,0.0,0.0,0.0,0.0,0.0,0.0,0.0,0.0,0.0,0.0,-0.0551,0.0,0.0,0.0,0.0,0.0,0.0,0.0,0.0,0.0,0.0,0.0,0.0,0.0,0.0,0.0,0.0,0.0,0.0,0.0,0.0,0.0,0.0,0.0,0.0,0.0,0.0,0.0,0.0,0.0,0.0,0.0,0.0,0.0,0.0,0.0,0.0,0.0,0.0,0.0,0.0,0.0,0.0,0.0,0.0,0.0,0.0,0.0,0.0,0.0,0.0,0.0,0.0,0.0,0.0,0.0,0.0,0.0,0.0,0.0,0.0,0.0,0.0,0.0,0.0,0.0,0.0,0.0,0.0,0.0,0.0,0.0,0.0,0.0,0.0,0.0,0.0,0.0,0.0,0.0,0.0,0.0,0.0,0.0,0.0,0.0,0.0,0.0,0.0,0.0,0.0,0.0,0.0,0.0,0.0,0.0,0.0,0.0,0.0,0.0,0.0,0.0,0.0,0.0,0.0,0.0,0.0,0.0,0.0,0.0,0.0,-0.1099,-0.0759,-0.057,-0.0336,-0.0026,0.0,0.0,0.0,0.0,0.0,0.0,0.0,0.0,0.0,0.0,0.0,0.0,0.0,0.0,0.0,0.0,0.0,0.0,0.0,0.0,0.0,0.0,0.0,0.0,0.0,0.0,0.0,0.0,0.0,0.0,0.0,0.0,0.0,0.0,0.0,0.0,0.0,0.0,0.0,0.0,0.0,0.0,0.0,0.0,0.0,0.0,0.0,0.0,0.0,0.0,0.0,0.0,0.0,0.0,0.0,0.0,0.0,0.0,0.0,0.0,0.0,0.0,0.0,0.0,0.0,0.0,0.0,0.0,0.0,0.0,0.0,0.0,0.0,0.0,0.0,0.0,0.0,0.0,0.0,0.0,0.0,0.0,0.0,0.0,0.0,0.0,0.0,0.0,0.0,0.0,0.0,0.0,0.0,0.0,0.0,0.0,0.0,0.0,0.0,0.0,0.0,0.0,0.0,0.0,0.0,0.0,0.0,0.0,0.0,0.0,0.0,0.0,0.0006,0.0201,0.0426,0.0,0.0,0.0,0.0,0.0,0.0,0.0,0.0,0.0,0.0,0.0,0.0,0.0,0.0,0.0,0.0,0.0,0.0,0.0,0.0,0.0,0.0,0.0,0.0,0.0,0.0,0.0,0.0,0.0,0.0,0.0,0.0,0.0,0.0,0.0,0.0,0.0,0.0,0.0,0.0,0.0,0.0,0.0,0.0,0.0,0.0,0.0,0.0,0.0,0.0,0.0,0.0,0.0,0.0,0.0,0.0,0.0,0.0,0.0,0.0,0.0,0.0,0.0,0.0,0.0,0.0,0.0,0.0,0.0,0.0,0.0,0.0,0.0,0.0,0.0,0.0,0.0,0.0,0.0,0.0,0.0,0.0,0.0,0.0,0.0,0.0,0.0,0.0,0.0,0.0,0.0,0.0,0.0,0.0,0.0,0.0,0.0,0.0,0.0,0.0,0.0,0.0,0.0,0.0,0.0,0.0,0.0,0.0,0.0,0.0,0.0141,0.024,0.0548,0.0,0.0832,0.0,0.0,0.0,0.0,0.0,0.0,0.0,0.0,0.0,0.0,0.0,0.0,0.0,0.0,0.0,0.0,0.0,0.0,0.0,0.0,0.0,0.0,0.0,0.0,0.0,0.0,0.0,0.0,0.0,0.0,0.0,0.0,0.0,0.0,0.0,0.0,0.0,0.0,0.0,0.0,0.0,0.0,0.0,0.0,0.0,0.0,0.0,0.0,0.0,0.0,0.0,0.0,0.0,0.0,0.0,0.0,0.0,0.0,0.0,0.0,0.0,0.0,0.0,0.0,0.0,0.0,0.0,0.0,0.0,0.0,0.0,0.0,0.0,0.0,0.0,0.0,0.0,0.0,0.0,0.0,0.0,0.0,0.0,0.0,0.0,0.0,0.0,0.0,0.0,0.0,0.0,0.0,0.0,0.0,0.0,0.0,0.0,0.0,0.0,0.0,0.0,0.0,0.0,0.0,0.0,0.0,0.0,0.0,0.0,0.0,0.0901,0.1134,0.119,0.1166,0.0,0.0,0.0,0.0,0.0,0.0,0.0,0.0,0.0,0.0,0.0,0.0,0.0,0.0,0.0,0.0,0.0,0.0,0.0,0.0,0.0,0.0,0.0,0.0,0.0,0.0,0.0,0.0,0.0,0.0,0.0,0.0,0.0,0.0,0.0,0.0,0.0,0.0,0.0,0.0,0.0,0.0,0.0,0.0,0.0,0.0,0.0,0.0,0.0,0.0,0.0,0.0,0.0,0.0,0.0,0.0,0.0,0.0,0.0,0.0,0.0,0.0,0.0,0.0,0.0,0.0,0.0,0.0,0.0,0.0,0.0,0.0,0.0,0.0,0.0,0.0,0.0,0.0,0.0,0.0,0.0,0.0,0.0,0.0,0.0,0.0,0.0,0.0,0.0,0.0,0.0,0.0,0.0,0.0,0.0,0.0,0.0,0.0,0.0,0.0,0.0,0.0,0.0,0.0,0.0,0.0,0.0,0.0,0.0,0.0,0.141,0.1647,0.183,0.1671,0.1474,0.127,0.0,0.0,0.0,0.0,0.0,0.0,0.0,0.0,0.0,0.0,0.0,0.0,0.0,0.0,0.0,0.0,0.0,0.0,0.0,0.0,0.0,0.0,0.0,0.0,0.0,0.0,0.0,0.0,0.0,0.0,0.0,0.0,0.0,0.0,0.0,0.0,0.0,0.0,0.0,0.0,0.0,0.0,0.0,0.0,0.0,0.0,0.0,0.0,0.0,0.0,0.0,0.0,0.0,0.0,0.0,0.0,0.0,0.0,0.0,0.0,0.0,0.0,0.0,0.0,0.0,0.0,0.0,0.0,0.0,0.0,0.0,0.0,0.0,0.0,0.0,0.0,0.0,0.0,0.0,0.0,0.0,0.0,0.0,0.0,0.0,0.0,0.0,0.0,0.0,0.0,0.0,0.0,0.0,0.0,0.0,0.0,0.0,0.0,0.0,0.0,0.0,0.0,0.0,0.0,0.0,0.0,0.0,0.0,0.1942,0.2218,0.2328,0.2283,0.1961,0.1755,0.0,0.0,0.0,0.0,0.0,0.0,0.0,0.0,0.0,0.0,0.0,0.0,0.0,0.0,0.0,0.0,0.0,0.0,0.0,0.0,0.0,0.0,0.0,0.0,0.0,0.0,0.0,0.0,0.0,0.0,0.0,0.0,0.0,0.0,0.0,0.0,0.0,0.0,0.0,0.0,0.0,0.0,0.0,0.0,0.0,0.0,0.0,0.0,0.0,0.0,0.0,0.0,0.0,0.0,0.0,0.0,0.0,0.0,0.0,0.0,0.0,0.0,0.0,0.0,0.0,0.0,0.0,0.0,0.0,0.0,0.0,0.0,0.0,0.0,0.0,0.0,0.0,0.0,0.0,0.0,0.0,0.0,0.0,0.0,0.0,0.0,0.0,0.0,0.0,0.0,0.0,0.0,0.0,0.0,0.0,0.0,0.0,0.0,0.0,0.0,0.0,0.0,0.0,0.0,0.0,0.0,0.0,0.0,0.0,0.2747,0.3034,0.3055,0.2824,0.2487,0.2143,0.0,0.0,0.0,0.0,0.0,0.0,0.0,0.0,0.0,0.0,0.0,0.0,0.0,0.0,0.0,0.0,0.0,0.0,0.0,0.0,0.0,0.0,0.0,0.0,0.0,0.0,0.0,0.0,0.0,0.0,0.0,0.0,0.0,0.0,0.0,0.0,0.0,0.0,0.0,0.0,0.0,0.0,0.0,0.0,0.0,0.0,0.0,0.0,0.0,0.0,0.0,0.0,0.0,0.0,0.0,0.0,0.0,0.0,0.0,0.0,0.0,0.0,0.0,0.0,0.0,0.0,0.0,0.0,0.0,0.0,0.0,0.0,0.0,0.0,0.0,0.0,0.0,0.0,0.0,0.0,0.0,0.0,0.0,0.0,0.0,0.0,0.0,0.0,0.0,0.0,0.0,0.0,0.0,0.0,0.0,0.0,0.0,0.0,0.0,0.0,0.0,0.0,0.0,0.0,0.0,0.0,0.0,0.0,0.0,0.3652,0.0,0.369,0.3464,0.302,0.2587,0.0,0.0,0.0,0.0,0.0,0.0,0.0,0.0,0.0,0.0,0.0,0.0,0.0,0.0,0.0,0.0,0.0,0.0,0.0,0.0,0.0,0.0,0.0,0.0,0.0,0.0,0.0,0.0,0.0,0.0,0.0,0.0,0.0,0.0,0.0,0.0,0.0,0.0,0.0,0.0,0.0,0.0,0.0,0.0,0.0,0.0,0.0,0.0,0.0,0.0,0.0,0.0,0.0,0.0,0.0,0.0,0.0,0.0,0.0,0.0,0.0,0.0,0.0,0.0,0.0,0.0,0.0,0.0,0.0,0.0,0.0,0.0,0.0,0.0,0.0,0.0,0.0,0.0,0.0,0.0,0.0,0.0,0.0,0.0,0.0,0.0,0.0,0.0,0.0,0.0,0.0,0.0,0.0,0.0,0.0,0.0,0.0,0.0,0.0,0.0,0.0,0.0,0.0,0.0,0.0,0.0,0.0,0.0,0.3801,0.4652,0.4405,0.4245,0.4207,0.3568,0.3087,0.0,0.0,0.0,0.0,0.0,0.0,0.0,0.0,0.0,0.0,0.0,0.0,0.0,0.0,0.0,0.0,0.0,0.0,0.0,0.0,0.0,0.0,0.0,0.0,0.0,0.0,0.0,0.0,0.0,0.0,0.0,0.0,0.0,0.0,0.0,0.0,0.0,0.0,0.0,0.0,0.0,0.0,0.0,0.0,0.0,0.0,0.0,0.0,0.0,0.0,0.0,0.0,0.0,0.0,0.0,0.0,0.0,0.0,0.0,0.0,0.0,0.0,0.0,0.0,0.0,0.0,0.0,0.0,0.0,0.0,0.0,0.0,0.0,0.0,0.0,0.0,0.0,0.0,0.0,0.0,0.0,0.0,0.0,0.0,0.0,0.0,0.0,0.0,0.0,0.0,0.0,0.0,0.0,0.0,0.0,0.0,0.0,0.0,0.0,0.0,0.0,0.0,0.0,0.0,0.0,0.0,0.0,0.0,0.0,0.5451,0.5263,0.5124,0.5019,0.4288,0.3793,0.0,0.0,0.0,0.0,0.0,0.0,0.0,0.0,0.0,0.0,0.0,0.0,0.0,0.0,0.0,0.0,0.0,0.0,0.0,0.0,0.0,0.0,0.0,0.0,0.0,0.0,0.0,0.0,0.0,0.0,0.0,0.0,0.0,0.0,0.0,0.0,0.0,0.0,0.0,0.0,0.0,0.0,0.0,0.0,0.0,0.0,0.0,0.0,0.0,0.0,0.0,0.0,0.0,0.0,0.0,0.0,0.0,0.0,0.0,0.0,0.0,0.0,0.0,0.0,0.0,0.0,0.0,0.0,0.0,0.0,0.0,0.0,0.0,0.0,0.0,0.0,0.0,0.0,0.0,0.0,0.0,0.0,0.0,0.0,0.0,0.0,0.0,0.0,0.0,0.0,0.0,0.0,0.0,0.0,0.0,0.0,0.0,0.0,0.0,0.0,0.0,0.0,0.0,0.0,0.0,0.0,0.0,0.0,0.0,0.5856,0.5609,0.5447,0.537,0.4535,0.4068,0.4045,0.0,0.0,0.0,0.0,0.0,0.0,0.0,0.0,0.0,0.0,0.0,0.0,0.0,0.0,0.0,0.0,0.0,0.0,0.0,0.0,0.0,0.0,0.0,0.0,0.0,0.0,0.0,0.0,0.0,0.0,0.0,0.0,0.0,0.0,0.0,0.0,0.0,0.0,0.0,0.0,0.0,0.0,0.0,0.0,0.0,0.0,0.0,0.0,0.0,0.0,0.0,0.0,0.0,0.0,0.0,0.0,0.0,0.0,0.0,0.0,0.0,0.0,0.0,0.0,0.0,0.0,0.0,0.0,0.0,0.0,0.0,0.0,0.0,0.0,0.0,0.0,0.0,0.0,0.0,0.0,0.0,0.0,0.0,0.0,0.0,0.0,0.0,0.0,0.0,0.0,0.0,0.0,0.0,0.0,0.0,0.0,0.0,0.0,0.0,0.0,0.0,0.0,0.0,0.0,0.0,0.0,0.0,0.0,0.5908,0.5481,0.522,0.5156,0.4376,0.4023,0.0,0.0,0.0,0.0,0.0,0.0,0.0,0.0,0.0,0.0,0.0,0.0,0.0,0.0,0.0,0.0,0.0,0.0,0.0,0.0,0.0,0.0,0.0,0.0,0.0,0.0,0.0,0.0,0.0,0.0,0.0,0.0,0.0,0.0,0.0,0.0,0.0,0.0,0.0,0.0,0.0,0.0,0.0,0.0,0.0,0.0,0.0,0.0,0.0,0.0,0.0,0.0,0.0,0.0,0.0,0.0,0.0,0.0,0.0,0.0,0.0,0.0,0.0,0.0,0.0,0.0,0.0,0.0,0.0,0.0,0.0,0.0,0.0,0.0,0.0,0.0,0.0,0.0,0.0,0.0,0.0,0.0,0.0,0.0,0.0,0.0,0.0,0.0,0.0,0.0,0.0,0.0,0.0,0.0,0.0,0.0,0.0,0.0,0.0,0.0,0.0,0.0,0.0,0.0,0.0,0.0,0.0,0.0,0.0,0.6075,0.5222,0.4498,0.3937,0.4144,0.3869,0.0,0.0,0.0,0.0,0.0,0.0,0.0,0.0,0.0,0.0,0.0,0.0,0.0,0.0,0.0,0.0,0.0,0.0,0.0,0.0,0.0,0.0,0.0,0.0,0.0,0.0,0.0,0.0,0.0,0.0,0.0,0.0,0.0,0.0,0.0,0.0,0.0,0.0,0.0,0.0,0.0,0.0,0.0,0.0,0.0,0.0,0.0,0.0,0.0,0.0,0.0,0.0,0.0,0.0,0.0,0.0,0.0,0.0,0.0,0.0,0.0,0.0,0.0,0.0,0.0,0.0,0.0,0.0,0.0,0.0,0.0,0.0,0.0,0.0,0.0,0.0,0.0,0.0,0.0,0.0,0.0,0.0,0.0,0.0,0.0,0.0,0.0,0.0,0.0,0.0,0.0,0.0,0.0,0.0,0.0,0.0,0.0,0.0,0.0,0.0,0.0,0.0,0.0,0.0,0.0,0.0,0.0,0.0,0.735,0.6287,0.5079,0.3644,0.2014,0.3382,0.3634,0.0,0.0,0.0,0.0,0.0,0.0,0.0,0.0,0.0,0.0,0.0,0.0,0.0,0.0,0.0,0.0,0.0,0.0,0.0,0.0,0.0,0.0,0.0,0.0,0.0,0.0,0.0,0.0,0.0,0.0,0.0,0.0,0.0,0.0,0.0,0.0,0.0,0.0,0.0,0.0,0.0,0.0,0.0,0.0,0.0,0.0,0.0,0.0,0.0,0.0,0.0,0.0,0.0,0.0,0.0,0.0,0.0,0.0,0.0,0.0,0.0,0.0,0.0,0.0,0.0,0.0,0.0,0.0,0.0,0.0,0.0,0.0,0.0,0.0,0.0,0.0,0.0,0.0,0.0,0.0,0.0,0.0,0.0,0.0,0.0,0.0,0.0,0.0,0.0,0.0,0.0,0.0,0.0,0.0,0.0,0.0,0.0,0.0,0.0,0.0,0.0,0.0,0.0,0.0,0.0,0.0,0.0,0.0,0.7475,0.6649,0.5104,0.2947,0.0285,0.2508,0.336,0.0,0.0,0.0,0.0,0.0,0.0,0.0,0.0,0.0,0.0,0.0,0.0,0.0,0.0,0.0,0.0,0.0,0.0,0.0,0.0,0.0,0.0,0.0,0.0,0.0,0.0,0.0,0.0,0.0,0.0,0.0,0.0,0.0,0.0,0.0,0.0,0.0,0.0,0.0,0.0,0.0,0.0,0.0,0.0,0.0,0.0,0.0,0.0,0.0,0.0,0.0,0.0,0.0,0.0,0.0,0.0,0.0,0.0,0.0,0.0,0.0,0.0,0.0,0.0,0.0,0.0,0.0,0.0,0.0,0.0,0.0,0.0,0.0,0.0,0.0,0.0,0.0,0.0,0.0,0.0,0.0,0.0,0.0,0.0,0.0,0.0,0.0,0.0,0.0,0.0,0.0,0.0,0.0,0.0,0.0,0.0,0.0,0.0,0.0,0.0,0.0,0.0,0.0,0.0,0.0,0.0,0.0,0.0,0.8185,0.7659,0.5764,0.3439,0.0716,0.2784,0.2903,0.0,0.0,0.0,0.0,0.0,0.0,0.0,0.0,0.0,0.0,0.0,0.0,0.0,0.0,0.0,0.0,0.0,0.0,0.0,0.0,0.0,0.0,0.0,0.0,0.0,0.0,0.0,0.0,0.0,0.0,0.0,0.0,0.0,0.0,0.0,0.0,0.0,0.0,0.0,0.0,0.0,0.0,0.0,0.0,0.0,0.0,0.0,0.0,2.2066,0.0,0.0,0.0,0.0,0.0,0.0,0.0,0.0,0.0,0.0,0.0,0.0,0.0,0.0,0.0,0.0,0.0,0.0,0.0,0.0,0.0,0.0,0.0,0.0,0.0,0.0,0.0,0.0,0.0,0.0,0.0,0.0,0.0,0.0,0.0,0.0,0.0,0.0,0.0,0.0,0.0,0.0,0.0,0.0,0.0,0.0,0.0,0.0,0.0,0.0,0.0,0.0,0.0,0.0,0.0,0.0,0.0,0.0,0.0,0.8909,0.8267,0.6507,0.4201,0.1554,0.2851,0.2742,0.0,0.0,0.0,0.0,0.0,0.0,0.0,0.0,0.0,0.0,0.0,0.0,0.0,0.0,0.0,0.0,0.0,0.0,0.0,0.0,0.0,0.0,0.0,0.0,0.0,0.0,0.0,0.0,0.0,0.0,0.0,0.0,0.0,0.0,0.0,0.0,0.0,0.0,0.0,0.0,0.0,0.0,0.0,0.0,0.0,0.0,0.0,0.0,0.0,0.0,0.0,0.0,0.0,0.0,0.0,0.0,0.0,0.0,0.0,0.0,0.0,0.0,0.0,0.0,0.0,0.0,0.0,0.0,0.0,0.0,0.0,0.0,0.0,0.0,0.0,0.0,0.0,0.0,0.0,0.0,0.0,0.0,0.0,0.0,0.0,0.0,0.0,0.0,0.0,0.0,0.0,0.0,0.0,0.0,0.0,0.0,0.0,0.0,0.0,0.0,0.0,0.0,0.0,0.0,0.0,0.0,0.0,1.0089,0.9566,0.8684,0.7237,0.5098,0.2312,0.3008,0.2923,0.1867,0.0,0.0,0.0,0.0,0.0,0.0,0.0,0.0,0.0,0.0,0.0,0.0,0.0,0.0,0.0,0.0,0.0,0.0,0.0,0.0,0.0,0.0,0.0,0.0,0.0,0.0,0.0,0.0,0.0,0.0,0.0,0.0,0.0,0.0,0.0,0.0,0.0,0.0,1.8555,1.947,0.0,0.0,0.0,0.0,0.0,0.0,0.0,0.0,2.2061,0.0,0.0,0.0,0.0,0.0,0.0,0.0,0.0,0.0,0.0,0.0,0.0,0.0,0.0,0.0,0.0,0.0,0.0,0.0,0.0,0.0,0.0,0.0,0.0,0.0,0.0,0.0,0.0,0.0,0.0,0.0,0.0,0.0,0.0,0.0,0.0,0.0,0.0,0.0,0.0,0.0,0.0,0.0,0.0,0.0,0.0,0.0,0.0,0.0,0.0,0.0,0.0,0.0,0.0,0.0,0.0,1.0923,1.0585,0.9991,0.91,0.787,0.5992,0.3541,0.3884,0.3922,0.3563,0.0,0.0,0.0,0.0,0.0,0.0,0.0,0.0,0.0,0.0,0.0,0.0,0.0,0.0,0.0,0.0,0.0,0.0,0.0,0.0,0.0,0.0,0.0,0.0,0.0,0.0,0.0,0.0,0.0,0.0,0.0,0.0,0.0,0.0,0.0,0.0,0.0,0.0,0.0,2.008,2.0294,0.0,0.0,0.0,0.0,0.0,0.0,0.0,0.0,2.2426,0.0,0.0,0.0,0.0,0.0,0.0,0.0,0.0,0.0,0.0,0.0,0.0,0.0,0.0,0.0,0.0,0.0,0.0,0.0,0.0,0.0,0.0,0.0,0.0,0.0,0.0,0.0,0.0,0.0,0.0,0.0,0.0,0.0,0.0,0.0,0.0,0.0,0.0,0.0,0.0,0.0,0.0,0.0,0.0,0.0,0.0,0.0,0.0,0.0,0.0,0.0,0.0,0.0,0.0,0.0,1.0866,1.1356,1.0998,0.9812,0.8944,0.7358,0.5045,0.4602,0.4417,0.0,0.0,0.0,0.0,0.0,0.0,0.0,0.0,0.0,0.0,0.0,0.0,0.0,0.0,0.0,0.0,0.0,0.0,0.0,0.0,0.0,0.0,0.0,0.0,0.0,0.0,0.0,0.0,0.0,0.0,0.0,0.0,0.0,0.0,0.0,0.0,0.0,0.0,0.0,0.0,2.0673,2.0958,2.1177,0.0,0.0,0.0,0.0,0.0,0.0,2.2615,2.2767,0.0,0.0,0.0,0.0,0.0,0.0,0.0,0.0,0.0,0.0,0.0,0.0,0.0,0.0,0.0,0.0,0.0,0.0,0.0,0.0,0.0,0.0,0.0,0.0,0.0,0.0,0.0,0.0,0.0,0.0,0.0,0.0,0.0,0.0,0.0,0.0,0.0,0.0,0.0,0.0,0.0,0.0,0.0,0.0,0.0,0.0,0.0,0.0,0.0,0.0,0.0,0.0,0.0,0.0,0.0,1.1043,1.1918,1.1761,1.0542,0.9853,0.8538,0.6592,0.6052,0.5667,0.0,0.0,0.0,0.0,0.0,0.0,0.0,0.0,0.0,0.0,0.0,0.0,0.0,0.0,0.0,0.0,0.0,0.0,0.0,0.0,0.0,0.0,0.0,0.0,0.0,0.0,0.0,0.0,0.0,0.0,0.0,0.0,0.0,0.0,0.0,0.0,0.0,0.0,0.0,0.0,0.0,2.1555,2.1451,2.19,0.0,0.0,0.0,0.0,2.2458,2.3054,0.0,0.0,0.0,0.0,0.0,0.0,0.0,0.0,0.0,0.0,0.0,0.0,0.0,0.0,0.0,0.0,0.0,0.0,0.0,0.0,0.0,0.0,0.0,0.0,0.0,0.0,0.0,0.0,0.0,0.0,0.0,0.0,0.0,0.0,0.0,0.0,0.0,0.0,0.0,0.0,0.0,0.0,0.0,0.0,0.0,0.0,0.0,0.0,0.0,0.0,0.0,0.0,0.0,0.0,0.0,0.0,1.2132,1.1828,1.147,1.1161,1.0078,0.8994,0.801,0.9379,0.8976,0.0,0.0,0.0,0.0,0.0,0.0,0.0,0.0,0.0,0.0,0.0,0.0,0.0,0.0,0.0,0.0,0.0,0.0,0.0,0.0,0.0,0.0,0.0,0.0,0.0,0.0,0.0,0.0,0.0,0.0,0.0,0.0,0.0,0.0,0.0,0.0,0.0,0.0,0.0,0.0,0.0,2.1491,2.1255,2.1699,2.1858,0.0,0.0,0.0,2.3838,2.4942,0.0,0.0,0.0,0.0,0.0,0.0,0.0,0.0,0.0,0.0,0.0,0.0,0.0,0.0,0.0,0.0,0.0,0.0,0.0,0.0,0.0,0.0,0.0,0.0,0.0,0.0,0.0,0.0,0.0,0.0,0.0,0.0,0.0,0.0,0.0,0.0,0.0,0.0,0.0,0.0,0.0,0.0,0.0,0.0,0.0,0.0,0.0,0.0,0.0,0.0,0.0,0.0,0.0,0.0,0.0,1.1727,1.1964,1.2475,1.2374,1.1593,1.0717,0.9831,0.8967,0.9396,0.8944,0.0,0.0,0.0,0.0,0.0,0.0,0.0,0.0,0.0,0.0,0.0,0.0,0.0,0.0,0.0,0.0,0.0,0.0,0.0,0.0,0.0,0.0,0.0,0.0,0.0,0.0,0.0,0.0,0.0,0.0,0.0,0.0,0.0,0.0,0.0,0.0,0.0,0.0,0.0,0.0,0.0,0.0,2.148,2.2561,0.0,0.0,0.0,2.4055,2.3842,0.0,0.0,0.0,0.0,0.0,0.0,0.0,0.0,0.0,0.0,0.0,0.0,0.0,0.0,0.0,0.0,0.0,0.0,0.0,0.0,0.0,0.0,0.0,0.0,0.0,0.0,0.0,0.0,0.0,0.0,0.0,0.0,0.0,0.0,0.0,0.0,0.0,0.0,0.0,0.0,0.0,0.0,0.0,0.0,0.0,0.0,0.0,0.0,0.0,0.0,0.0,0.0,0.0,0.0,0.0,0.0,0.0,1.1906,1.2936,1.3002,1.2066,1.1188,1.0401,0.9649,0.9383,0.0,0.0,0.0,0.0,0.0,0.0,0.0,0.0,0.0,0.0,0.0,0.0,0.0,0.0,0.0,0.0,0.0,0.0,0.0,0.0,0.0,0.0,0.0,0.0,0.0,0.0,0.0,0.0,0.0,0.0,0.0,0.0,0.0,0.0,0.0,0.0,0.0,0.0,0.0,0.0,0.0,0.0,2.2708,2.2355,2.3561,2.4298,0.0,0.0,2.4978,2.4467,2.6176,2.7023,0.0,0.0,0.0,0.0,0.0,0.0,0.0,0.0,0.0,0.0,0.0,0.0,0.0,0.0,0.0,0.0,0.0,0.0,0.0,0.0,0.0,0.0,0.0,0.0,0.0,0.0,0.0,0.0,0.0,0.0,0.0,0.0,0.0,0.0,0.0,0.0,0.0,0.0,0.0,0.0,0.0,0.0,0.0,0.0,0.0,0.0,0.0,0.0,0.0,0.0,0.0,0.0,0.0,0.0,0.0,1.2608,1.2777,1.2834,1.2696,1.1343,1.0396,1.0009,1.0483,1.0373,0.0,0.0,0.0,0.0,0.0,0.0,0.0,0.0,0.0,0.0,0.0,0.0,0.0,0.0,0.0,0.0,0.0,0.0,0.0,0.0,0.0,0.0,0.0,0.0,0.0,0.0,0.0,0.0,0.0,0.0,0.0,0.0,0.0,0.0,0.0,0.0,0.0,0.0,0.0,0.0,0.0,2.4097,2.4214,2.4383,2.4858,0.0,0.0,2.6039,2.6656,2.8235,2.871,2.6611,0.0,0.0,0.0,0.0,0.0,0.0,0.0,0.0,0.0,0.0,0.0,0.0,0.0,0.0,0.0,0.0,0.0,0.0,0.0,0.0,0.0,0.0,0.0,0.0,0.0,0.0,0.0,0.0,0.0,0.0,0.0,0.0,0.0,0.0,0.0,0.0,0.0,0.0,0.0,0.0,0.0,0.0,0.0,0.0,0.0,0.0,0.0,0.0,0.0,0.0,0.0,0.0,0.0,1.2558,1.2828,1.2953,1.3077,1.3119,1.1562,1.0602,1.038,1.0436,1.0369,0.0,0.0,0.0,0.0,0.0,0.0,0.0,0.0,0.0,0.0,0.0,0.0,0.0,0.0,0.0,0.0,0.0,0.0,0.0,0.0,0.0,0.0,0.0,0.0,0.0,0.0,0.0,0.0,1.7484,1.7969,1.8563,0.0,0.0,0.0,0.0,0.0,0.0,0.0,0.0,0.0,0.0,2.454,2.5341,2.61,0.0,0.0,2.751,2.7743,2.7046,2.8195,2.8331,2.5929,2.5441,0.0,0.0,0.0,0.0,0.0,0.0,0.0,0.0,0.0,0.0,0.0,0.0,0.0,0.0,0.0,0.0,0.0,0.0,0.0,0.0,0.0,0.0,0.0,0.0,0.0,0.0,0.0,0.0,0.0,0.0,0.0,0.0,0.0,0.0,0.0,0.0,0.0,0.0,0.0,0.0,0.0,0.0,0.0,0.0,0.0,0.0,0.0,0.0,0.0,0.0,0.0,0.0,1.2813,1.272,1.3262,1.3444,1.3219,1.1786,1.0896,1.0618,1.0391,1.0351,0.0,0.0,0.0,0.0,0.0,0.0,0.0,0.0,0.0,0.0,0.0,0.0,0.0,0.0,0.0,0.0,0.0,0.0,0.0,0.0,0.0,0.0,0.0,0.0,0.0,0.0,0.0,0.0,1.8103,1.8545,1.8961,0.0,0.0,0.0,0.0,0.0,0.0,0.0,0.0,0.0,0.0,2.5504,2.6287,2.6993,2.7457,2.7589,2.818,2.8349,2.7603,2.8303,2.8164,2.5955,0.0,0.0,0.0,0.0,0.0,0.0,0.0,0.0,0.0,0.0,0.0,0.0,0.0,0.0,0.0,0.0,0.0,0.0,0.0,0.0,0.0,0.0,0.0,0.0,0.0,0.0,0.0,0.0,0.0,0.0,0.4127,0.0,0.0,0.0,0.0,0.0,0.0,0.0,0.0,0.0,0.0,0.0,0.0,0.0,0.0,0.0,0.0,0.0,0.0,0.0,0.0,0.0,0.0,0.0,1.2346,1.3679,1.3868,1.2851,1.1956,1.1212,1.0651,1.0474,1.0546,1.0892,0.0,0.0,0.0,0.0,0.0,0.0,0.0,0.0,0.0,0.0,0.0,0.0,0.0,0.0,0.0,0.0,0.0,0.0,0.0,0.0,0.0,0.0,0.0,0.0,0.0,0.0,1.7095,1.812,1.8803,0.0,0.0,0.0,0.0,0.0,0.0,0.0,0.0,0.0,0.0,2.5977,2.7282,2.7098,2.6674,2.6897,2.8108,2.7635,2.7513,2.8637,2.8933,2.8538,0.0,0.0,0.0,0.0,0.0,0.0,0.0,0.0,0.0,0.0,0.0,0.0,0.0,0.0,0.0,0.0,0.0,0.0,0.0,0.0,0.0,0.0,0.0,0.0,0.0,0.0,0.0,0.5307,0.5649,0.0,0.0,0.0,0.0,0.0,0.0,0.0,0.0,0.0,0.0,0.0,0.9768,1.0556,0.0,0.0,0.0,0.0,0.0,0.0,0.0,0.0,0.0,0.0,0.0,0.0,1.3017,1.296,1.3978,1.4214,1.3534,1.2544,1.188,1.1542,1.1203,1.1229,1.1702,0.0,0.0,0.0,0.0,0.0,0.0,0.0,0.0,0.0,0.0,0.0,0.0,0.0,0.0,0.0,0.0,0.0,0.0,0.0,0.0,0.0,0.0,0.0,0.0,0.0,1.7849,0.0,0.0,0.0,0.0,0.0,0.0,0.0,0.0,0.0,0.0,0.0,2.4181,2.5927,2.6874,2.7624,2.8213,2.8218,2.8475,0.0,0.0,0.0,0.0,0.0,0.0,0.0,0.0,0.0,0.0,0.0,0.0,0.0,0.0,2.8613,2.8351,2.8383,2.8525,2.872,0.0,0.0,0.0,0.0,0.0,0.0,0.0,0.0,0.0,0.0,0.0,0.0,0.0,0.0,0.6691,0.0,0.6867,0.0,0.0,0.0,0.0,0.0,0.0,0.0,0.0,1.0703,1.1377,1.1561,1.2258,1.2532,0.0,1.2656,1.2465,0.0,0.0,0.0,0.0,0.0,0.0,0.0,0.0,1.3208,1.2806,1.4214,1.4544,1.361,1.291,1.2396,1.2102,1.1753,1.1641,1.1882,1.213,1.267,0.0,0.0,0.0,0.0,0.0,0.0,0.0,0.0,0.0,0.0,0.0,0.0,0.0,0.0,0.0,0.0,0.0,0.0,0.0,0.0,0.0,0.0,0.0,1.9422,0.0,0.0,0.0,0.0,0.0,0.0,0.0,0.0,0.0,2.3671,2.4223,2.5241,2.6971,2.7655,2.8069,2.8258,0.0,0.0,0.0,0.0,0.0,0.0,0.0,2.8667,2.7655,2.8117,2.8772,2.9332,3.0025,3.0528,3.0689,0.0,0.0,2.9907,2.9963,3.0096,3.0111,2.9774,2.9893,3.1135,3.1392,3.1762,0.0,0.0,0.0,0.0,0.0,0.0,0.0,0.0,0.7486,0.7479,0.0,0.7681,0.0,0.0,0.0,0.0,0.0,0.0,0.0,0.0,1.3161,1.3697,1.32,1.3592,1.3636,1.3411,1.3889,1.4187,1.4288,1.3484,0.0,0.0,0.0,0.0,0.0,0.0,1.3571,1.2225,1.4595,1.4958,1.3241,1.3141,1.2877,1.2366,1.2201,1.1977,1.1692,1.2881,1.3454,1.3337,1.3783,0.0,0.0,0.0,0.0,0.0,0.0,0.0,0.0,0.0,0.0,0.0,0.0,0.0,0.0,0.0,0.0,0.0,0.0,0.0,0.0,1.981,0.0,0.0,0.0,0.0,0.0,0.0,0.0,0.0,0.0,0.0,2.4159,2.5424,2.6665,2.7186,0.0,0.0,0.0,0.0,2.8864,2.8093,2.8456,2.9158,2.9942,3.0424,3.0592,3.0325,0.0,0.0,3.1291,3.1182,3.116,3.1146,3.1539,3.1624,3.1234,3.1483,3.1742,3.1756,3.1729,3.2,3.2465,3.2738,3.2878,0.7267,0.0,0.0,0.0,0.0,0.8244,0.8641,0.8858,0.9446,0.9837,1.0083,1.0253,0.0,0.0,0.0,0.0,0.0,0.0,1.1427,1.2536,1.3438,1.4114,1.4614,1.5014,1.5301,1.551,1.5786,1.5874,1.5825,1.5922,1.5122,1.3476,0.0,0.0,0.0,0.0,1.6057,1.598,1.7542,1.7464,1.5539,1.5233,1.449,1.3256,1.3674,1.3927,1.3933,1.4154,1.465,1.5344,1.4567,0.0,0.0,0.0,0.0,0.0,0.0,0.0,0.0,0.0,0.0,0.0,0.0,0.0,0.0,0.0,0.0,0.0,0.0,0.0,2.0414,2.1261,2.1641,0.0,0.0,0.0,0.0,0.0,0.0,0.0,0.0,0.0,2.7772,2.6919,2.6651,0.0,0.0,2.8603,2.8525,2.9358,2.999,3.0078,0.0,0.0,0.0,3.1188,3.1024,3.0952,3.1703,3.2465,3.2901,3.3205,3.3425,3.3425,3.3536,3.358,3.3425,3.2779,3.2363,3.2319,3.2672,3.3316,3.4234,3.5076,3.5937,0.9341,0.9327,0.9109,0.9328,0.9841,1.0305,1.0643,1.0891,1.1317,1.1509,1.1505,1.1676,1.1486,1.1025,1.1353,0.0,0.0,0.0,1.2871,1.4299,1.4801,1.5416,1.6113,1.6371,1.6644,1.6943,1.7068,1.7126,1.7121,1.7469,1.7063,1.5948,0.0,0.0,1.4678,1.6513,1.7365,1.7252,1.8695,1.8563,1.6729,1.6119,1.5172,1.3869,1.4637,1.4954,1.4647,1.5305,1.5762,1.5959,1.5578,1.5444,0.0,0.0,0.0,0.0,0.0,0.0,0.0,0.0,0.0,0.0,0.0,1.6264,0.0,0.0,0.0,0.0,2.0616,2.1859,2.2326,2.2595,0.0,0.0,0.0,0.0,0.0,0.0,0.0,2.568,2.6924,2.8185,2.9174,2.8436,2.8183,2.9168,2.9493,2.9675,2.9765,0.0,3.1294,3.1397,3.1678,3.2003,3.2295,3.2266,3.2251,3.2439,3.2972,3.3471,3.3895,3.4217,3.4382,3.4412,3.4617,3.4791,3.4791,3.4341,3.3904,3.3703,3.3966,3.4685,3.599,3.6869,3.7592,1.1759,1.2506,1.0827,1.107,1.249,1.2377,1.2543,1.2955,1.2963,1.2606,1.2061,1.2372,1.2388,1.2192,1.2336,0.0,0.0,1.4071,1.4843,1.6503,1.687,1.7267,1.767,1.7724,1.785,1.8076,1.8076,1.8164,1.8369,1.8434,1.8468,1.8463,1.7241,1.612,1.5302,1.7368,1.8005,1.7108,1.8776,1.8807,1.7225,1.6307,1.5389,1.4439,1.5359,1.5492,1.4722,1.6391,1.6914,1.5929,1.6765,1.7344,1.7462,0.0,0.0,0.0,0.0,0.0,0.0,0.0,0.0,0.0,0.0,0.0,0.0,0.0,0.0,0.0,2.1897,0.0,2.4276,2.3795,0.0,0.0,0.0,2.4388,2.4869,2.6072,2.683,2.6708,0.0,0.0,0.0,0.0,3.0743,3.1203,3.1396,3.1384,3.101,3.1975,3.2623,3.2234,3.2691,3.3104,3.313,3.3416,3.3771,3.413,3.4397,3.4356,3.4356,3.4385,3.4397,3.4397,3.4893,3.5273,3.5319,3.5575,3.6011,3.5447,3.5436,3.5954,3.741,3.7895,3.8071,1.2466,1.3039,1.2917,1.3167,1.3666,1.3387,1.3352,1.3491,1.3508,1.3673,1.4029,1.4262,1.4704,1.5305,1.5094,1.5493,1.6317,1.6008,1.6369,1.7314,1.7881,1.8503,1.9176,1.9647,2.0051,2.038,2.038,2.0198,1.9812,1.9802,1.9647,1.9303,1.8787,1.8326,1.7986,1.9251,2.004,2.0354,2.0929,2.045,1.8873,1.7728,1.7039,1.6776,1.727,1.767,1.7996,1.825,1.8469,1.8665,1.8226,1.7828,1.7579,1.7041,0.0,0.0,0.0,0.0,0.0,0.0,0.0,0.0,0.0,1.7586,1.8489,0.0,2.1526,0.0,2.2992,2.407,2.4762,2.4681,0.0,0.0,2.4814,2.5219,2.5875,2.6873,2.7503,2.7584,2.866,2.9821,3.0961,3.1631,3.2404,3.3413,3.2518,3.1843,3.2194,3.2926,3.3441,3.3355,3.3696,3.4066,3.4037,3.4164,3.4261,3.4385,3.4397,3.4397,3.4397,3.4397,3.4397,3.4397,3.453,3.4632,3.4675,3.4745,3.5227,3.5865,3.6083,3.647,3.7764,3.8415,3.8996,1.4341,1.4896,1.4966,1.5227,1.5525,1.4536,1.4209,1.4417,1.4548,1.4839,1.5247,1.5342,1.5788,1.6437,1.6411,1.6683,1.7196,1.7338,1.7807,1.8569,1.9165,1.9676,2.0109,2.0434,2.0754,2.1072,2.1072,2.1091,2.1152,2.1162,2.1086,2.0949,2.0879,2.0685,2.037,2.039,2.0607,2.0991,2.1215,2.0766,1.9695,1.9052,1.8285,1.7394,1.8062,1.8385,1.827,1.8708,1.8987,1.8982,1.8679,1.8296,1.7813,1.7605,1.7306,0.0,0.0,0.0,0.0,0.0,0.0,0.0,0.0,0.0,0.0,0.0,2.3015,0.0,2.4448,0.0,2.5315,2.5433,2.554,2.5722,2.5942,2.6383,2.711,2.7773,2.837,2.8793,2.9913,3.1087,3.2188,3.2918,3.3585,3.4295,3.3567,3.3063,3.3412,3.3777,3.4012,3.401,3.4217,3.4397,3.4397,3.4397,3.4397,3.4397,3.4397,3.4397,3.4397,3.4397,3.4397,3.4412,3.4646,3.4852,3.4881,3.5288,3.5937,3.6781,3.7296,3.7797,3.8682,3.9181,3.9716,1.6539,1.6968,1.6733,1.69,1.7187,1.5635,1.5215,1.558,1.5835,1.6025,1.6183,1.6226,1.6462,1.6821,1.7149,1.7475,1.7814,1.8346,1.9046,1.9814,2.0421,2.0719,2.0843,2.0895,2.1028,2.1222,2.1232,2.1631,2.2305,2.2335,2.2429,2.2655,2.2768,2.2624,2.2214,2.1226,2.0645,2.0542,2.0825,2.0725,2.0253,2.0348,1.9526,1.777,1.8586,1.8647,1.7751,1.8856,1.9194,1.8538,1.8929,1.8887,1.8227,1.8061,1.804,0.0,1.7923,0.0,0.0,0.0,0.0,0.0,0.0,0.0,0.0,2.2946,2.4098,2.5696,2.5892,2.5971,2.6094,2.6266,2.6546,2.7003,2.7216,2.7635,2.8314,2.8717,2.921,3.0013,3.126,3.2294,3.2892,3.3823,3.4382,3.4382,3.4327,3.424,3.4353,3.4356,3.4356,3.4397,3.4397,3.4397,3.4397,3.4397,3.4397,3.4397,3.4397,3.4397,3.4397,3.4397,3.4397,3.4441,3.4837,3.5238,3.5348,3.6224,3.7127,3.7828,3.8402,3.9031,3.9764,3.9999,4.0202,1.7241,1.7025,1.7349,1.7025,1.6299,1.6463,1.6775,1.7093,1.7136,1.7362,1.7723,1.8032,1.8308,1.8551,1.8753,1.8974,1.9208,1.9164,1.9566,2.0375,2.0865,2.1428,2.2063,2.245,2.2762,2.2977,2.3019,2.3009,2.3003,2.3003,2.2957,2.2829,2.2502,2.2377,2.2432,0.0,0.0,0.0,2.2008,2.2097,2.1483,2.1483,2.1307,2.0887,2.038,0.0,2.0652,2.0616,2.0539,2.039,2.0588,0.0,0.0,0.0,0.0,0.0,0.0,0.0,0.0,0.0,0.0,0.0,2.2517,2.285,2.272,2.3887,2.5046,2.5946,2.6435,2.6958,2.7595,2.7697,2.777,2.7873,2.8007,2.8351,2.8946,2.924,2.9722,3.0629,3.1677,3.2486,3.3006,3.3823,3.4382,3.4397,3.4397,3.4397,3.4397,3.4397,3.4397,3.4397,3.4397,3.4397,3.4397,3.4397,3.4397,3.4397,3.4397,3.4397,3.4397,3.4397,3.4414,3.4414,3.4501,3.4757,3.5176,3.5865,3.6785,3.7741,3.8535,3.9316,4.0404,4.0614,4.0783,1.8516,0.0,1.8638,1.8461,0.0,1.8278,1.8524,1.865,1.8163,1.8224,1.8695,1.8899,1.9143,1.9464,1.9553,1.9647,1.9764,1.9991,2.031,2.0724,2.1473,2.1999,2.2306,2.2777,2.3143,2.3336,2.3358,2.3465,2.3678,2.3689,2.3684,2.369,2.3464,2.3494,2.3842,2.4258,2.3917,2.2781,2.3112,2.3182,2.2997,2.2841,2.2474,2.1863,0.0,0.0,0.0,0.0,0.0,0.0,0.0,0.0,0.0,0.0,0.0,1.9392,1.935,1.9852,2.0992,2.1844,2.2699,2.3679,2.4833,2.5179,2.4338,2.5657,2.6678,2.7049,2.734,2.7662,2.8039,2.8177,2.8334,2.8615,2.8807,2.9119,2.9707,3.0169,3.0754,3.1545,3.2396,3.3142,3.3641,3.4064,3.4382,3.4397,3.4397,3.4397,3.4397,3.4397,3.4397,3.4397,3.4397,3.4397,3.4397,3.4397,3.4397,3.4397,3.4397,3.4397,3.4397,3.4397,3.4467,3.4719,3.4804,3.4955,3.5476,3.6281,3.7226,3.8159,3.9131,4.0111,4.1167,4.1241,4.1207,1.9656,1.9656,1.9824,1.9912,1.9912,1.9912,1.9922,1.9894,0.0,0.0,0.0,1.9401,1.961,1.9961,1.9922,1.9922,2.0,2.0501,2.0792,2.0938,2.184,2.2273,2.2323,2.2732,2.312,2.3381,2.3381,2.3669,2.4218,2.4249,2.4368,2.4604,2.4615,2.4871,2.538,2.5925,2.5696,2.4696,2.4342,2.4224,2.4362,2.4147,2.3511,2.2476,2.2551,2.2403,2.2037,2.2419,2.2676,2.2724,2.2341,2.1889,2.1418,2.1371,2.1355,2.139,2.1196,2.1696,2.311,2.3444,2.4087,2.5257,2.6771,2.7193,2.6133,2.7311,2.8112,2.8145,2.8238,2.8361,2.8485,2.8604,2.8861,2.9369,2.9561,2.9906,3.0493,3.1091,3.1702,3.2469,3.3113,3.3769,3.4264,3.4382,3.4397,3.4397,3.4397,3.4397,3.4397,3.4397,3.4397,3.4397,3.4397,3.4397,3.4397,3.4397,3.4397,3.4397,3.4397,3.4416,3.4501,3.4534,3.4754,3.5236,3.5317,3.5528,3.6005,3.7044,3.8073,3.879,3.9974,4.1086,4.1821,4.1867,4.177,1.9843,1.9843,1.9883,1.9912,1.9912,1.9912,2.002,2.0216,1.9836,1.973,1.9817,1.9817,1.9972,2.0225,2.0,2.002,2.0225,2.0126,2.0335,0.0,2.1227,2.1851,2.2719,2.304,2.3483,2.402,2.4061,2.4199,2.4433,2.4454,2.4658,2.5052,2.5094,2.5422,2.6009,2.6144,2.6295,2.6481,2.5867,2.5342,2.4965,2.4926,2.4851,2.4654,2.4284,2.4066,2.3988,2.4205,2.4142,2.3748,2.4159,2.4077,2.3348,2.288,2.2524,2.2255,2.2143,2.2408,2.3148,2.3612,2.4318,2.5425,2.7201,2.7919,2.7131,2.7679,2.8161,2.8368,2.8795,2.9326,2.9964,3.0038,3.0052,3.0204,3.0266,3.0513,3.1132,3.1543,3.2149,3.3034,3.3504,3.3916,3.4303,3.4397,3.4397,3.4397,3.4397,3.4397,3.4397,3.4397,3.4397,3.4397,3.4397,3.4397,3.4397,3.4382,3.4448,3.4397,3.445,3.4637,3.5036,3.507,3.5252,3.5705,3.5816,3.6022,3.6538,3.7714,3.8699,3.9408,4.069,4.1853,4.2158,4.246,4.2726,2.0118,2.0147,2.0235,2.0274,2.0265,2.0274,2.0352,2.045,2.0333,2.0274,2.0274,2.0274,2.0333,2.045,2.0333,2.0352,2.045,2.044,2.0605,2.0918,2.1342,2.2009,2.2835,2.3181,2.3694,2.4358,2.4347,2.4411,2.4507,2.4507,2.4722,2.52,2.5653,2.6071,2.6362,2.6622,2.6839,2.7035,2.6624,2.6296,2.6091,2.582,2.5625,2.5486,2.527,2.517,2.517,2.5526,2.5619,2.5363,2.5376,2.5249,2.4981,2.4093,2.3667,2.3876,2.3169,2.3079,2.3863,2.4648,2.5663,2.693,2.8137,2.8737,2.8473,2.8992,2.9393,2.949,2.9717,2.9991,3.0361,3.0388,3.0523,3.0853,3.104,3.1408,3.1985,3.2566,3.3047,3.3506,3.3891,3.4196,3.438,3.4397,3.4397,3.4397,3.4397,3.4397,3.4414,3.4652,3.4704,3.4467,3.4397,3.4397,3.4431,3.4668,3.4804,3.4822,3.5054,3.5285,3.556,3.5592,3.58,3.6211,3.6336,3.6708,3.7451,3.8482,3.9377,4.0293,4.1215,4.2094,4.2554,4.3035,4.3265,2.0488,2.0672,2.0605,2.0596,2.0596,2.0596,2.0596,2.0596,2.0596,2.0596,2.0596,2.0596,2.0596,2.0605,2.0644,2.0654,2.0693,2.0877,2.0984,2.1071,2.1508,2.2179,2.292,2.3299,2.3813,2.4445,2.4507,2.454,2.4647,2.4668,2.4935,2.5527,2.629,2.6663,2.6663,2.7015,2.719,2.719,2.7067,2.6985,2.6942,2.6607,2.6333,2.6132,2.6111,2.6111,2.6134,2.6524,2.6727,2.6725,2.6375,2.625,2.6354,2.526,2.4869,2.5333,2.4366,2.4049,2.4969,2.613,2.725,2.8302,2.9188,2.9737,2.993,3.0459,3.0713,3.0635,3.0577,3.0645,3.0839,3.0839,3.1002,3.1471,3.1729,3.2052,3.2642,3.3273,3.3736,3.3805,3.4145,3.438,3.4397,3.4397,3.4397,3.4397,3.4397,3.4397,3.4448,3.4785,3.482,3.4721,3.4668,3.4787,3.4754,3.507,3.5332,3.5381,3.564,3.5849,3.6007,3.6086,3.6305,3.6754,3.7048,3.7435,3.8337,3.9219,4.0008,4.0863,4.1661,4.2396,4.3067,4.3355,4.3583,2.1035,2.1592,2.0938,2.0596,2.0625,2.0625,2.0644,2.0615,2.0615,2.0596,2.0634,2.0615,2.0605,2.0634,2.077,2.0867,2.0887,2.108,2.1263,2.1416,2.1515,2.2111,2.3102,2.3226,2.3681,2.4425,2.4518,2.4764,2.5126,2.5158,2.5559,2.6342,2.688,2.7129,2.7138,2.7158,2.719,2.719,2.719,2.717,2.717,2.7124,2.7089,2.708,2.7049,2.706,2.7005,2.7126,2.7129,2.7138,2.7264,2.734,2.7276,2.6555,2.6205,2.6446,2.5769,2.5714,2.6512,2.7996,2.88,2.8785,3.016,3.1038,3.1097,3.1644,3.1779,3.1355,3.1219,3.1422,3.1942,3.197,3.1978,3.2051,3.2182,3.23,3.2712,3.3094,3.3462,3.377,3.4162,3.4397,3.4397,3.4397,3.4397,3.4397,3.4397,3.4397,3.4414,3.4534,3.4771,3.507,3.5447,3.5673,3.5689,3.5769,3.5848,3.5833,3.5881,3.6165,3.6492,3.6662,3.68,3.7181,3.7849,3.8258,3.8714,3.9518,4.0547,4.1229,4.1977,4.2757,4.334,4.3583,4.3615,2.1396,2.1474,2.1407,2.1271,2.1155,2.1312,2.1212,2.0994,2.1252,2.1222,2.0964,2.0954,2.0886,2.079,2.0993,2.108,2.1089,2.1282,2.1406,2.1533,2.1894,2.2504,2.3153,2.3505,2.4086,2.485,2.4924,2.5168,2.5591,2.5853,2.6155,2.6507,2.6974,2.719,2.719,2.719,2.719,2.719,2.719,2.719,2.719,2.719,2.719,2.719,2.719,2.719,2.721,2.7322,2.7371,2.7391,2.7626,2.7849,2.8079,2.7473,2.7394,2.7857,2.7561,2.7625,2.8356,2.8956,2.9408,2.9684,3.0676,3.13,3.1327,3.1861,3.2078,3.1888,3.1847,3.1956,3.2178,3.2372,3.2485,3.2538,3.286,3.3192,3.3322,3.3701,3.4025,3.4145,3.4281,3.4397,3.4397,3.4397,3.4397,3.4397,3.4397,3.4397,3.4414,3.4654,3.4953,3.5234,3.5832,3.6165,3.6008,3.6196,3.6336,3.6445,3.6662,3.6983,3.709,3.718,3.727,3.748,3.8112,3.8697,3.9061,3.9866,4.0833,4.1627,4.2524,4.3295,4.3568,4.3615,4.3615,2.186,2.1712,2.1951,2.1876,2.164,2.195,2.1828,2.1477,2.1889,2.1848,2.1426,2.1575,2.1597,2.1449,2.1345,2.1343,2.1483,2.1677,2.1835,2.2017,2.2483,2.2956,2.3391,2.3732,2.4357,2.5073,2.52,2.5496,2.6052,2.6477,2.6672,2.6757,2.7035,2.719,2.719,2.719,2.719,2.719,2.719,2.719,2.721,2.724,2.726,2.721,2.719,2.7251,2.7374,2.7534,2.7644,2.7765,2.8059,2.8363,2.8625,2.8312,2.8411,2.899,2.8957,2.9124,2.9794,2.9821,3.0051,3.0599,3.1205,3.1549,3.1617,3.1942,3.2173,3.2173,3.2187,3.2173,3.2223,3.2503,3.2672,3.2725,3.3287,3.3684,3.3788,3.4077,3.423,3.438,3.438,3.4397,3.4397,3.4397,3.4397,3.4397,3.4397,3.4498,3.4618,3.4955,3.525,3.5559,3.6274,3.6461,3.6227,3.6569,3.6892,3.7171,3.7445,3.7469,3.7637,3.7654,3.7686,3.7875,3.8381,3.9074,3.9896,4.0642,4.1295,4.2391,4.3174,4.3568,4.3615,4.3615,4.3615,2.2391,2.2679,2.2539,2.2231,2.1919,2.2362,2.2322,2.1939,2.2403,2.2332,2.1989,2.2483,2.2778,2.2655,2.188,2.1748,2.2144,2.2352,2.2657,2.3009,2.3122,2.3422,2.3846,2.3898,2.4388,2.5253,2.5348,2.5716,2.6466,2.6921,2.717,2.717,2.7179,2.719,2.719,2.719,2.719,2.721,2.7231,2.721,2.7231,2.7412,2.7423,2.7251,2.721,2.7423,2.78,2.7872,2.8062,2.8451,2.8796,2.9045,2.9101,2.9163,2.9336,2.9617,2.9738,2.9932,3.038,3.081,3.1146,3.1316,3.1779,3.2132,3.2065,3.2146,3.2187,3.2187,3.2187,3.2187,3.2223,3.2503,3.2708,3.2761,3.3111,3.3479,3.3773,3.3908,3.4025,3.4312,3.4397,3.4397,3.4397,3.4397,3.4397,3.4414,3.4414,3.4585,3.4988,3.5169,3.5591,3.6196,3.6569,3.6693,3.6708,3.7139,3.7709,3.8069,3.8038,3.7827,3.7938,3.8081,3.8128,3.8333,3.8902,3.9691,4.0736,4.1548,4.2138,4.2851,4.3281,4.3568,4.3615,4.3615,4.3681,2.3309,2.334,2.2312,2.226,2.291,2.2961,2.2889,2.2797,2.3227,2.3002,2.2468,2.2847,2.2763,2.2198,2.2485,2.2681,2.2835,2.2895,2.3039,2.3246,2.3515,2.3867,2.4292,2.4577,2.5187,2.5924,2.6019,2.6342,2.688,2.7117,2.719,2.719,2.719,2.719,2.719,2.719,2.726,2.7391,2.7412,2.7464,2.7618,2.7719,2.7719,2.765,2.7638,2.7788,2.8091,2.8211,2.8483,2.8867,2.9126,2.9548,3.0107,3.0628,3.0963,3.1082,3.1234,3.1387,3.1541,3.173,3.1869,3.1875,3.2065,3.2187,3.2187,3.2187,3.2187,3.2187,3.2187,3.2187,3.2259,3.2503,3.281,3.3076,3.3392,3.377,3.4077,3.4179,3.4247,3.438,3.4397,3.4397,3.4397,3.4397,3.4397,3.4431,3.4702,3.4986,3.5185,3.5447,3.5832,3.6133,3.6476,3.6863,3.7328,3.7777,3.8318,3.8776,3.895,3.8902,3.8965,3.8539,3.8476,3.8965,3.9503,3.9977,4.0944,4.1929,4.26,4.299,4.3417,4.3568,4.3615,4.3698,4.3911,2.3758,2.3651,2.2716,2.2797,2.3576,2.3639,2.3536,2.3484,2.3888,2.365,2.3101,2.3277,2.3122,2.2801,2.3194,2.3505,2.3598,2.3484,2.3494,2.365,2.4106,2.4472,2.4775,2.5219,2.5811,2.6424,2.6663,2.6901,2.7149,2.719,2.719,2.719,2.719,2.724,2.7281,2.7281,2.7391,2.7574,2.7635,2.7728,2.7881,2.7962,2.8002,2.801,2.8062,2.8191,2.8387,2.8578,2.8914,2.9385,2.9754,3.0279,3.1043,3.1596,3.1927,3.2,3.2114,3.2187,3.2187,3.2187,3.2187,3.2187,3.2187,3.2187,3.2187,3.2187,3.2187,3.2205,3.2314,3.2368,3.2426,3.2668,3.3005,3.3304,3.3701,3.4094,3.4363,3.438,3.438,3.4397,3.4397,3.4397,3.4397,3.4397,3.4498,3.4618,3.4988,3.525,3.5655,3.5928,3.6243,3.6399,3.6785,3.7295,3.7732,3.8197,3.8965,3.9487,3.9455,3.955,3.9677,3.9202,3.9108,3.9613,4.004,4.042,4.1135,4.2168,4.2768,4.3173,4.3402,4.3598,4.3698,4.3861,4.4191,2.3689,2.3887,2.3877,2.3784,2.395,2.4208,2.4229,2.4002,2.4301,2.4177,2.3753,2.3877,2.3971,2.4187,2.3929,2.4084,2.4282,2.4096,2.4148,2.4459,2.4946,2.5189,2.5295,2.5695,2.6135,2.6569,2.6962,2.717,2.719,2.719,2.719,2.719,2.721,2.7322,2.7502,2.7502,2.7635,2.7841,2.7901,2.7901,2.7921,2.8111,2.8199,2.8219,2.8371,2.8538,2.8752,2.8993,2.9385,3.0056,3.0609,3.1248,3.1706,3.1908,3.1982,3.2146,3.2187,3.2187,3.2187,3.2187,3.2187,3.2187,3.2187,3.2205,3.2259,3.2259,3.2277,3.2354,3.2556,3.2704,3.2775,3.3058,3.3304,3.3357,3.3874,3.4264,3.438,3.4397,3.4397,3.4397,3.4397,3.4397,3.4397,3.4481,3.4668,3.5004,3.5283,3.5655,3.6305,3.66,3.6938,3.7255,3.7378,3.7584,3.8084,3.8603,3.9455,4.0119,3.9866,3.9803,4.0198,4.004,3.9961,4.0356,4.0706,4.1071,4.1739,4.2676,4.3093,4.3447,4.3568,4.3698,4.3928,4.4175,4.4572,2.399,2.4218,2.365,2.3784,2.4239,2.4167,2.4157,2.4312,2.4456,2.427,2.3991,2.4198,2.4063,2.3826,2.4074,2.4377,2.4514,2.4672,2.4862,2.5062,2.5464,2.5811,2.6051,2.6217,2.6539,2.6921,2.7129,2.719,2.719,2.719,2.719,2.7231,2.733,2.7421,2.7542,2.7687,2.7901,2.8091,2.8111,2.8171,2.8303,2.8371,2.8411,2.8411,2.8459,2.8598,2.8803,2.9126,2.9696,3.047,3.0817,3.1267,3.178,3.2036,3.2146,3.2187,3.2187,3.2187,3.2187,3.2187,3.2187,3.2187,3.2187,3.2314,3.2503,3.2507,3.2632,3.2846,3.3058,3.3111,3.3164,3.3427,3.3632,3.3632,3.3857,3.4145,3.4346,3.4397,3.4397,3.4397,3.4397,3.4397,3.4481,3.4652,3.5003,3.5299,3.5768,3.6383,3.6646,3.7014,3.7255,3.7495,3.7621,3.7811,3.8302,3.8807,3.9503,4.0245,4.0293,4.0309,4.0672,4.083,4.0799,4.0991,4.1342,4.1805,4.2457,4.2959,4.334,4.3553,4.3583,4.3845,4.4191,4.4539,4.4887,2.427,2.4425,2.3908,2.3981,2.4456,2.4208,2.4249,2.4487,2.4507,2.4353,2.4198,2.4229,2.4168,2.4043,2.4347,2.4703,2.5045,2.5471,2.5695,2.5716,2.5957,2.627,2.6528,2.6704,2.6901,2.7138,2.719,2.719,2.721,2.726,2.7322,2.7351,2.7534,2.7696,2.7765,2.7918,2.8111,2.8291,2.8299,2.8379,2.8471,2.851,2.851,2.853,2.8717,2.8922,2.9133,2.9683,3.0165,3.0609,3.1043,3.1545,3.1963,3.2128,3.2187,3.2187,3.2187,3.2187,3.2187,3.2187,3.2187,3.2187,3.2187,3.2277,3.2449,3.2521,3.2682,3.3005,3.3199,3.3357,3.3496,3.3805,3.4008,3.4042,3.4042,3.4128,3.4363,3.4397,3.4397,3.4397,3.4397,3.4484,3.4735,3.492,3.5397,3.5736,3.6305,3.6846,3.6968,3.7286,3.7436,3.751,3.7541,3.7906,3.8507,3.9029,3.955,4.0182,4.0719,4.0941,4.1289,4.121,4.1179,4.1565,4.1917,4.2235,4.2819,4.3112,4.3462,4.3539,4.3615,4.3762,4.4044,4.4705,4.5152,2.4551,2.4561,2.4519,2.4531,2.4583,2.4509,2.4466,2.4507,2.4507,2.4519,2.4458,2.4273,2.4504,2.4988,2.4859,2.5141,2.5861,2.6195,2.6424,2.6477,2.6539,2.6569,2.6684,2.6962,2.7149,2.719,2.7231,2.724,2.726,2.7444,2.7522,2.7574,2.7768,2.799,2.8119,2.8199,2.8279,2.8439,2.849,2.8478,2.851,2.851,2.851,2.853,2.9028,2.9406,2.9626,3.0381,3.0785,3.0672,3.1434,3.1945,3.215,3.2187,3.2187,3.2187,3.2187,3.2187,3.2187,3.2187,3.2187,3.2187,3.2187,3.2241,3.2372,3.2498,3.266,3.3023,3.3304,3.3545,3.3839,3.4128,3.4346,3.438,3.4329,3.4363,3.438,3.4397,3.4397,3.4397,3.4431,3.4551,3.4986,3.5151,3.5704,3.6258,3.6631,3.7014,3.727,3.745,3.7495,3.751,3.751,3.7859,3.8397,3.9013,3.955,4.0293,4.0877,4.1288,4.159,4.1544,4.1562,4.1965,4.2349,4.2695,4.2989,4.3265,4.3462,4.3568,4.3615,4.3615,4.4093,4.487,4.5566,2.5211,2.5496,2.5168,2.5009,2.4977,2.4668,2.4529,2.4507,2.4529,2.4754,2.4914,2.4893,2.5157,2.5653,2.5587,2.5827,2.6257,2.6445,2.6704,2.6983,2.7015,2.7015,2.7024,2.7117,2.719,2.721,2.7351,2.7421,2.7421,2.7667,2.78,2.78,2.7998,2.8139,2.8199,2.8351,2.8431,2.849,2.851,2.851,2.851,2.851,2.851,2.855,2.9106,2.9426,2.96,3.0558,3.1296,3.1527,3.1877,3.2146,3.2187,3.2187,3.2187,3.2187,3.2187,3.2187,3.2187,3.2187,3.2187,3.2187,3.2223,3.2426,3.2952,3.3002,3.3318,3.3788,3.4077,3.4111,3.423,3.4346,3.4397,3.4397,3.4397,3.4397,3.4397,3.4397,3.4397,3.4397,3.4397,3.4551,3.4804,3.5332,3.5833,3.6243,3.6785,3.7333,3.7561,3.751,3.7495,3.7526,3.7574,3.7874,3.8286,3.8918,3.9598,4.0372,4.0972,4.1446,4.1671,4.1738,4.1852,4.2109,4.2507,4.2866,4.3096,4.334,4.3462,4.3615,4.3714,4.3828,4.4605,4.5383,4.6046,2.5549,2.5591,2.5306,2.5221,2.5179,2.4892,2.4903,2.5073,2.5115,2.5221,2.5464,2.5475,2.5738,2.6146,2.6156,2.6394,2.6745,2.6787,2.6942,2.7129,2.717,2.719,2.719,2.719,2.719,2.721,2.7412,2.7482,2.7563,2.7837,2.8022,2.805,2.8219,2.8319,2.8351,2.8431,2.851,2.851,2.851,2.851,2.851,2.851,2.8677,2.8914,2.9477,2.9947,3.0589,3.1283,3.1772,3.1986,3.2132,3.2187,3.2187,3.2187,3.2187,3.2187,3.2187,3.2187,3.2187,3.2187,3.2187,3.2223,3.23,3.2579,3.2952,3.3182,3.358,3.3991,3.4145,3.423,3.4363,3.4397,3.4397,3.4397,3.4397,3.4397,3.4397,3.4397,3.4397,3.4448,3.4599,3.482,3.4971,3.5737,3.6227,3.6631,3.7119,3.7565,3.7875,3.7685,3.7653,3.7827,3.7938,3.8191,3.8665,3.9281,3.985,4.0609,4.1083,4.1557,4.1687,4.1835,4.2045,4.2254,4.2648,4.3005,4.325,4.3432,4.3524,4.3664,4.3828,4.4193,4.4887,4.5616,4.6328,2.5749,2.5411,2.5348,2.5337,2.5369,2.5306,2.5464,2.5822,2.5812,2.5853,2.5926,2.5969,2.6198,2.6569,2.658,2.6787,2.7158,2.7117,2.7149,2.719,2.719,2.721,2.726,2.721,2.7231,2.7281,2.7441,2.7563,2.7725,2.8047,2.8219,2.8259,2.8411,2.849,2.8471,2.851,2.851,2.851,2.851,2.851,2.855,2.863,2.8914,2.9321,3.0043,3.0897,3.168,3.2132,3.2169,3.2187,3.2187,3.2187,3.2187,3.2187,3.2187,3.2187,3.2187,3.2187,3.2187,3.2187,3.2187,3.2241,3.2462,3.2721,3.2878,3.3146,3.3479,3.3991,3.3857,3.4168,3.4535,3.4559,3.469,3.4745,3.4673,3.4513,3.4484,3.4441,3.4397,3.4414,3.4852,3.5268,3.58,3.6336,3.6847,3.6832,3.743,3.8115,3.8333,3.8254,3.8333,3.8555,3.8602,3.8603,3.9139,3.9708,4.0261,4.0878,4.1257,4.1621,4.1671,4.1835,4.211,4.2428,4.2866,4.3204,4.3464,4.3583,4.3615,4.3664,4.3795,4.4291,4.4919,4.5665,4.6394,2.6518,2.6747,2.6362,2.6217,2.6155,2.5884,2.5812,2.5927,2.5937,2.6135,2.6311,2.6362,2.6633,2.7024,2.7015,2.7117,2.719,2.719,2.719,2.719,2.719,2.7301,2.7371,2.7301,2.7301,2.7452,2.7719,2.7889,2.8079,2.8239,2.8431,2.8451,2.8451,2.851,2.851,2.851,2.851,2.851,2.851,2.853,2.8657,2.8961,2.9263,2.9581,3.0469,3.1357,3.1991,3.2187,3.2187,3.2187,3.2187,3.2187,3.2187,3.2187,3.2187,3.2205,3.2205,3.2205,3.2218,3.2277,3.2232,3.2368,3.2604,3.257,3.3129,3.3354,3.3706,3.4108,3.4278,3.4616,3.5082,3.5189,3.536,3.5546,3.5401,3.5171,3.5099,3.4704,3.4426,3.4431,3.4568,3.4802,3.5393,3.6414,3.6891,3.7079,3.7777,3.8635,3.8855,3.8855,3.8997,3.9218,3.9297,3.9313,3.9598,4.0151,4.0688,4.1083,4.1399,4.1605,4.1671,4.1916,4.2222,4.2617,4.3081,4.3372,4.3553,4.3615,4.3615,4.3696,4.3928,4.4655,4.5334,4.5963,4.6576,2.6652,2.6839,2.6622,2.6487,2.6466,2.6302,2.6322,2.6499,2.652,2.6623,2.6798,2.6839,2.6974,2.719,2.719,2.719,2.719,2.719,2.719,2.7231,2.7281,2.7391,2.7502,2.7545,2.7598,2.7708,2.793,2.8111,2.8219,2.8391,2.849,2.851,2.851,2.851,2.851,2.851,2.851,2.851,2.851,2.863,2.8941,2.9204,2.9793,3.0273,3.114,3.1882,3.215,3.2187,3.2187,3.22,3.2214,3.22,3.22,3.22,3.22,3.2205,3.2372,3.2509,3.2609,3.2937,3.3239,3.3307,3.3642,3.4056,3.4437,3.4601,3.4852,3.5163,3.5325,3.5473,3.5781,3.5825,3.604,3.6127,3.6025,3.5839,3.568,3.4994,3.4397,3.4501,3.4856,3.5426,3.6122,3.6876,3.7651,3.8168,3.8057,3.8871,3.9629,3.9645,3.9677,3.9819,3.9961,4.0072,4.0182,4.0577,4.1114,4.1384,4.1494,4.1588,4.1621,4.1964,4.2365,4.2743,4.3084,4.3342,4.3509,4.3553,4.3878,4.4208,4.4638,4.5251,4.593,4.6676,4.7189,2.659,2.6622,2.661,2.659,2.661,2.661,2.6818,2.7129,2.719,2.7108,2.719,2.719,2.7149,2.719,2.719,2.719,2.721,2.726,2.7281,2.7301,2.7505,2.7615,2.7684,2.7829,2.7941,2.8002,2.8111,2.8223,2.843,2.8447,2.849,2.851,2.851,2.851,2.851,2.851,2.851,2.851,2.8677,2.9012,2.956,2.982,3.0567,3.1598,3.2168,3.2543,3.2625,3.2603,3.2521,3.2458,3.244,3.2458,3.2445,3.235,3.2472,3.255,3.28,3.2955,3.3339,3.3739,3.412,3.4654,3.5184,3.562,3.5704,3.5766,3.5916,3.607,3.6141,3.6214,3.6431,3.646,3.6519,3.6606,3.6559,3.646,3.6239,3.5384,3.4934,3.4937,3.5604,3.6312,3.6962,3.7692,3.8497,3.914,3.9013,3.9108,3.9898,4.0419,4.0451,4.0514,4.0656,4.0719,4.083,4.0846,4.1415,4.1509,4.1588,4.1605,4.1654,4.2077,4.246,4.2682,4.2995,4.3367,4.3857,4.4229,4.4556,4.4869,4.5233,4.5697,4.646,4.7371,4.7703,2.7076,2.7076,2.7097,2.7076,2.7076,2.7076,2.7097,2.719,2.719,2.719,2.719,2.719,2.719,2.719,2.719,2.719,2.724,2.7351,2.7452,2.7493,2.7708,2.7889,2.8018,2.8099,2.8223,2.8331,2.8343,2.849,2.877,2.8743,2.8534,2.851,2.8546,2.8558,2.857,2.8534,2.8707,2.8915,2.9177,2.9648,3.0358,3.1171,3.2028,3.3068,3.3336,3.3447,3.3534,3.3569,3.3623,3.3623,3.3609,3.3601,3.3587,3.3298,3.3461,3.3701,3.3477,3.3532,3.4213,3.4099,3.4394,3.4859,3.5464,3.5652,3.5839,3.5966,3.6328,3.6403,3.6489,3.6577,3.7099,3.711,3.7386,3.7545,3.7404,3.7143,3.6983,3.6519,3.6046,3.6172,3.6694,3.7231,3.7891,3.8505,3.9171,3.9819,4.004,4.0024,4.0435,4.0956,4.1225,4.1304,4.1399,4.1431,4.1463,4.1415,4.1557,4.1557,4.1605,4.1622,4.1802,4.2222,4.2555,4.2986,4.3465,4.3988,4.4436,4.4823,4.5251,4.5598,4.5847,4.6095,4.6825,4.7537,4.762,2.6994,2.719,2.719,2.719,2.719,2.719,2.719,2.719,2.719,2.719,2.719,2.719,2.719,2.719,2.719,2.724,2.7371,2.7441,2.7574,2.7728,2.795,2.8091,2.8219,2.8299,2.859,2.8691,2.8602,2.8543,2.8847,2.8643,2.8546,2.8582,2.8739,2.8919,2.9003,2.9252,2.948,2.9788,3.0151,3.075,3.1632,3.2604,3.339,3.373,3.3935,3.3908,3.3908,3.3908,3.3894,3.3938,3.4123,3.4511,3.476,3.4808,3.4611,3.4602,3.4315,3.4454,3.5302,3.539,3.5955,3.6377,3.6588,3.6808,3.6989,3.7125,3.7046,3.7204,3.7288,3.7404,3.7752,3.7738,3.7912,3.8057,3.7912,3.7781,3.7676,3.7433,3.7441,3.7489,3.7649,3.8097,3.8812,3.9397,3.9894,4.0401,4.0877,4.1004,4.1036,4.1272,4.1588,4.1588,4.1573,4.1589,4.1605,4.1605,4.1588,4.1588,4.1621,4.1654,4.1994,4.2446,4.3038,4.3566,4.4062,4.4721,4.4781,4.5101,4.5682,4.6262,4.6444,4.6709,4.7189,4.7587,4.7686,2.686,2.719,2.719,2.719,2.719,2.719,2.719,2.719,2.719,2.719,2.719,2.719,2.719,2.721,2.726,2.733,2.7502,2.7583,2.7777,2.797,2.8159,2.8259,2.8319,2.8447,2.8659,2.8839,2.8899,2.8727,2.8931,2.8655,2.8611,2.8919,2.9268,2.9388,2.9517,2.9977,3.063,3.0984,3.1475,3.2134,3.3205,3.392,3.426,3.4273,3.4273,3.4328,3.4428,3.4592,3.4597,3.4706,3.4975,3.5467,3.6111,3.6286,3.5947,3.5376,3.5312,3.5677,3.6288,3.662,3.694,3.7457,3.7942,3.8102,3.8111,3.7943,3.8082,3.8202,3.8144,3.8086,3.8101,3.8173,3.8173,3.8188,3.8188,3.8206,3.8186,3.8218,3.8564,3.8588,3.8564,3.8962,3.9693,4.02,4.0684,4.0796,4.1257,4.1272,4.132,4.1399,4.1588,4.1588,4.1588,4.1588,4.1588,4.1588,4.1588,4.1588,4.1638,4.1687,4.2187,4.2735,4.3346,4.3971,4.5022,4.557,4.5483,4.5581,4.631,4.6825,4.7007,4.7272,4.762,4.7785,4.7868,2.717,2.719,2.719,2.719,2.719,2.719,2.719,2.719,2.719,2.719,2.719,2.719,2.719,2.724,2.7391,2.7482,2.7623,2.7866,2.8114,2.8294,2.8375,2.8491,2.8511,2.849,2.8703,2.8955,2.9124,2.9472,2.9556,2.9003,2.9063,2.9605,2.9544,2.9574,3.0186,3.0772,3.0993,3.1337,3.2273,3.3377,3.4397,3.5087,3.5303,3.5391,3.5418,3.5397,3.5409,3.5646,3.5898,3.6012,3.6426,3.6729,3.6885,3.688,3.7079,3.6896,3.6656,3.6377,3.7125,3.7171,3.7304,3.7898,3.8165,3.8202,3.8202,3.8202,3.8202,3.8202,3.8202,3.8202,3.8202,3.8202,3.8202,3.8202,3.8202,3.824,3.8296,3.8631,3.9053,3.9657,3.9606,4.0018,4.0604,4.1037,4.143,4.1494,4.1542,4.1557,4.1557,4.1573,4.1588,4.1588,4.1588,4.1588,4.1588,4.1588,4.1588,4.1588,4.1638,4.1736,4.2236,4.2816,4.3637,4.4393,4.5463,4.6362,4.6493,4.6725,4.7156,4.7371,4.7504,4.7703,4.7918,4.8001,4.8001,2.719,2.719,2.719,2.719,2.719,2.719,2.719,2.719,2.719,2.719,2.719,2.719,2.724,2.7351,2.7482,2.7664,2.7886,2.8119,2.847,2.8646,2.8667,2.8835,2.9244,2.9148,2.9051,2.9364,2.9653,3.0025,3.011,2.9893,2.9737,3.0013,3.0212,3.0564,3.1039,3.1693,3.247,3.3215,3.4064,3.4774,3.525,3.556,3.571,3.573,3.5958,3.6092,3.6226,3.6516,3.6733,3.6811,3.7129,3.7356,3.7404,3.7539,3.7772,3.7834,3.7576,3.7547,3.7833,3.7636,3.782,3.7997,3.8202,3.8202,3.8202,3.8202,3.8202,3.8202,3.8202,3.8202,3.8202,3.8202,3.8202,3.8202,3.8202,3.8464,3.8612,3.8889,3.9307,4.0021,4.0693,4.1039,4.1338,4.1591,4.1731,4.1573,4.1605,4.1636,4.1604,4.1588,4.1588,4.1588,4.1588,4.1588,4.1588,4.1588,4.1588,4.1588,4.1588,4.1784,4.2221,4.2832,4.3783,4.4606,4.5496,4.6349,4.7157,4.7471,4.7504,4.7736,4.8001,4.8001,4.8001,4.8001,4.8001,2.726,2.7281,2.7231,2.719,2.719,2.719,2.719,2.719,2.719,2.719,2.7231,2.726,2.7371,2.7522,2.7644,2.7886,2.8167,2.8271,2.8694,2.8951,2.9051,2.928,2.9629,2.9665,2.9677,3.0119,3.0215,3.0492,3.0648,3.0648,3.0516,3.0525,3.0937,3.1449,3.2097,3.2861,3.3706,3.4694,3.5197,3.5534,3.5703,3.5817,3.5884,3.6025,3.6272,3.6619,3.6789,3.6976,3.7148,3.7514,3.7591,3.7744,3.7801,3.7953,3.8089,3.8146,3.8003,3.8036,3.8131,3.8107,3.8202,3.8202,3.8202,3.8202,3.8202,3.8202,3.8202,3.8202,3.8202,3.8202,3.8202,3.8202,3.8202,3.8202,3.8221,3.8612,3.9013,3.9367,3.9928,4.0782,4.1414,4.1832,4.2082,4.2168,4.2062,4.1716,4.1668,4.1746,4.1715,4.1683,4.1604,4.1604,4.1588,4.1604,4.162,4.162,4.1604,4.1715,4.1715,4.199,4.2508,4.3266,4.4188,4.4951,4.5664,4.6485,4.7375,4.7589,4.7769,4.7901,4.8001,4.8001,4.8001,4.8001,4.8001,2.7482,2.7461,2.7281,2.719,2.719,2.719,2.719,2.719,2.719,2.721,2.726,2.7371,2.7482,2.7623,2.7906,2.8107,2.8239,2.8399,2.8855,2.9163,2.9316,2.9637,3.0022,3.0182,3.0098,3.0299,3.0624,3.0865,3.1009,3.1308,3.1416,3.1616,3.1724,3.2139,3.2886,3.3888,3.4654,3.5406,3.5723,3.5764,3.5904,3.6085,3.6331,3.6417,3.6755,3.7212,3.7717,3.7625,3.7729,3.8196,3.8112,3.8071,3.8085,3.816,3.8202,3.8202,3.8202,3.8246,3.8333,3.826,3.8202,3.8202,3.8258,3.8333,3.8371,3.824,3.8202,3.8315,3.8356,3.8258,3.824,3.8202,3.8202,3.8258,3.84,3.8929,3.9402,3.9921,4.0545,4.1506,4.212,4.2569,4.294,4.3072,4.2537,4.2158,4.2142,4.2205,4.1953,4.1874,4.1716,4.1652,4.1604,4.162,4.1667,4.1746,4.1984,4.2141,4.222,4.2529,4.3001,4.3793,4.4443,4.5357,4.6078,4.6831,4.7423,4.7589,4.7753,4.7918,4.8001,4.8001,4.8001,4.8001,4.8001,2.7647,2.7502,2.7412,2.7322,2.719,2.719,2.719,2.719,2.719,2.726,2.74,2.7461,2.7664,2.7946,2.8067,2.8279,2.8379,2.8439,2.906,2.9424,2.9605,3.0058,3.0516,3.0792,3.0744,3.1009,3.1286,3.137,3.1442,3.1687,3.1987,3.2187,3.2446,3.3098,3.3927,3.4696,3.5358,3.5676,3.5972,3.6132,3.6218,3.6522,3.6758,3.6797,3.7148,3.7427,3.7689,3.7892,3.8121,3.8274,3.8257,3.8256,3.8275,3.826,3.8289,3.8304,3.8333,3.8492,3.8686,3.8511,3.8217,3.8296,3.8501,3.8819,3.8889,3.8526,3.8727,3.8767,3.8623,3.8477,3.8734,3.846,3.8221,3.8296,3.873,3.9365,4.001,4.0657,4.1487,4.2587,4.2986,4.3321,4.3671,4.3989,4.3279,4.2631,4.2664,4.2617,4.2332,4.2127,4.2,4.1858,4.181,4.2078,4.2173,4.23,4.2427,4.2602,4.2776,4.3216,4.3641,4.3803,4.4518,4.5514,4.6369,4.6929,4.7342,4.7556,4.7736,4.7951,4.8001,4.8001,4.8001,4.8001,4.8001,2.7878,2.7704,2.7563,2.7391,2.721,2.719,2.7219,2.7281,2.7281,2.7554,2.7874,2.7955,2.8275,2.8633,2.885,2.8949,2.9167,2.9372,2.9792,3.0114,3.0413,3.0755,3.1219,3.1406,3.1296,3.1669,3.1727,3.1703,3.1996,3.1991,3.259,3.3116,3.3343,3.3953,3.4475,3.5345,3.5784,3.6021,3.6385,3.6792,3.6949,3.7307,3.7517,3.7519,3.7734,3.7964,3.8098,3.8245,3.8315,3.8411,3.842,3.8362,3.8434,3.8522,3.8594,3.8681,3.8797,3.9,3.9213,3.9327,3.9147,3.9654,3.9865,4.0034,3.9838,3.9565,4.0091,4.0296,3.9583,3.8932,3.9405,3.9132,3.8979,3.9183,3.9969,4.0654,4.1246,4.1886,4.2762,4.3688,4.3905,4.4083,4.4368,4.4654,4.4148,4.3469,4.323,4.3042,4.2601,4.2443,4.2363,4.222,4.2111,4.2457,4.2837,4.2963,4.3125,4.3427,4.3635,4.4004,4.4331,4.4478,4.4935,4.5999,4.6727,4.7061,4.7342,4.7622,4.7819,4.7984,4.8001,4.8001,4.8001,4.8001,4.8001,2.8167,2.8127,2.7704,2.7412,2.7297,2.7222,2.7301,2.7493,2.763,2.8078,2.875,2.8971,2.9341,2.9806,2.9921,3.0004,3.0138,3.0641,3.0954,3.0889,3.1198,3.1617,3.1661,3.1633,3.1585,3.1681,3.1837,3.2145,3.2581,3.2667,3.3352,3.4194,3.4484,3.4765,3.4805,3.5406,3.6015,3.6579,3.7077,3.7524,3.8023,3.8292,3.8273,3.8365,3.816,3.8288,3.8668,3.8533,3.8638,3.887,3.8696,3.8725,3.8957,3.9117,3.9363,3.977,3.9857,3.9993,4.0158,4.0703,4.1125,4.1312,4.1282,4.1553,4.1769,4.1741,4.1623,4.1658,4.0724,4.0148,4.0103,4.0048,3.9992,4.0304,4.1126,4.18,4.2389,4.2938,4.3753,4.4453,4.468,4.4857,4.511,4.5221,4.4873,4.4415,4.3989,4.3546,4.3105,4.3011,4.3058,4.2789,4.2679,4.3074,4.3452,4.3609,4.3808,4.4149,4.4509,4.4893,4.5239,4.5505,4.6044,4.6716,4.7004,4.7275,4.7506,4.7721,4.7869,4.8001,4.8001,4.8001,4.8001,4.8001,4.8001,2.8319,2.8179,2.8039,2.8057,2.811,2.7612,2.7441,2.7682,2.8468,2.9173,2.9582,3.0039,3.0193,3.0356,3.0695,3.081,3.0599,3.1394,3.163,3.1178,3.1768,3.1746,3.1768,3.1771,3.1749,3.1837,3.2079,3.2407,3.268,3.3192,3.3823,3.459,3.5614,3.593,3.614,3.6577,3.7185,3.7579,3.7869,3.8185,3.8883,3.8814,3.8747,3.9001,3.8562,3.8619,3.9204,3.8942,3.9044,3.9305,3.9117,3.9363,3.945,3.9538,3.9915,4.0118,4.0167,4.0813,4.1683,4.2495,4.2515,4.2482,4.2523,4.2733,4.2613,4.22,4.2421,4.2613,4.1746,4.1402,4.1769,4.1104,4.0973,4.1427,4.2105,4.2737,4.3335,4.3865,4.4516,4.5106,4.5473,4.541,4.557,4.557,4.5302,4.5112,4.4684,4.4415,4.4022,4.4004,4.402,4.3594,4.3436,4.3783,4.4083,4.4289,4.4626,4.5029,4.5414,4.5807,4.6125,4.6338,4.6656,4.7069,4.727,4.7471,4.7688,4.7853,4.7935,4.8001,4.8001,4.8001,4.8001,4.8001,4.8001,2.8558,2.8586,2.8307,2.859,2.8919,2.8068,2.7778,2.8201,2.9367,3.014,3.0703,3.1339,3.1675,3.1687,3.1874,3.2005,3.1659,3.2542,3.2674,3.2115,3.2623,3.2573,3.2287,3.2035,3.2123,3.2189,3.2472,3.284,3.3539,3.41,3.4918,3.5858,3.6653,3.7103,3.7296,3.7473,3.7667,3.8114,3.8504,3.9124,3.962,3.9716,3.9634,3.9657,3.9421,3.9112,3.9407,3.9509,3.9509,3.9639,3.9799,4.006,3.9987,4.0162,4.0573,4.0684,4.0944,4.173,4.2919,4.347,4.3488,4.363,4.3738,4.3883,4.3865,4.3772,4.392,4.3788,4.2778,4.2726,4.2894,4.2157,4.2288,4.2754,4.3357,4.4024,4.4343,4.4892,4.5025,4.5631,4.5789,4.5789,4.5807,4.5792,4.5665,4.5539,4.5381,4.5112,4.481,4.4747,4.4699,4.4336,4.4147,4.4431,4.4747,4.5015,4.5421,4.5909,4.6138,4.6285,4.662,4.6768,4.7086,4.7387,4.7555,4.7721,4.7869,4.8001,4.8001,4.8001,4.8001,4.8001,4.8001,4.8001,4.8001,2.8902,2.9282,2.8574,2.8981,2.9703,2.8722,2.8536,2.9222,3.0075,3.1064,3.2069,3.2725,3.3097,3.3634,3.3798,3.3686,3.3682,3.432,3.4027,3.3877,3.3912,3.3487,3.3027,3.2732,3.272,3.2754,3.3013,3.3641,3.4596,3.5178,3.6113,3.7192,3.7768,3.8154,3.8189,3.8213,3.8339,3.8901,3.9267,3.9957,4.0524,4.0674,4.0579,4.0499,4.0176,3.9958,4.0075,4.0147,4.0133,4.0191,4.0249,4.0583,4.0864,4.1111,4.1526,4.1851,4.1968,4.2762,4.3518,4.3877,4.4564,4.4909,4.5391,4.5676,4.5509,4.5161,4.5137,4.4919,4.4222,4.403,4.3864,4.3809,4.3753,4.432,4.489,4.5258,4.5475,4.5663,4.5647,4.5807,4.5807,4.5807,4.5807,4.5807,4.5807,4.5744,4.5586,4.5428,4.5157,4.5015,4.4984,4.4968,4.4873,4.508,4.5315,4.5473,4.5622,4.5936,4.6173,4.6372,4.6755,4.7048,4.7269,4.7471,4.777,4.7935,4.7984,4.8001,4.8001,4.8001,4.8001,4.8001,4.8001,4.8001,4.8117,2.989,3.0005,2.9793,3.0124,3.0667,3.0353,3.0794,3.1756,3.2136,3.2658,3.3334,3.3986,3.4052,3.3956,3.4328,3.4233,3.4469,3.4683,3.448,3.4465,3.4527,3.4069,3.3704,3.3428,3.3416,3.3564,3.386,3.4256,3.4888,3.5713,3.6974,3.8006,3.8426,3.885,3.9188,3.9337,3.956,3.9781,4.0016,4.0597,4.1056,4.1058,4.1067,4.0929,4.0612,4.0495,4.0713,4.08,4.0815,4.0829,4.1265,4.1541,4.1047,4.1512,4.199,4.2102,4.2465,4.3101,4.381,4.4297,4.4899,4.5573,4.5789,4.5807,4.5789,4.5807,4.5807,4.5468,4.5154,4.4804,4.4726,4.4741,4.476,4.5133,4.5572,4.5656,4.5807,4.5807,4.5807,4.5807,4.5807,4.5807,4.5807,4.5807,4.5807,4.5807,4.576,4.56,4.5505,4.5347,4.5284,4.5302,4.5349,4.546,4.557,4.5713,4.578,4.5918,4.6102,4.6301,4.6547,4.6843,4.7219,4.7555,4.7803,4.7952,4.8001,4.8001,4.8001,4.8001,4.8001,4.8001,4.8017,4.8133,4.8282,3.0431,3.0614,3.0387,3.0875,3.1779,3.1901,3.2561,3.3408,3.2968,3.3047,3.38,3.4223,3.4368,3.4368,3.4612,3.4734,3.4795,3.5236,3.5238,3.5023,3.4872,3.4588,3.4288,3.4092,3.4079,3.428,3.4541,3.4903,3.5587,3.667,3.7921,3.8689,3.8894,3.9382,3.9792,4.0059,4.0467,4.0645,4.0866,4.1149,4.1231,4.1321,4.1391,4.1285,4.0974,4.1163,4.1381,4.1453,4.1468,4.1482,4.199,4.1932,4.1541,4.1903,4.2295,4.2433,4.2749,4.3442,4.4147,4.4548,4.5123,4.5591,4.5807,4.5807,4.5807,4.5807,4.5807,4.5669,4.5452,4.529,4.5397,4.552,4.5612,4.5719,4.5771,4.5789,4.5807,4.5807,4.5807,4.5807,4.5807,4.5807,4.5807,4.5807,4.5807,4.5807,4.5807,4.576,4.5713,4.5665,4.5618,4.5618,4.5665,4.5744,4.5807,4.5807,4.5825,4.5862,4.5918,4.612,4.6353,4.6722,4.7184,4.7538,4.7853,4.7935,4.7952,4.7984,4.8001,4.805,4.8166,4.8266,4.8398,4.8597,4.8763,3.0803,3.1246,3.0761,3.1524,3.288,3.2985,3.3612,3.4465,3.2873,3.2762,3.3695,3.398,3.4355,3.4653,3.4897,3.5209,3.5323,3.5622,3.5676,3.5642,3.5528,3.523,3.4922,3.4778,3.4778,3.4791,3.5101,3.5743,3.6812,3.7748,3.8596,3.9353,3.9664,3.9998,4.0315,4.0602,4.0979,4.1332,4.1396,4.1522,4.1585,4.1821,4.2092,4.2013,4.1976,4.202,4.2034,4.2063,4.2092,4.2092,4.2078,4.2063,4.2049,4.2219,4.2526,4.2915,4.32,4.3834,4.4472,4.4902,4.525,4.5609,4.5807,4.5807,4.5807,4.5807,4.5807,4.5807,4.5609,4.5573,4.5646,4.5664,4.5735,4.5771,4.5789,4.5807,4.5807,4.5807,4.5807,4.5807,4.5807,4.5807,4.5807,4.5807,4.5807,4.5807,4.5807,4.5807,4.6013,4.6013,4.5965,4.595,4.5839,4.5839,4.5807,4.5807,4.5807,4.5825,4.5893,4.5918,4.6136,4.6615,4.715,4.7488,4.7803,4.7869,4.7902,4.7968,4.81,4.8332,4.8448,4.8564,4.8779,4.9177,4.9359,3.1827,3.2009,3.2297,3.2724,3.3052,3.31,3.3471,3.3989,3.2757,3.2802,3.379,3.4317,3.4599,3.4721,3.5087,3.5432,3.5622,3.571,3.571,3.569,3.571,3.5629,3.5514,3.5473,3.5467,3.5629,3.6007,3.6826,3.7832,3.8646,3.9243,3.9788,4.0083,4.0343,4.0894,4.117,4.1438,4.1808,4.1829,4.1829,4.1891,4.1933,4.2092,4.2092,4.2092,4.2092,4.2092,4.2092,4.2092,4.2092,4.2092,4.2092,4.2092,4.252,4.283,4.312,4.3819,4.4377,4.4824,4.5231,4.5557,4.5664,4.5807,4.5807,4.5807,4.5807,4.5807,4.5807,4.5807,4.5807,4.5807,4.5807,4.5807,4.5807,4.5807,4.5807,4.5807,4.5807,4.5807,4.5807,4.5807,4.5807,4.5807,4.5807,4.5807,4.5807,4.5807,4.5934,4.6408,4.655,4.6376,4.6281,4.59,4.5837,4.5839,4.5855,4.5886,4.5934,4.5999,4.5991,4.6049,4.6885,4.7707,4.7585,4.7688,4.8051,4.8216,4.7968,4.815,4.863,4.8945,4.916,4.974,5.0171,5.0204,3.2187,3.2241,3.2558,3.3001,3.3349,3.3205,3.3286,3.339,3.2866,3.2798,3.3127,3.3506,3.39,3.4314,3.4761,3.5405,3.5595,3.571,3.571,3.571,3.571,3.571,3.5804,3.6109,3.6401,3.6606,3.7593,3.8497,3.8999,3.9543,4.0077,4.0329,4.0473,4.0851,4.1438,4.1599,4.1822,4.2071,4.2092,4.2092,4.2092,4.2092,4.2092,4.2092,4.2092,4.2092,4.2092,4.2092,4.2092,4.2092,4.2092,4.2345,4.2494,4.2809,4.328,4.3799,4.4415,4.4921,4.5247,4.5536,4.5807,4.5807,4.5807,4.5807,4.5807,4.5807,4.5807,4.5807,4.5807,4.5807,4.5807,4.5807,4.5807,4.5807,4.5807,4.5807,4.5807,4.5807,4.5807,4.5807,4.5807,4.5807,4.5807,4.5807,4.5839,4.5934,4.5918,4.6297,4.6724,4.7198,4.6992,4.6803,4.6566,4.6042,4.5823,4.5886,4.5981,4.6044,4.6231,4.67,4.7125,4.7737,4.8248,4.8255,4.8408,4.8791,4.8843,4.8612,4.8895,4.9475,4.9673,4.9806,5.0469,5.1066,5.1048,3.2187,3.2187,3.2295,3.2806,3.3555,3.3286,3.3047,3.2979,3.2938,3.268,3.2336,3.2322,3.2883,3.3582,3.4192,3.4903,3.5418,3.5669,3.571,3.571,3.571,3.571,3.6048,3.6536,3.6952,3.7852,3.8907,3.9424,3.9851,4.0372,4.0696,4.0859,4.1121,4.1452,4.1599,4.1808,4.2092,4.2092,4.2092,4.2092,4.2092,4.2092,4.2092,4.2092,4.2092,4.2092,4.2092,4.2092,4.2092,4.2092,4.2113,4.2433,4.2933,4.3289,4.389,4.4469,4.5063,4.5443,4.5657,4.5735,4.5807,4.5807,4.5823,4.5807,4.5807,4.5807,4.5807,4.5807,4.5807,4.5807,4.5807,4.5807,4.5807,4.5807,4.5807,4.5839,4.5839,4.5839,4.5855,4.5855,4.5871,4.5871,4.5871,4.5871,4.6013,4.6092,4.6376,4.6755,4.7182,4.7688,4.7861,4.7719,4.7561,4.6961,4.6329,4.6281,4.6534,4.6724,4.7061,4.7617,4.8088,4.842,4.8759,4.9059,4.9284,4.953,4.9633,4.9519,4.9902,5.0303,5.0386,5.0535,5.1115,5.1646,5.1811,3.2187,3.2241,3.2721,3.2798,3.2648,3.2906,3.283,3.2404,3.2377,3.2282,3.2241,3.2295,3.2815,3.3943,3.4992,3.5567,3.5588,3.571,3.571,3.571,3.571,3.571,3.6081,3.6881,3.7462,3.8624,3.9847,4.03,4.0639,4.1042,4.1269,4.1297,4.1297,4.1599,4.1933,4.2092,4.2092,4.2092,4.2092,4.2092,4.2092,4.2092,4.2092,4.2092,4.2092,4.2092,4.2092,4.2092,4.2092,4.2092,4.2183,4.2518,4.3079,4.3817,4.4414,4.4941,4.5565,4.5882,4.6008,4.5886,4.5839,4.595,4.5934,4.5807,4.5807,4.5807,4.5807,4.5807,4.5807,4.5807,4.5807,4.5807,4.5807,4.5807,4.5807,4.5886,4.59,4.595,4.5965,4.6029,4.6092,4.6092,4.6108,4.6281,4.6645,4.6834,4.7245,4.764,4.8102,4.8434,4.8683,4.8588,4.8478,4.8162,4.764,4.7293,4.7403,4.7577,4.7842,4.8386,4.8733,4.8816,4.9152,4.9652,4.9893,5.0062,5.0147,5.039,5.063,5.0949,5.1066,5.1299,5.1828,5.2093,5.2143]},{"header":{"parameterUnit":"m.s-1","parameterCategory":1,"la1":31.0,"la2":29.5877,"lo1":-88.7671,"lo2":-86.6584,"dx":0.0162,"dy":0.0185,"nx":115,"ny":88,"refTime":"2023-01-27T06:00:00:Z","depth":0,"parameterNumber":3,"parameterNumberName":"V-component_of_WINDS"},"data":[0.0,0.0,0.0,0.0,0.0,0.0,0.0,0.0,0.0,0.0,0.0,0.0,0.0,0.0,0.0,0.0,0.0,0.0,0.0,0.0,0.0,0.0,0.0,0.0,0.0,0.0,0.0,0.0,0.0,0.0,0.0,0.0,0.0,0.0,0.0,0.0,0.0,0.0,0.0,0.0,0.0,0.0,0.0,0.0,0.0,0.0,0.0,0.0,0.0,0.0,0.0,0.0,0.0,0.0,0.0,0.0,0.0,0.0,0.0,0.0,0.0,0.0,0.0,0.0,0.0,0.0,0.0,0.0,0.0,0.0,0.0,0.0,0.0,0.0,0.0,0.0,0.0,0.0,0.0,0.0,0.0,0.0,0.0,0.0,0.0,0.0,0.0,0.0,0.0,0.0,0.0,0.0,0.0,0.0,0.0,0.0,0.0,0.0,0.0,0.0,0.0,0.0,0.0,0.0,0.0,0.0,0.0,0.0,0.0,0.0,0.0,0.0,0.0,0.0,0.0,0.0,0.0,0.0,0.0,0.0,0.0,0.0,0.0,0.0,0.0,0.0,0.0,0.0,0.0,0.0,0.0,0.0,0.0,0.0,0.0,0.0,0.0,0.0,0.0,0.0,0.0,0.0,0.0,0.0,0.0,0.0,0.0,0.0,0.0,0.0,0.0,0.0,0.0,0.0,0.0,0.0,0.0,0.0,0.0,0.0,0.0,0.0,0.0,0.0,0.0,0.0,0.0,0.0,0.0,0.0,0.0,0.0,0.0,0.0,0.0,0.0,0.0,0.0,0.0,0.0,0.0,0.0,0.0,0.0,0.0,0.0,0.0,0.0,0.0,0.0,0.0,0.0,0.0,0.0,0.0,0.0,0.0,0.0,0.0,0.0,0.0,0.0,0.0,0.0,0.0,0.0,0.0,0.0,0.0,0.0,0.0,0.0,0.0,0.0,0.0,0.0,0.0,0.0,0.0,0.0,0.0,0.0,0.0,0.0,0.0,0.0,0.0,0.0,0.0,0.0,0.0,0.0,0.0,0.0,0.0,0.0,0.0,0.0,0.0,0.0,0.0,0.0,0.0,0.0,0.0,0.0,0.0,0.0,0.0,0.0,0.0,0.0,0.0,0.0,0.0,0.0,0.0,0.0,0.0,0.0,0.0,0.0,0.0,0.0,0.0,0.0,0.0,0.0,0.0,0.0,0.0,0.0,0.0,0.0,0.0,0.0,0.0,0.0,0.0,0.0,0.0,0.0,0.0,0.0,0.0,0.0,0.0,0.0,0.0,0.0,0.0,0.0,0.0,0.0,0.0,0.0,0.0,0.0,0.0,0.0,0.0,0.0,0.0,0.0,0.0,0.0,0.0,0.0,0.0,0.0,0.0,0.0,0.0,0.0,0.0,0.0,0.0,0.0,0.0,0.0,0.0,0.0,0.0,0.0,0.0,0.0,0.0,0.0,0.0,0.0,0.0,0.0,0.0,0.0,0.0,0.0,0.0,0.0,0.0,0.0,0.0,0.0,0.0,0.0,0.0,0.0,0.0,0.0,0.0,0.0,0.0,0.0,0.0,0.0,0.0,0.0,0.0,0.0,0.0,0.0,0.0,0.0,0.0,0.0,0.0,0.0,0.0,0.0,0.0,0.0,0.0,0.0,0.0,0.0,0.0,0.0,0.0,0.0,0.0,0.0,0.0,0.0,0.0,0.0,0.0,0.0,0.0,0.0,0.0,0.0,0.0,0.0,0.0,0.0,0.0,0.0,0.0,0.0,0.0,0.0,0.0,0.0,0.0,0.0,0.0,0.0,0.0,0.0,0.0,0.0,0.0,0.0,0.0,0.0,0.0,0.0,0.0,0.0,0.0,0.0,0.0,0.0,0.0,0.0,0.0,0.0,0.0,0.0,0.0,0.0,0.0,0.0,0.0,0.0,0.0,0.0,0.0,0.0,0.0,0.0,0.0,0.0,0.0,0.0,0.0,0.0,0.0,0.0,0.0,0.0,0.0,0.0,0.0,0.0,0.0,0.0,0.0,0.0,0.0,0.0,0.0,0.0,0.0,0.0,0.0,0.0,0.0,0.0,0.0,0.0,0.0,0.0,0.0,0.0,0.0,0.0,0.0,0.0,0.0,0.0,0.0,0.0,0.0,0.0,0.0,0.0,0.0,0.0,0.0,0.0,0.0,0.0,0.0,0.0,0.0,0.0,0.0,0.0,0.0,0.0,0.0,0.0,0.0,0.0,0.0,0.0,0.0,0.0,0.0,0.0,0.0,0.0,0.0,0.0,0.0,0.0,0.0,0.0,0.0,0.0,0.0,0.0,0.0,0.0,0.0,0.0,0.0,0.0,0.0,0.0,0.0,0.0,0.0,0.0,0.0,0.0,0.0,0.0,0.0,0.0,0.0,0.0,0.0,0.0,0.0,0.0,0.0,0.0,0.0,0.0,0.0,0.0,0.0,0.0,0.0,0.0,0.0,0.0,0.0,0.0,0.0,0.0,0.0,0.0,0.0,0.0,0.0,0.0,0.0,0.0,0.0,0.0,0.0,0.0,0.0,0.0,0.0,0.0,0.0,0.0,0.0,0.0,0.0,0.0,0.0,0.0,0.0,0.0,0.0,0.0,0.0,0.0,0.0,0.0,0.0,0.0,0.0,0.0,0.0,0.0,0.0,0.0,0.0,0.0,0.0,0.0,0.0,0.0,0.0,0.0,0.0,0.0,0.0,0.0,0.0,0.0,0.0,0.0,0.0,0.0,0.0,0.0,0.0,0.0,0.0,0.0,0.0,0.0,0.0,0.0,0.0,0.0,0.0,0.0,0.0,0.0,0.0,0.0,0.0,0.0,0.0,0.0,0.0,0.0,0.0,0.0,0.0,0.0,0.0,0.0,0.0,0.0,0.0,0.0,0.0,0.0,0.0,0.0,0.0,0.0,0.0,0.0,0.0,0.0,0.0,0.0,0.0,0.0,0.0,0.0,0.0,0.0,0.0,0.0,0.0,0.0,0.0,0.0,0.0,0.0,0.0,0.0,0.0,0.0,0.0,0.0,0.0,0.0,0.0,0.0,0.0,0.0,0.0,0.0,0.0,0.0,0.0,0.0,0.0,0.0,0.0,0.0,0.0,0.0,0.0,0.0,0.0,0.0,0.0,0.0,0.0,0.0,0.0,0.0,0.0,0.0,0.0,0.0,0.0,0.0,0.0,0.0,0.0,0.0,0.0,0.0,0.0,0.0,0.0,0.0,0.0,0.0,0.0,0.0,0.0,0.0,0.0,0.0,0.0,0.0,0.0,0.0,0.0,0.0,0.0,0.0,0.0,0.0,0.0,0.0,0.0,0.0,0.0,0.0,0.0,0.0,0.0,0.0,0.0,0.0,0.0,0.0,0.0,0.0,0.0,0.0,0.0,0.0,0.0,0.0,0.0,0.0,0.0,0.0,0.0,0.0,0.0,0.0,0.0,0.0,0.0,0.0,0.0,0.0,0.0,0.0,0.0,0.0,0.0,0.0,0.0,0.0,0.0,0.0,0.0,0.0,0.0,0.0,0.0,0.0,0.0,0.0,0.0,0.0,0.0,0.0,0.0,0.0,0.0,0.0,0.0,0.0,0.0,0.0,0.0,0.0,0.0,0.0,0.0,0.0,0.0,0.0,0.0,0.0,0.0,0.0,0.0,0.0,0.0,0.0,0.0,0.0,0.0,0.0,0.0,0.0,0.0,0.0,0.0,0.0,0.0,0.0,0.0,0.0,0.0,0.0,0.0,0.0,0.0,0.0,0.0,0.0,0.0,0.0,0.0,0.0,0.0,0.0,0.0,0.0,0.0,0.0,0.0,0.0,0.0,0.0,0.0,0.0,0.0,0.0,0.0,0.0,0.0,0.0,0.0,0.0,0.0,0.0,0.0,0.0,0.0,0.0,0.0,0.0,0.0,0.0,0.0,0.0,0.0,0.0,0.0,0.0,0.0,0.0,0.0,0.0,0.0,0.0,0.0,0.0,0.0,0.0,0.0,0.0,0.0,0.0,0.0,0.0,0.0,0.0,0.0,0.0,0.0,0.0,0.0,0.0,0.0,0.0,0.0,0.0,0.0,0.0,0.0,0.0,0.0,0.0,0.0,0.0,0.0,0.0,0.0,0.0,0.0,0.0,0.0,0.0,0.0,0.0,0.0,0.0,0.0,0.0,0.0,0.0,0.0,0.0,0.0,0.0,0.0,0.0,0.0,0.0,0.0,0.0,0.0,0.0,0.0,0.0,0.0,0.0,0.0,0.0,0.0,0.0,0.0,0.0,1.2937,0.0,0.0,0.0,0.0,0.0,0.0,0.0,0.0,0.0,0.0,0.0,0.0,0.0,0.0,0.0,0.0,0.0,0.0,0.0,0.0,0.0,0.0,0.0,0.0,0.0,0.0,0.0,0.0,0.0,0.0,0.0,0.0,0.0,0.0,0.0,0.0,0.0,0.0,0.0,0.0,0.0,0.0,0.0,0.0,0.0,0.0,0.0,0.0,0.0,0.0,0.0,0.0,0.0,0.0,0.0,0.0,0.0,0.0,0.0,0.0,0.0,0.0,0.0,0.0,0.0,0.0,0.0,0.0,0.0,0.0,0.0,0.0,0.0,0.0,0.0,0.0,0.0,0.0,0.0,0.0,0.0,0.0,0.0,0.0,0.0,0.0,0.0,0.0,0.0,0.0,0.0,0.0,0.0,0.0,0.0,0.0,0.0,0.0,0.0,0.0,0.0,0.0,0.0,0.0,0.0,0.0,0.0,0.0,0.0,0.0,1.2177,1.2183,1.2135,1.2085,1.207,0.0,0.0,0.0,0.0,0.0,0.0,0.0,0.0,0.0,0.0,0.0,0.0,0.0,0.0,0.0,0.0,0.0,0.0,0.0,0.0,0.0,0.0,0.0,0.0,0.0,0.0,0.0,0.0,0.0,0.0,0.0,0.0,0.0,0.0,0.0,0.0,0.0,0.0,0.0,0.0,0.0,0.0,0.0,0.0,0.0,0.0,0.0,0.0,0.0,0.0,0.0,0.0,0.0,0.0,0.0,0.0,0.0,0.0,0.0,0.0,0.0,0.0,0.0,0.0,0.0,0.0,0.0,0.0,0.0,0.0,0.0,0.0,0.0,0.0,0.0,0.0,0.0,0.0,0.0,0.0,0.0,0.0,0.0,0.0,0.0,0.0,0.0,0.0,0.0,0.0,0.0,0.0,0.0,0.0,0.0,0.0,0.0,0.0,0.0,0.0,0.0,0.0,0.0,0.0,0.0,0.0,0.0,0.0,0.0,0.0,0.0,0.0,1.1855,1.1502,1.1476,0.0,0.0,0.0,0.0,0.0,0.0,0.0,0.0,0.0,0.0,0.0,0.0,0.0,0.0,0.0,0.0,0.0,0.0,0.0,0.0,0.0,0.0,0.0,0.0,0.0,0.0,0.0,0.0,0.0,0.0,0.0,0.0,0.0,0.0,0.0,0.0,0.0,0.0,0.0,0.0,0.0,0.0,0.0,0.0,0.0,0.0,0.0,0.0,0.0,0.0,0.0,0.0,0.0,0.0,0.0,0.0,0.0,0.0,0.0,0.0,0.0,0.0,0.0,0.0,0.0,0.0,0.0,0.0,0.0,0.0,0.0,0.0,0.0,0.0,0.0,0.0,0.0,0.0,0.0,0.0,0.0,0.0,0.0,0.0,0.0,0.0,0.0,0.0,0.0,0.0,0.0,0.0,0.0,0.0,0.0,0.0,0.0,0.0,0.0,0.0,0.0,0.0,0.0,0.0,0.0,0.0,0.0,0.0,0.0,0.0,1.08,1.1599,1.1549,0.0,1.1454,0.0,0.0,0.0,0.0,0.0,0.0,0.0,0.0,0.0,0.0,0.0,0.0,0.0,0.0,0.0,0.0,0.0,0.0,0.0,0.0,0.0,0.0,0.0,0.0,0.0,0.0,0.0,0.0,0.0,0.0,0.0,0.0,0.0,0.0,0.0,0.0,0.0,0.0,0.0,0.0,0.0,0.0,0.0,0.0,0.0,0.0,0.0,0.0,0.0,0.0,0.0,0.0,0.0,0.0,0.0,0.0,0.0,0.0,0.0,0.0,0.0,0.0,0.0,0.0,0.0,0.0,0.0,0.0,0.0,0.0,0.0,0.0,0.0,0.0,0.0,0.0,0.0,0.0,0.0,0.0,0.0,0.0,0.0,0.0,0.0,0.0,0.0,0.0,0.0,0.0,0.0,0.0,0.0,0.0,0.0,0.0,0.0,0.0,0.0,0.0,0.0,0.0,0.0,0.0,0.0,0.0,0.0,0.0,0.0,0.0,1.186,1.2193,1.1756,1.1268,0.0,0.0,0.0,0.0,0.0,0.0,0.0,0.0,0.0,0.0,0.0,0.0,0.0,0.0,0.0,0.0,0.0,0.0,0.0,0.0,0.0,0.0,0.0,0.0,0.0,0.0,0.0,0.0,0.0,0.0,0.0,0.0,0.0,0.0,0.0,0.0,0.0,0.0,0.0,0.0,0.0,0.0,0.0,0.0,0.0,0.0,0.0,0.0,0.0,0.0,0.0,0.0,0.0,0.0,0.0,0.0,0.0,0.0,0.0,0.0,0.0,0.0,0.0,0.0,0.0,0.0,0.0,0.0,0.0,0.0,0.0,0.0,0.0,0.0,0.0,0.0,0.0,0.0,0.0,0.0,0.0,0.0,0.0,0.0,0.0,0.0,0.0,0.0,0.0,0.0,0.0,0.0,0.0,0.0,0.0,0.0,0.0,0.0,0.0,0.0,0.0,0.0,0.0,0.0,0.0,0.0,0.0,0.0,0.0,0.0,1.2499,1.2667,1.2622,1.1658,1.0917,1.0529,0.0,0.0,0.0,0.0,0.0,0.0,0.0,0.0,0.0,0.0,0.0,0.0,0.0,0.0,0.0,0.0,0.0,0.0,0.0,0.0,0.0,0.0,0.0,0.0,0.0,0.0,0.0,0.0,0.0,0.0,0.0,0.0,0.0,0.0,0.0,0.0,0.0,0.0,0.0,0.0,0.0,0.0,0.0,0.0,0.0,0.0,0.0,0.0,0.0,0.0,0.0,0.0,0.0,0.0,0.0,0.0,0.0,0.0,0.0,0.0,0.0,0.0,0.0,0.0,0.0,0.0,0.0,0.0,0.0,0.0,0.0,0.0,0.0,0.0,0.0,0.0,0.0,0.0,0.0,0.0,0.0,0.0,0.0,0.0,0.0,0.0,0.0,0.0,0.0,0.0,0.0,0.0,0.0,0.0,0.0,0.0,0.0,0.0,0.0,0.0,0.0,0.0,0.0,0.0,0.0,0.0,0.0,0.0,1.3711,1.3035,1.2599,1.2588,1.1018,1.0558,0.0,0.0,0.0,0.0,0.0,0.0,0.0,0.0,0.0,0.0,0.0,0.0,0.0,0.0,0.0,0.0,0.0,0.0,0.0,0.0,0.0,0.0,0.0,0.0,0.0,0.0,0.0,0.0,0.0,0.0,0.0,0.0,0.0,0.0,0.0,0.0,0.0,0.0,0.0,0.0,0.0,0.0,0.0,0.0,0.0,0.0,0.0,0.0,0.0,0.0,0.0,0.0,0.0,0.0,0.0,0.0,0.0,0.0,0.0,0.0,0.0,0.0,0.0,0.0,0.0,0.0,0.0,0.0,0.0,0.0,0.0,0.0,0.0,0.0,0.0,0.0,0.0,0.0,0.0,0.0,0.0,0.0,0.0,0.0,0.0,0.0,0.0,0.0,0.0,0.0,0.0,0.0,0.0,0.0,0.0,0.0,0.0,0.0,0.0,0.0,0.0,0.0,0.0,0.0,0.0,0.0,0.0,0.0,0.0,1.3772,1.4011,1.3606,1.2577,1.1991,1.16,0.0,0.0,0.0,0.0,0.0,0.0,0.0,0.0,0.0,0.0,0.0,0.0,0.0,0.0,0.0,0.0,0.0,0.0,0.0,0.0,0.0,0.0,0.0,0.0,0.0,0.0,0.0,0.0,0.0,0.0,0.0,0.0,0.0,0.0,0.0,0.0,0.0,0.0,0.0,0.0,0.0,0.0,0.0,0.0,0.0,0.0,0.0,0.0,0.0,0.0,0.0,0.0,0.0,0.0,0.0,0.0,0.0,0.0,0.0,0.0,0.0,0.0,0.0,0.0,0.0,0.0,0.0,0.0,0.0,0.0,0.0,0.0,0.0,0.0,0.0,0.0,0.0,0.0,0.0,0.0,0.0,0.0,0.0,0.0,0.0,0.0,0.0,0.0,0.0,0.0,0.0,0.0,0.0,0.0,0.0,0.0,0.0,0.0,0.0,0.0,0.0,0.0,0.0,0.0,0.0,0.0,0.0,0.0,0.0,1.4448,0.0,1.4398,1.3306,1.2793,1.217,0.0,0.0,0.0,0.0,0.0,0.0,0.0,0.0,0.0,0.0,0.0,0.0,0.0,0.0,0.0,0.0,0.0,0.0,0.0,0.0,0.0,0.0,0.0,0.0,0.0,0.0,0.0,0.0,0.0,0.0,0.0,0.0,0.0,0.0,0.0,0.0,0.0,0.0,0.0,0.0,0.0,0.0,0.0,0.0,0.0,0.0,0.0,0.0,0.0,0.0,0.0,0.0,0.0,0.0,0.0,0.0,0.0,0.0,0.0,0.0,0.0,0.0,0.0,0.0,0.0,0.0,0.0,0.0,0.0,0.0,0.0,0.0,0.0,0.0,0.0,0.0,0.0,0.0,0.0,0.0,0.0,0.0,0.0,0.0,0.0,0.0,0.0,0.0,0.0,0.0,0.0,0.0,0.0,0.0,0.0,0.0,0.0,0.0,0.0,0.0,0.0,0.0,0.0,0.0,0.0,0.0,0.0,0.0,1.5317,1.5896,1.5235,1.4834,1.4764,1.3259,1.2072,0.0,0.0,0.0,0.0,0.0,0.0,0.0,0.0,0.0,0.0,0.0,0.0,0.0,0.0,0.0,0.0,0.0,0.0,0.0,0.0,0.0,0.0,0.0,0.0,0.0,0.0,0.0,0.0,0.0,0.0,0.0,0.0,0.0,0.0,0.0,0.0,0.0,0.0,0.0,0.0,0.0,0.0,0.0,0.0,0.0,0.0,0.0,0.0,0.0,0.0,0.0,0.0,0.0,0.0,0.0,0.0,0.0,0.0,0.0,0.0,0.0,0.0,0.0,0.0,0.0,0.0,0.0,0.0,0.0,0.0,0.0,0.0,0.0,0.0,0.0,0.0,0.0,0.0,0.0,0.0,0.0,0.0,0.0,0.0,0.0,0.0,0.0,0.0,0.0,0.0,0.0,0.0,0.0,0.0,0.0,0.0,0.0,0.0,0.0,0.0,0.0,0.0,0.0,0.0,0.0,0.0,0.0,0.0,0.0,1.4851,1.4608,1.4802,1.5332,1.3945,1.3338,0.0,0.0,0.0,0.0,0.0,0.0,0.0,0.0,0.0,0.0,0.0,0.0,0.0,0.0,0.0,0.0,0.0,0.0,0.0,0.0,0.0,0.0,0.0,0.0,0.0,0.0,0.0,0.0,0.0,0.0,0.0,0.0,0.0,0.0,0.0,0.0,0.0,0.0,0.0,0.0,0.0,0.0,0.0,0.0,0.0,0.0,0.0,0.0,0.0,0.0,0.0,0.0,0.0,0.0,0.0,0.0,0.0,0.0,0.0,0.0,0.0,0.0,0.0,0.0,0.0,0.0,0.0,0.0,0.0,0.0,0.0,0.0,0.0,0.0,0.0,0.0,0.0,0.0,0.0,0.0,0.0,0.0,0.0,0.0,0.0,0.0,0.0,0.0,0.0,0.0,0.0,0.0,0.0,0.0,0.0,0.0,0.0,0.0,0.0,0.0,0.0,0.0,0.0,0.0,0.0,0.0,0.0,0.0,0.0,1.5305,1.5895,1.6219,1.6224,1.5401,1.4762,1.4343,0.0,0.0,0.0,0.0,0.0,0.0,0.0,0.0,0.0,0.0,0.0,0.0,0.0,0.0,0.0,0.0,0.0,0.0,0.0,0.0,0.0,0.0,0.0,0.0,0.0,0.0,0.0,0.0,0.0,0.0,0.0,0.0,0.0,0.0,0.0,0.0,0.0,0.0,0.0,0.0,0.0,0.0,0.0,0.0,0.0,0.0,0.0,0.0,0.0,0.0,0.0,0.0,0.0,0.0,0.0,0.0,0.0,0.0,0.0,0.0,0.0,0.0,0.0,0.0,0.0,0.0,0.0,0.0,0.0,0.0,0.0,0.0,0.0,0.0,0.0,0.0,0.0,0.0,0.0,0.0,0.0,0.0,0.0,0.0,0.0,0.0,0.0,0.0,0.0,0.0,0.0,0.0,0.0,0.0,0.0,0.0,0.0,0.0,0.0,0.0,0.0,0.0,0.0,0.0,0.0,0.0,0.0,0.0,1.6949,1.8767,1.8983,1.7478,1.7388,1.6248,0.0,0.0,0.0,0.0,0.0,0.0,0.0,0.0,0.0,0.0,0.0,0.0,0.0,0.0,0.0,0.0,0.0,0.0,0.0,0.0,0.0,0.0,0.0,0.0,0.0,0.0,0.0,0.0,0.0,0.0,0.0,0.0,0.0,0.0,0.0,0.0,0.0,0.0,0.0,0.0,0.0,0.0,0.0,0.0,0.0,0.0,0.0,0.0,0.0,0.0,0.0,0.0,0.0,0.0,0.0,0.0,0.0,0.0,0.0,0.0,0.0,0.0,0.0,0.0,0.0,0.0,0.0,0.0,0.0,0.0,0.0,0.0,0.0,0.0,0.0,0.0,0.0,0.0,0.0,0.0,0.0,0.0,0.0,0.0,0.0,0.0,0.0,0.0,0.0,0.0,0.0,0.0,0.0,0.0,0.0,0.0,0.0,0.0,0.0,0.0,0.0,0.0,0.0,0.0,0.0,0.0,0.0,0.0,0.0,1.8871,2.1142,2.1926,2.0922,1.8547,1.7587,0.0,0.0,0.0,0.0,0.0,0.0,0.0,0.0,0.0,0.0,0.0,0.0,0.0,0.0,0.0,0.0,0.0,0.0,0.0,0.0,0.0,0.0,0.0,0.0,0.0,0.0,0.0,0.0,0.0,0.0,0.0,0.0,0.0,0.0,0.0,0.0,0.0,0.0,0.0,0.0,0.0,0.0,0.0,0.0,0.0,0.0,0.0,0.0,0.0,0.0,0.0,0.0,0.0,0.0,0.0,0.0,0.0,0.0,0.0,0.0,0.0,0.0,0.0,0.0,0.0,0.0,0.0,0.0,0.0,0.0,0.0,0.0,0.0,0.0,0.0,0.0,0.0,0.0,0.0,0.0,0.0,0.0,0.0,0.0,0.0,0.0,0.0,0.0,0.0,0.0,0.0,0.0,0.0,0.0,0.0,0.0,0.0,0.0,0.0,0.0,0.0,0.0,0.0,0.0,0.0,0.0,0.0,0.0,2.0229,2.0523,2.358,2.5226,2.5232,2.1058,1.8971,0.0,0.0,0.0,0.0,0.0,0.0,0.0,0.0,0.0,0.0,0.0,0.0,0.0,0.0,0.0,0.0,0.0,0.0,0.0,0.0,0.0,0.0,0.0,0.0,0.0,0.0,0.0,0.0,0.0,0.0,0.0,0.0,0.0,0.0,0.0,0.0,0.0,0.0,0.0,0.0,0.0,0.0,0.0,0.0,0.0,0.0,0.0,0.0,0.0,0.0,0.0,0.0,0.0,0.0,0.0,0.0,0.0,0.0,0.0,0.0,0.0,0.0,0.0,0.0,0.0,0.0,0.0,0.0,0.0,0.0,0.0,0.0,0.0,0.0,0.0,0.0,0.0,0.0,0.0,0.0,0.0,0.0,0.0,0.0,0.0,0.0,0.0,0.0,0.0,0.0,0.0,0.0,0.0,0.0,0.0,0.0,0.0,0.0,0.0,0.0,0.0,0.0,0.0,0.0,0.0,0.0,0.0,0.0,2.1863,2.2312,2.5809,2.8186,2.9061,2.399,2.0488,0.0,0.0,0.0,0.0,0.0,0.0,0.0,0.0,0.0,0.0,0.0,0.0,0.0,0.0,0.0,0.0,0.0,0.0,0.0,0.0,0.0,0.0,0.0,0.0,0.0,0.0,0.0,0.0,0.0,0.0,0.0,0.0,0.0,0.0,0.0,0.0,0.0,0.0,0.0,0.0,0.0,0.0,0.0,0.0,0.0,0.0,0.0,0.0,0.0,0.0,0.0,0.0,0.0,0.0,0.0,0.0,0.0,0.0,0.0,0.0,0.0,0.0,0.0,0.0,0.0,0.0,0.0,0.0,0.0,0.0,0.0,0.0,0.0,0.0,0.0,0.0,0.0,0.0,0.0,0.0,0.0,0.0,0.0,0.0,0.0,0.0,0.0,0.0,0.0,0.0,0.0,0.0,0.0,0.0,0.0,0.0,0.0,0.0,0.0,0.0,0.0,0.0,0.0,0.0,0.0,0.0,0.0,0.0,2.2565,2.476,2.6549,2.8012,2.9151,2.455,2.1957,0.0,0.0,0.0,0.0,0.0,0.0,0.0,0.0,0.0,0.0,0.0,0.0,0.0,0.0,0.0,0.0,0.0,0.0,0.0,0.0,0.0,0.0,0.0,0.0,0.0,0.0,0.0,0.0,0.0,0.0,0.0,0.0,0.0,0.0,0.0,0.0,0.0,0.0,0.0,0.0,0.0,0.0,0.0,0.0,0.0,0.0,0.0,0.0,1.4398,0.0,0.0,0.0,0.0,0.0,0.0,0.0,0.0,0.0,0.0,0.0,0.0,0.0,0.0,0.0,0.0,0.0,0.0,0.0,0.0,0.0,0.0,0.0,0.0,0.0,0.0,0.0,0.0,0.0,0.0,0.0,0.0,0.0,0.0,0.0,0.0,0.0,0.0,0.0,0.0,0.0,0.0,0.0,0.0,0.0,0.0,0.0,0.0,0.0,0.0,0.0,0.0,0.0,0.0,0.0,0.0,0.0,0.0,0.0,2.363,2.6023,2.7703,2.8974,2.9647,2.6566,2.4299,0.0,0.0,0.0,0.0,0.0,0.0,0.0,0.0,0.0,0.0,0.0,0.0,0.0,0.0,0.0,0.0,0.0,0.0,0.0,0.0,0.0,0.0,0.0,0.0,0.0,0.0,0.0,0.0,0.0,0.0,0.0,0.0,0.0,0.0,0.0,0.0,0.0,0.0,0.0,0.0,0.0,0.0,0.0,0.0,0.0,0.0,0.0,0.0,0.0,0.0,0.0,0.0,0.0,0.0,0.0,0.0,0.0,0.0,0.0,0.0,0.0,0.0,0.0,0.0,0.0,0.0,0.0,0.0,0.0,0.0,0.0,0.0,0.0,0.0,0.0,0.0,0.0,0.0,0.0,0.0,0.0,0.0,0.0,0.0,0.0,0.0,0.0,0.0,0.0,0.0,0.0,0.0,0.0,0.0,0.0,0.0,0.0,0.0,0.0,0.0,0.0,0.0,0.0,0.0,0.0,0.0,0.0,2.2895,2.4759,2.6977,2.8892,3.0059,3.044,2.8769,2.6558,2.3892,0.0,0.0,0.0,0.0,0.0,0.0,0.0,0.0,0.0,0.0,0.0,0.0,0.0,0.0,0.0,0.0,0.0,0.0,0.0,0.0,0.0,0.0,0.0,0.0,0.0,0.0,0.0,0.0,0.0,0.0,0.0,0.0,0.0,0.0,0.0,0.0,0.0,0.0,1.6344,1.6175,0.0,0.0,0.0,0.0,0.0,0.0,0.0,0.0,1.4619,0.0,0.0,0.0,0.0,0.0,0.0,0.0,0.0,0.0,0.0,0.0,0.0,0.0,0.0,0.0,0.0,0.0,0.0,0.0,0.0,0.0,0.0,0.0,0.0,0.0,0.0,0.0,0.0,0.0,0.0,0.0,0.0,0.0,0.0,0.0,0.0,0.0,0.0,0.0,0.0,0.0,0.0,0.0,0.0,0.0,0.0,0.0,0.0,0.0,0.0,0.0,0.0,0.0,0.0,0.0,0.0,2.3934,2.3636,2.5201,2.8751,2.9435,2.9953,3.0341,2.9137,2.7258,2.4764,0.0,0.0,0.0,0.0,0.0,0.0,0.0,0.0,0.0,0.0,0.0,0.0,0.0,0.0,0.0,0.0,0.0,0.0,0.0,0.0,0.0,0.0,0.0,0.0,0.0,0.0,0.0,0.0,0.0,0.0,0.0,0.0,0.0,0.0,0.0,0.0,0.0,0.0,0.0,1.6571,1.6215,0.0,0.0,0.0,0.0,0.0,0.0,0.0,0.0,1.5162,0.0,0.0,0.0,0.0,0.0,0.0,0.0,0.0,0.0,0.0,0.0,0.0,0.0,0.0,0.0,0.0,0.0,0.0,0.0,0.0,0.0,0.0,0.0,0.0,0.0,0.0,0.0,0.0,0.0,0.0,0.0,0.0,0.0,0.0,0.0,0.0,0.0,0.0,0.0,0.0,0.0,0.0,0.0,0.0,0.0,0.0,0.0,0.0,0.0,0.0,0.0,0.0,0.0,0.0,0.0,2.3809,2.425,2.5949,2.901,2.931,2.9647,3.0147,2.8854,2.7123,0.0,0.0,0.0,0.0,0.0,0.0,0.0,0.0,0.0,0.0,0.0,0.0,0.0,0.0,0.0,0.0,0.0,0.0,0.0,0.0,0.0,0.0,0.0,0.0,0.0,0.0,0.0,0.0,0.0,0.0,0.0,0.0,0.0,0.0,0.0,0.0,0.0,0.0,0.0,0.0,1.7385,1.7257,1.7574,0.0,0.0,0.0,0.0,0.0,0.0,1.5817,1.5941,0.0,0.0,0.0,0.0,0.0,0.0,0.0,0.0,0.0,0.0,0.0,0.0,0.0,0.0,0.0,0.0,0.0,0.0,0.0,0.0,0.0,0.0,0.0,0.0,0.0,0.0,0.0,0.0,0.0,0.0,0.0,0.0,0.0,0.0,0.0,0.0,0.0,0.0,0.0,0.0,0.0,0.0,0.0,0.0,0.0,0.0,0.0,0.0,0.0,0.0,0.0,0.0,0.0,0.0,0.0,2.3749,2.4848,2.6533,2.8816,2.9079,2.9411,2.9887,2.8246,2.659,0.0,0.0,0.0,0.0,0.0,0.0,0.0,0.0,0.0,0.0,0.0,0.0,0.0,0.0,0.0,0.0,0.0,0.0,0.0,0.0,0.0,0.0,0.0,0.0,0.0,0.0,0.0,0.0,0.0,0.0,0.0,0.0,0.0,0.0,0.0,0.0,0.0,0.0,0.0,0.0,0.0,1.8248,1.8341,1.7833,0.0,0.0,0.0,0.0,1.5871,1.675,0.0,0.0,0.0,0.0,0.0,0.0,0.0,0.0,0.0,0.0,0.0,0.0,0.0,0.0,0.0,0.0,0.0,0.0,0.0,0.0,0.0,0.0,0.0,0.0,0.0,0.0,0.0,0.0,0.0,0.0,0.0,0.0,0.0,0.0,0.0,0.0,0.0,0.0,0.0,0.0,0.0,0.0,0.0,0.0,0.0,0.0,0.0,0.0,0.0,0.0,0.0,0.0,0.0,0.0,0.0,0.0,2.5048,2.5474,2.6618,2.8561,2.9064,2.9418,2.97,2.7384,2.5704,0.0,0.0,0.0,0.0,0.0,0.0,0.0,0.0,0.0,0.0,0.0,0.0,0.0,0.0,0.0,0.0,0.0,0.0,0.0,0.0,0.0,0.0,0.0,0.0,0.0,0.0,0.0,0.0,0.0,0.0,0.0,0.0,0.0,0.0,0.0,0.0,0.0,0.0,0.0,0.0,0.0,1.8294,1.8538,1.8047,1.7387,0.0,0.0,0.0,1.6964,1.8795,0.0,0.0,0.0,0.0,0.0,0.0,0.0,0.0,0.0,0.0,0.0,0.0,0.0,0.0,0.0,0.0,0.0,0.0,0.0,0.0,0.0,0.0,0.0,0.0,0.0,0.0,0.0,0.0,0.0,0.0,0.0,0.0,0.0,0.0,0.0,0.0,0.0,0.0,0.0,0.0,0.0,0.0,0.0,0.0,0.0,0.0,0.0,0.0,0.0,0.0,0.0,0.0,0.0,0.0,0.0,2.3266,2.4804,2.6119,2.735,2.8515,2.8855,2.9169,2.9446,2.6488,2.4783,0.0,0.0,0.0,0.0,0.0,0.0,0.0,0.0,0.0,0.0,0.0,0.0,0.0,0.0,0.0,0.0,0.0,0.0,0.0,0.0,0.0,0.0,0.0,0.0,0.0,0.0,0.0,0.0,0.0,0.0,0.0,0.0,0.0,0.0,0.0,0.0,0.0,0.0,0.0,0.0,0.0,0.0,1.8427,1.8994,0.0,0.0,0.0,1.9049,1.7722,0.0,0.0,0.0,0.0,0.0,0.0,0.0,0.0,0.0,0.0,0.0,0.0,0.0,0.0,0.0,0.0,0.0,0.0,0.0,0.0,0.0,0.0,0.0,0.0,0.0,0.0,0.0,0.0,0.0,0.0,0.0,0.0,0.0,0.0,0.0,0.0,0.0,0.0,0.0,0.0,0.0,0.0,0.0,0.0,0.0,0.0,0.0,0.0,0.0,0.0,0.0,0.0,0.0,0.0,0.0,0.0,0.0,2.4615,2.6634,2.7922,2.8382,2.8676,2.8971,2.9209,2.6223,0.0,0.0,0.0,0.0,0.0,0.0,0.0,0.0,0.0,0.0,0.0,0.0,0.0,0.0,0.0,0.0,0.0,0.0,0.0,0.0,0.0,0.0,0.0,0.0,0.0,0.0,0.0,0.0,0.0,0.0,0.0,0.0,0.0,0.0,0.0,0.0,0.0,0.0,0.0,0.0,0.0,0.0,1.9545,1.8966,1.999,2.057,0.0,0.0,2.0114,1.903,2.0962,2.181,0.0,0.0,0.0,0.0,0.0,0.0,0.0,0.0,0.0,0.0,0.0,0.0,0.0,0.0,0.0,0.0,0.0,0.0,0.0,0.0,0.0,0.0,0.0,0.0,0.0,0.0,0.0,0.0,0.0,0.0,0.0,0.0,0.0,0.0,0.0,0.0,0.0,0.0,0.0,0.0,0.0,0.0,0.0,0.0,0.0,0.0,0.0,0.0,0.0,0.0,0.0,0.0,0.0,0.0,0.0,2.5184,2.7014,2.8,2.8062,2.8657,2.9055,2.9171,2.7043,2.5595,0.0,0.0,0.0,0.0,0.0,0.0,0.0,0.0,0.0,0.0,0.0,0.0,0.0,0.0,0.0,0.0,0.0,0.0,0.0,0.0,0.0,0.0,0.0,0.0,0.0,0.0,0.0,0.0,0.0,0.0,0.0,0.0,0.0,0.0,0.0,0.0,0.0,0.0,0.0,0.0,0.0,2.0924,2.0819,2.0802,2.1208,0.0,0.0,2.1133,2.1394,2.3198,2.3667,2.0885,0.0,0.0,0.0,0.0,0.0,0.0,0.0,0.0,0.0,0.0,0.0,0.0,0.0,0.0,0.0,0.0,0.0,0.0,0.0,0.0,0.0,0.0,0.0,0.0,0.0,0.0,0.0,0.0,0.0,0.0,0.0,0.0,0.0,0.0,0.0,0.0,0.0,0.0,0.0,0.0,0.0,0.0,0.0,0.0,0.0,0.0,0.0,0.0,0.0,0.0,0.0,0.0,0.0,2.5187,2.6013,2.7233,2.8124,2.8664,2.8843,2.8981,2.9061,2.7187,2.5786,0.0,0.0,0.0,0.0,0.0,0.0,0.0,0.0,0.0,0.0,0.0,0.0,0.0,0.0,0.0,0.0,0.0,0.0,0.0,0.0,0.0,0.0,0.0,0.0,0.0,0.0,0.0,0.0,2.1352,2.1203,2.0685,0.0,0.0,0.0,0.0,0.0,0.0,0.0,0.0,0.0,0.0,2.1308,2.2053,2.2788,0.0,0.0,2.3366,2.315,2.1999,2.3062,2.3173,2.074,2.0192,0.0,0.0,0.0,0.0,0.0,0.0,0.0,0.0,0.0,0.0,0.0,0.0,0.0,0.0,0.0,0.0,0.0,0.0,0.0,0.0,0.0,0.0,0.0,0.0,0.0,0.0,0.0,0.0,0.0,0.0,0.0,0.0,0.0,0.0,0.0,0.0,0.0,0.0,0.0,0.0,0.0,0.0,0.0,0.0,0.0,0.0,0.0,0.0,0.0,0.0,0.0,0.0,2.5911,2.663,2.7843,2.8707,2.9176,2.9216,2.9143,2.8975,2.7517,2.6361,0.0,0.0,0.0,0.0,0.0,0.0,0.0,0.0,0.0,0.0,0.0,0.0,0.0,0.0,0.0,0.0,0.0,0.0,0.0,0.0,0.0,0.0,0.0,0.0,0.0,0.0,0.0,0.0,2.1575,2.1404,2.1036,0.0,0.0,0.0,0.0,0.0,0.0,0.0,0.0,0.0,0.0,2.249,2.3079,2.3725,2.4026,2.3694,2.3935,2.3735,2.2552,2.3022,2.2884,2.1018,0.0,0.0,0.0,0.0,0.0,0.0,0.0,0.0,0.0,0.0,0.0,0.0,0.0,0.0,0.0,0.0,0.0,0.0,0.0,0.0,0.0,0.0,0.0,0.0,0.0,0.0,0.0,0.0,0.0,0.0,2.0228,0.0,0.0,0.0,0.0,0.0,0.0,0.0,0.0,0.0,0.0,0.0,0.0,0.0,0.0,0.0,0.0,0.0,0.0,0.0,0.0,0.0,0.0,0.0,2.6934,2.8963,2.9824,2.9468,2.9779,2.9692,2.9067,2.8154,2.7563,2.7302,0.0,0.0,0.0,0.0,0.0,0.0,0.0,0.0,0.0,0.0,0.0,0.0,0.0,0.0,0.0,0.0,0.0,0.0,0.0,0.0,0.0,0.0,0.0,0.0,0.0,0.0,2.104,2.1099,2.123,0.0,0.0,0.0,0.0,0.0,0.0,0.0,0.0,0.0,0.0,2.3544,2.4808,2.3843,2.3111,2.3151,2.4139,2.3035,2.2354,2.3293,2.3455,2.3136,0.0,0.0,0.0,0.0,0.0,0.0,0.0,0.0,0.0,0.0,0.0,0.0,0.0,0.0,0.0,0.0,0.0,0.0,0.0,0.0,0.0,0.0,0.0,0.0,0.0,0.0,0.0,2.2648,2.2344,0.0,0.0,0.0,0.0,0.0,0.0,0.0,0.0,0.0,0.0,0.0,2.7393,2.7726,0.0,0.0,0.0,0.0,0.0,0.0,0.0,0.0,0.0,0.0,0.0,0.0,2.7137,2.8479,2.9513,3.0309,3.0896,3.0806,3.0649,3.0465,2.9716,2.8597,2.7114,0.0,0.0,0.0,0.0,0.0,0.0,0.0,0.0,0.0,0.0,0.0,0.0,0.0,0.0,0.0,0.0,0.0,0.0,0.0,0.0,0.0,0.0,0.0,0.0,0.0,2.2414,0.0,0.0,0.0,0.0,0.0,0.0,0.0,0.0,0.0,0.0,0.0,2.2353,2.3888,2.4065,2.4279,2.4851,2.4638,2.4671,0.0,0.0,0.0,0.0,0.0,0.0,0.0,0.0,0.0,0.0,0.0,0.0,0.0,0.0,2.3508,2.2933,2.3449,2.4041,2.4233,0.0,0.0,0.0,0.0,0.0,0.0,0.0,0.0,0.0,0.0,0.0,0.0,0.0,0.0,2.3926,0.0,2.3998,0.0,0.0,0.0,0.0,0.0,0.0,0.0,0.0,2.7837,2.8791,2.9537,2.9593,2.9478,0.0,2.9106,2.8038,0.0,0.0,0.0,0.0,0.0,0.0,0.0,0.0,2.7847,2.9019,3.018,3.1146,3.1821,3.1606,3.137,3.1171,3.0719,2.9694,2.8035,2.6968,2.5764,0.0,0.0,0.0,0.0,0.0,0.0,0.0,0.0,0.0,0.0,0.0,0.0,0.0,0.0,0.0,0.0,0.0,0.0,0.0,0.0,0.0,0.0,0.0,2.3018,0.0,0.0,0.0,0.0,0.0,0.0,0.0,0.0,0.0,2.3645,2.3417,2.3822,2.5289,2.5065,2.4779,2.4918,0.0,0.0,0.0,0.0,0.0,0.0,0.0,2.3318,2.2797,2.3463,2.4384,2.5442,2.6043,2.6596,2.7241,0.0,0.0,2.4763,2.5031,2.545,2.5463,2.5825,2.5957,2.5297,2.5166,2.4983,0.0,0.0,0.0,0.0,0.0,0.0,0.0,0.0,2.5527,2.4999,0.0,2.5223,0.0,0.0,0.0,0.0,0.0,0.0,0.0,0.0,3.2473,3.3119,3.0956,3.1637,3.1597,3.0843,3.0609,2.9954,2.8973,2.8429,0.0,0.0,0.0,0.0,0.0,0.0,2.8734,2.8844,3.1166,3.2354,3.2314,3.2271,3.1872,3.1193,3.1174,3.08,2.9968,2.8429,2.7207,2.6282,2.4269,0.0,0.0,0.0,0.0,0.0,0.0,0.0,0.0,0.0,0.0,0.0,0.0,0.0,0.0,0.0,0.0,0.0,0.0,0.0,0.0,2.3661,0.0,0.0,0.0,0.0,0.0,0.0,0.0,0.0,0.0,0.0,2.3818,2.5039,2.6004,2.5574,0.0,0.0,0.0,0.0,2.4788,2.3339,2.3483,2.3983,2.4382,2.4996,2.5528,2.5814,0.0,0.0,2.8673,2.7892,2.7297,2.7254,2.7872,2.804,2.7272,2.6653,2.6283,2.6265,2.6359,2.6029,2.5479,2.5606,2.5457,2.9489,0.0,0.0,0.0,0.0,2.6706,2.6744,2.6961,2.705,2.7119,2.7195,2.7653,0.0,0.0,0.0,0.0,0.0,0.0,2.8687,3.0218,3.1851,3.2752,3.3067,3.3872,3.4065,3.3691,3.3519,3.3002,3.2179,3.1804,3.0042,2.6956,0.0,0.0,0.0,0.0,3.0681,3.2494,3.3519,3.4,3.4,3.3474,3.2737,3.1758,3.1496,3.0871,2.988,2.8821,2.7625,2.6278,2.5486,0.0,0.0,0.0,0.0,0.0,0.0,0.0,0.0,0.0,0.0,0.0,0.0,0.0,0.0,0.0,0.0,0.0,0.0,0.0,2.4302,2.4296,2.4273,0.0,0.0,0.0,0.0,0.0,0.0,0.0,0.0,0.0,2.6995,2.5939,2.5429,0.0,0.0,2.5029,2.4851,2.5352,2.5755,2.5803,0.0,0.0,0.0,2.6608,2.6439,2.6523,2.7833,2.8976,2.9397,2.9702,2.9866,2.9866,3.0064,3.0103,2.9866,2.9064,2.8444,2.8405,2.8684,2.8866,2.8662,2.8563,2.8458,3.231,3.0929,2.928,2.8657,2.8733,2.8652,2.88,2.9082,2.8961,2.8801,2.8656,2.8945,2.8474,2.7459,2.8232,0.0,0.0,0.0,2.9779,3.1882,3.2619,3.3584,3.4703,3.5208,3.5339,3.5175,3.5093,3.4586,3.3692,3.3513,3.2049,2.9411,0.0,0.0,2.8536,3.0216,3.1775,3.323,3.4209,3.4503,3.4063,3.3794,3.3244,3.2475,3.2351,3.1752,3.0579,2.9597,2.8399,2.6958,2.6185,2.5171,0.0,0.0,0.0,0.0,0.0,0.0,0.0,0.0,0.0,0.0,0.0,2.5255,0.0,0.0,0.0,0.0,2.5802,2.5792,2.518,2.5149,0.0,0.0,0.0,0.0,0.0,0.0,0.0,2.668,2.713,2.7607,2.7989,2.6867,2.631,2.72,2.6498,2.591,2.6074,0.0,2.7173,2.7353,2.7476,2.7697,2.8136,2.8079,2.8097,2.8417,2.9171,2.9874,3.0219,3.0708,3.0992,3.1018,3.1169,3.1326,3.1326,3.0921,3.0561,3.0346,3.055,3.0653,3.0367,3.0258,3.0204,3.4641,3.4773,3.1223,2.9807,2.9877,2.9882,3.0236,3.0847,3.0865,3.0062,2.8807,2.9503,2.9008,2.7667,2.8371,0.0,0.0,3.0655,3.174,3.3695,3.4494,3.5256,3.5929,3.599,3.5949,3.5814,3.5814,3.5221,3.4186,3.4084,3.3532,3.255,3.1264,2.9962,2.8893,3.1172,3.2315,3.2092,3.383,3.4237,3.3266,3.3573,3.3575,3.3208,3.346,3.2988,3.1753,3.0504,2.9296,2.8082,2.6603,2.5713,2.5467,0.0,0.0,0.0,0.0,0.0,0.0,0.0,0.0,0.0,0.0,0.0,0.0,0.0,0.0,0.0,2.627,0.0,2.6551,2.6197,0.0,0.0,0.0,2.7056,2.7832,2.7897,2.7905,2.8022,0.0,0.0,0.0,0.0,2.8201,2.897,2.8674,2.8134,2.7526,2.8351,2.8799,2.8175,2.8543,2.8872,2.899,2.9434,2.9977,3.063,3.1005,3.0934,3.0934,3.096,3.1005,3.1005,3.1418,3.1725,3.1732,3.2032,3.2424,3.1882,3.1836,3.1635,3.1044,3.0823,3.0761,3.5823,3.5764,3.4664,3.348,3.2243,3.1682,3.1124,3.0616,3.0609,3.0621,3.0739,3.0847,3.1309,3.1953,3.1556,3.2166,3.3547,3.2959,3.3608,3.5255,3.5912,3.6561,3.7182,3.7642,3.776,3.7584,3.7584,3.6816,3.5422,3.536,3.455,3.3058,3.2093,3.1503,3.1271,3.2159,3.3188,3.4298,3.466,3.4718,3.4401,3.4237,3.4127,3.4018,3.3264,3.2544,3.1849,3.0299,2.9131,2.847,2.78,2.7127,2.6496,2.6148,0.0,0.0,0.0,0.0,0.0,0.0,0.0,0.0,0.0,2.6444,2.5772,0.0,2.7275,0.0,2.6103,2.6791,2.735,2.7292,0.0,0.0,2.7408,2.7462,2.8053,2.835,2.8449,2.8316,2.8349,2.8641,2.9285,2.9111,2.9337,3.0317,2.9151,2.8265,2.8546,2.9163,2.9554,2.9445,2.9943,3.0438,3.0412,3.0593,3.0747,3.096,3.1005,3.1005,3.1005,3.1005,3.1005,3.1005,3.1091,3.1182,3.1222,3.1319,3.1718,3.2293,3.2489,3.2408,3.2111,3.1667,3.1263,3.6817,3.6638,3.6187,3.5335,3.4264,3.3783,3.3222,3.262,3.2155,3.1914,3.1786,3.1762,3.2371,3.3423,3.337,3.3737,3.4442,3.4305,3.4855,3.5957,3.6572,3.7053,3.7375,3.7732,3.778,3.7626,3.7626,3.7279,3.6682,3.6654,3.6111,3.5125,3.4621,3.4214,3.3902,3.3112,3.3139,3.4004,3.391,3.4096,3.4591,3.4414,3.412,3.3772,3.3309,3.2661,3.1805,3.0455,2.9518,2.9056,2.8694,2.8174,2.7463,2.7109,2.6745,0.0,0.0,0.0,0.0,0.0,0.0,0.0,0.0,0.0,0.0,0.0,2.7981,0.0,2.7212,0.0,2.8115,2.8061,2.8148,2.8536,2.831,2.8354,2.8851,2.8949,2.8996,2.9045,2.9108,2.9436,3.0147,3.0164,3.0273,3.0914,3.0059,2.9509,2.9822,3.0147,3.0323,3.0355,3.0708,3.1005,3.1005,3.1005,3.1005,3.1005,3.1005,3.1005,3.1005,3.1005,3.1005,3.1018,3.1196,3.1346,3.1373,3.1357,3.1655,3.2292,3.2385,3.2282,3.2386,3.2119,3.1769,3.7533,3.7341,3.6611,3.619,3.6033,3.5904,3.5574,3.5096,3.4251,3.3363,3.2546,3.2634,3.3018,3.3647,3.4443,3.4717,3.4588,3.5149,3.5773,3.6446,3.6983,3.7331,3.7553,3.7502,3.7404,3.7272,3.7289,3.7466,3.7819,3.7823,3.77,3.7473,3.7245,3.6829,3.6118,3.4134,3.3,3.2834,3.2887,3.341,3.4426,3.4415,3.4035,3.3377,3.3444,3.2917,3.1696,3.0845,3.0128,2.9595,2.9393,2.9048,2.8474,2.7581,2.7385,0.0,2.6665,0.0,0.0,0.0,0.0,0.0,0.0,0.0,0.0,2.8591,2.8783,2.8664,2.8725,2.8812,2.8885,2.8728,2.8843,2.9404,2.9314,2.9377,2.9837,2.964,2.9595,2.998,2.9991,3.0148,3.0538,3.0824,3.0992,3.0992,3.0908,3.083,3.0966,3.0934,3.0934,3.1005,3.1005,3.1005,3.1005,3.1005,3.1005,3.1005,3.1005,3.1005,3.1005,3.1005,3.1005,3.1044,3.1333,3.1589,3.1584,3.1594,3.1744,3.2095,3.1868,3.1748,3.2021,3.2103,3.1943,3.7238,3.7358,3.6993,3.7036,3.7318,3.714,3.6076,3.4471,3.4275,3.403,3.3821,3.4409,3.4661,3.4753,3.5597,3.5922,3.5841,3.6042,3.6846,3.8119,3.8031,3.8657,3.9802,3.963,3.9474,3.9349,3.9324,3.9013,3.8426,3.8426,3.8066,3.7344,3.672,3.6293,3.6029,0.0,0.0,0.0,3.4588,3.5063,3.4801,3.4801,3.4727,3.4548,3.3462,0.0,3.1954,3.1184,3.0343,2.9427,3.0026,0.0,0.0,0.0,0.0,0.0,0.0,0.0,0.0,0.0,0.0,0.0,2.7682,2.7535,2.787,2.7938,2.8093,2.8439,2.8944,2.9419,2.9787,2.9799,2.9812,2.9956,2.9804,2.9909,3.0502,3.0411,3.0378,3.0663,3.0824,3.0828,3.0645,3.0824,3.0992,3.1005,3.1005,3.1005,3.1005,3.1005,3.1005,3.1005,3.1005,3.1005,3.1005,3.1005,3.1005,3.1005,3.1005,3.1005,3.1005,3.1005,3.0986,3.0986,3.1065,3.0954,3.0477,3.0665,3.0969,3.1042,3.1274,3.1519,3.1496,3.1482,3.1294,3.6686,0.0,3.658,3.6626,0.0,3.6761,3.6112,3.5121,3.4891,3.4683,3.4521,3.4899,3.5211,3.5525,3.5966,3.6137,3.6118,3.6439,3.7021,3.7775,3.8342,3.8785,3.9127,3.9352,3.9387,3.9273,3.9261,3.9197,3.9068,3.9039,3.8791,3.8282,3.7917,3.7599,3.7379,3.7088,3.6307,3.4996,3.5293,3.5527,3.5624,3.5214,3.4939,3.4818,0.0,0.0,0.0,0.0,0.0,0.0,0.0,0.0,0.0,0.0,0.0,3.0257,2.9796,2.9675,2.984,2.932,2.9086,2.9405,2.9108,2.8679,2.8246,2.8621,2.8986,2.9229,2.9544,2.9859,3.0068,3.0019,3.0087,3.0385,3.0257,3.0418,3.0964,3.0734,3.062,3.0931,3.081,3.067,3.0792,3.0908,3.0992,3.1005,3.1005,3.1005,3.1005,3.1005,3.1005,3.1005,3.1005,3.1005,3.1005,3.1005,3.1005,3.1005,3.1005,3.1005,3.1005,3.1005,3.0898,3.0615,3.0489,3.0286,2.9735,2.9742,2.9911,3.015,3.0367,3.0501,3.0427,3.0656,3.0701,3.6155,3.6155,3.6041,3.6014,3.6014,3.6014,3.5986,3.5935,0.0,0.0,0.0,3.5091,3.5422,3.5965,3.5986,3.5986,3.5988,3.6513,3.6797,3.6962,3.8067,3.8335,3.7944,3.8496,3.8765,3.8769,3.8769,3.9005,3.9471,3.9475,3.9379,3.9232,3.9202,3.904,3.8664,3.8301,3.7606,3.6656,3.5835,3.5702,3.6245,3.5589,3.5146,3.4984,3.4726,3.4333,3.3732,3.4276,3.4505,3.4333,3.3954,3.3386,3.2667,3.2441,3.196,3.1086,3.0412,3.0347,3.0983,3.004,2.9678,3.0334,3.0426,2.997,2.877,2.9545,3.008,3.005,3.015,3.0248,3.0347,3.0208,3.0314,3.0881,3.0779,3.0935,3.1508,3.1057,3.0883,3.1185,3.0845,3.0506,3.0919,3.0992,3.1005,3.1005,3.1005,3.1005,3.1005,3.1005,3.1005,3.1005,3.1005,3.1005,3.1005,3.1005,3.1005,3.1005,3.1005,3.0955,3.0861,3.0823,3.0545,2.9928,2.9832,2.9581,2.9091,2.9072,2.9115,2.9463,2.9512,2.951,2.9556,2.9795,2.9863,3.603,3.603,3.6008,3.6014,3.6014,3.6014,3.5932,3.5822,3.5878,3.5869,3.5843,3.5843,3.5847,3.5839,3.5943,3.5932,3.5839,3.6029,3.6405,0.0,3.6999,3.7609,3.8617,3.8631,3.889,3.9341,3.9361,3.9345,3.9339,3.9325,3.9175,3.8901,3.8873,3.8637,3.8244,3.8128,3.7905,3.7513,3.6942,3.6403,3.5904,3.5764,3.5698,3.5621,3.5045,3.465,3.4538,3.4529,3.4239,3.368,3.3987,3.395,3.346,3.2905,3.2582,3.2648,3.2559,3.2377,3.2117,3.1656,3.0744,2.9346,2.962,2.9646,2.9126,2.9683,3.0034,2.9893,3.0377,3.0869,3.1232,3.1242,3.1256,3.138,3.1375,3.1597,3.2168,3.182,3.1627,3.1866,3.1656,3.1214,3.1022,3.1005,3.1005,3.1005,3.1005,3.1005,3.1005,3.1005,3.1005,3.1005,3.1005,3.1005,3.1005,3.0992,3.0949,3.1005,3.0917,3.0678,3.0222,3.0152,2.9909,2.9335,2.9231,2.9008,2.8483,2.9037,2.9228,2.9061,2.9192,2.9476,2.9416,2.8944,2.8549,3.5877,3.5883,3.5811,3.5789,3.5772,3.5789,3.5745,3.5689,3.5756,3.5789,3.5789,3.5789,3.5756,3.5689,3.5756,3.5745,3.5689,3.5717,3.587,3.614,3.6413,3.704,3.7957,3.8342,3.8807,3.9362,3.9392,3.9352,3.9315,3.9315,3.9134,3.8805,3.8483,3.8201,3.8001,3.7844,3.7714,3.7598,3.7412,3.7165,3.6832,3.6449,3.63,3.6398,3.6048,3.5904,3.5904,3.6202,3.6208,3.5887,3.5782,3.5561,3.5225,3.4369,3.3761,3.3589,3.3013,3.2694,3.2732,3.2121,3.1063,2.955,2.9976,3.0216,2.9874,3.0485,3.0805,3.0739,3.1009,3.126,3.1474,3.1502,3.1642,3.1949,3.1794,3.1926,3.2371,3.2038,3.1739,3.1796,3.15,3.1198,3.1024,3.1005,3.1005,3.1005,3.1005,3.1005,3.0986,3.0691,3.0602,3.0898,3.1005,3.1005,3.0968,3.0672,3.0489,3.0438,3.0171,2.9871,2.9542,2.9503,2.925,2.8771,2.8613,2.8487,2.8125,2.8638,2.8906,2.8907,2.9128,2.9303,2.8805,2.8081,2.7762,3.5982,3.626,3.578,3.5628,3.5628,3.5628,3.5628,3.5628,3.5628,3.5628,3.5628,3.5628,3.5628,3.56,3.5577,3.5594,3.5571,3.5486,3.5446,3.5462,3.5884,3.6505,3.7265,3.7835,3.8528,3.9216,3.9315,3.9272,3.9205,3.9191,3.8999,3.8567,3.8075,3.7815,3.7815,3.7612,3.751,3.751,3.7599,3.7658,3.7641,3.7087,3.6875,3.7018,3.7032,3.7032,3.7064,3.753,3.7817,3.7771,3.7277,3.6886,3.6692,3.5577,3.4705,3.4197,3.3042,3.2426,3.2614,3.2196,3.1382,3.0251,3.0758,3.1098,3.0993,3.1541,3.1839,3.1724,3.1698,3.1769,3.1935,3.1935,3.2103,3.2519,3.2322,3.2333,3.2571,3.2096,3.1666,3.1593,3.1254,3.1024,3.1005,3.1005,3.1005,3.1005,3.1005,3.1005,3.0949,3.0539,3.047,3.0583,3.0672,3.0508,3.0545,3.0152,2.9845,2.9787,2.9445,2.916,2.8996,2.8897,2.8653,2.8171,2.8108,2.8146,2.8078,2.8527,2.8802,2.8779,2.9002,2.8968,2.8068,2.762,2.7333,3.6434,3.7398,3.6219,3.5628,3.5633,3.5633,3.5622,3.5616,3.5616,3.5628,3.5605,3.5616,3.56,3.5605,3.5526,3.5514,3.5503,3.5389,3.5256,3.5163,3.5195,3.5906,3.7061,3.7214,3.7943,3.9136,3.9285,3.9107,3.8876,3.8832,3.8569,3.8015,3.7685,3.7554,3.7524,3.7509,3.751,3.751,3.751,3.7525,3.7525,3.7461,3.7414,3.7445,3.7443,3.7459,3.7427,3.7508,3.7554,3.7524,3.7311,3.7159,3.6987,3.5723,3.4814,3.4582,3.3131,3.2004,3.1525,3.2028,3.202,3.1241,3.1747,3.2176,3.2202,3.2732,3.2873,3.2469,3.2328,3.2539,3.3041,3.3069,3.3006,3.3045,3.2999,3.3048,3.264,3.2309,3.1928,3.1629,3.1235,3.1005,3.1005,3.1005,3.1005,3.1005,3.1005,3.1005,3.0986,3.0823,3.0527,3.0152,2.9678,2.9374,2.9355,2.9257,2.9192,2.9179,2.9121,2.8799,2.8415,2.8227,2.8079,2.767,2.7752,2.7988,2.8257,2.8712,2.919,2.8768,2.8682,2.8468,2.7644,2.7333,2.732,3.706,3.7241,3.7031,3.6658,3.6229,3.6091,3.5833,3.5463,3.59,3.5849,3.5457,3.5441,3.5458,3.5515,3.5418,3.5389,3.536,3.5245,3.5147,3.5138,3.5466,3.6145,3.7052,3.757,3.8219,3.896,3.8983,3.8849,3.8572,3.8373,3.8144,3.79,3.7642,3.751,3.751,3.751,3.751,3.751,3.751,3.751,3.751,3.751,3.751,3.751,3.751,3.751,3.7495,3.739,3.7329,3.7315,3.7165,3.6999,3.68,3.5763,3.4984,3.4516,3.3397,3.2452,3.184,3.2194,3.2128,3.1417,3.201,3.2412,3.244,3.2957,3.3182,3.2985,3.2943,3.3055,3.3248,3.3086,3.2949,3.2895,3.2574,3.2264,3.2073,3.1703,3.1384,3.1254,3.1104,3.1005,3.1005,3.1005,3.1005,3.1005,3.1005,3.1005,3.0986,3.0659,3.0317,2.996,2.9211,2.8799,2.8964,2.8759,2.8613,2.8506,2.8227,2.7805,2.776,2.7606,2.7484,2.7231,2.769,2.8115,2.8412,2.8898,2.9328,2.8811,2.8113,2.7715,2.7357,2.732,2.732,3.7672,3.7418,3.7687,3.7323,3.6555,3.6666,3.6284,3.5743,3.6384,3.6272,3.5659,3.5775,3.5899,3.5919,3.548,3.5345,3.5534,3.5416,3.5457,3.5666,3.6112,3.6692,3.7433,3.7934,3.8418,3.8748,3.8805,3.8611,3.8262,3.7945,3.7784,3.7772,3.7598,3.751,3.751,3.751,3.751,3.751,3.751,3.751,3.7495,3.745,3.7435,3.7495,3.751,3.7465,3.7376,3.721,3.7104,3.7013,3.6816,3.6631,3.6352,3.5553,3.4696,3.3905,3.3496,3.2883,3.209,3.2544,3.2545,3.1894,3.2314,3.2634,3.2704,3.3041,3.328,3.328,3.3294,3.328,3.3259,3.2931,3.2708,3.2654,3.211,3.1721,3.1611,3.1328,3.1161,3.1024,3.1024,3.1005,3.1005,3.1005,3.1005,3.1005,3.1005,3.0892,3.0729,3.0286,2.9941,2.9574,2.8724,2.8454,2.872,2.8315,2.8022,2.801,2.7708,2.7379,2.7314,2.7357,2.738,2.7518,2.7885,2.8227,2.8556,2.9023,2.9218,2.8593,2.7904,2.7357,2.732,2.732,2.732,3.8108,3.855,3.7838,3.709,3.648,3.7125,3.7012,3.6377,3.7101,3.7029,3.6415,3.6869,3.717,3.697,3.5749,3.5533,3.6092,3.6032,3.6303,3.6866,3.7003,3.7437,3.8116,3.8199,3.8421,3.8701,3.8708,3.8441,3.7929,3.7655,3.7525,3.7525,3.7494,3.751,3.751,3.751,3.751,3.7495,3.748,3.7495,3.748,3.73,3.7315,3.7465,3.7495,3.7315,3.706,3.703,3.6862,3.6538,3.6242,3.6068,3.5897,3.491,3.371,3.2677,3.3173,3.3024,3.2049,3.3039,3.3473,3.2641,3.2873,3.3238,3.3168,3.3252,3.3294,3.3294,3.3294,3.3294,3.3259,3.2931,3.2672,3.2618,3.2291,3.1909,3.1598,3.1482,3.1384,3.1099,3.1005,3.1005,3.1005,3.1005,3.1005,3.0986,3.0986,3.0766,3.0247,3.0037,2.9535,2.8791,2.8347,2.8219,2.8199,2.7955,2.7745,2.7882,2.7891,2.7451,2.7564,2.7667,2.7702,2.7851,2.8264,2.8573,2.8756,2.8823,2.8826,2.8396,2.7773,2.7357,2.732,2.732,2.7361,3.913,3.9135,3.6905,3.6593,3.7615,3.7378,3.7078,3.6929,3.7627,3.7261,3.6397,3.6875,3.6651,3.5784,3.6203,3.6518,3.6767,3.6729,3.687,3.7156,3.7586,3.7826,3.7903,3.8347,3.8417,3.8254,3.8214,3.8015,3.7685,3.7538,3.751,3.751,3.751,3.751,3.751,3.751,3.7435,3.7315,3.73,3.7285,3.7196,3.7121,3.7121,3.7197,3.7181,3.7044,3.6816,3.6724,3.6538,3.621,3.5927,3.5606,3.5134,3.4316,3.3643,3.3186,3.3311,3.322,3.2804,3.3218,3.3437,3.3079,3.3168,3.3294,3.3294,3.3294,3.3294,3.3294,3.3294,3.3294,3.3224,3.2931,3.2596,3.2327,3.2001,3.1629,3.1328,3.1216,3.1142,3.1024,3.1005,3.1005,3.1005,3.1005,3.1005,3.0968,3.0634,3.0279,3.0018,2.9678,2.9211,2.8838,2.8466,2.8318,2.8643,2.8145,2.7872,2.8205,2.8299,2.8264,2.831,2.8033,2.7954,2.831,2.87,2.8845,2.897,2.8682,2.8633,2.8186,2.756,2.7357,2.732,2.7372,2.7472,3.9248,3.8879,3.6978,3.6929,3.8238,3.7969,3.7665,3.7582,3.8228,3.7847,3.697,3.7251,3.7003,3.6489,3.7119,3.7615,3.7765,3.7582,3.7599,3.7847,3.8206,3.8275,3.815,3.8466,3.8401,3.7958,3.7815,3.767,3.7539,3.751,3.751,3.751,3.751,3.745,3.742,3.742,3.7315,3.718,3.7134,3.709,3.6999,3.6938,3.6908,3.6877,3.6862,3.6739,3.6538,3.6414,3.6147,3.5766,3.5459,3.4986,3.4363,3.3882,3.357,3.3501,3.3364,3.3294,3.3294,3.3294,3.3294,3.3294,3.3294,3.3294,3.3294,3.3294,3.3294,3.3276,3.3171,3.3118,3.3033,3.2739,3.2399,3.2092,3.1703,3.131,3.1043,3.1024,3.1024,3.1005,3.1005,3.1005,3.1005,3.1005,3.0892,3.0729,3.0247,2.9941,2.9457,2.9094,2.87,2.8502,2.8067,2.8072,2.8304,2.8071,2.831,2.8689,2.8666,2.8735,2.8827,2.8482,2.8446,2.8814,2.8991,2.9065,2.897,2.8644,2.8274,2.787,2.7584,2.7309,2.7372,2.7441,2.7614,3.8375,3.8321,3.8166,3.8063,3.8374,3.8788,3.8775,3.8364,3.8937,3.8738,3.7967,3.8166,3.8361,3.8755,3.8295,3.8543,3.8765,3.8375,3.8457,3.9,3.8829,3.8695,3.8627,3.8455,3.8205,3.7857,3.7626,3.7525,3.751,3.751,3.751,3.751,3.7495,3.739,3.7209,3.7209,3.7134,3.703,3.6984,3.6984,3.6969,3.68,3.6708,3.6693,3.66,3.6445,3.6227,3.6084,3.5766,3.523,3.475,3.4176,3.3779,3.3588,3.3518,3.3361,3.3294,3.3294,3.3294,3.3294,3.3294,3.3294,3.3294,3.3276,3.3224,3.3224,3.3206,3.3104,3.2878,3.2704,3.2632,3.2345,3.2092,3.2037,3.1519,3.1123,3.1024,3.1005,3.1005,3.1005,3.1005,3.1005,3.1005,3.0911,3.0672,3.0228,2.9902,2.9457,2.8653,2.8307,2.7898,2.7505,2.7438,2.7684,2.7861,2.8079,2.8666,2.9148,2.8964,2.8919,2.9206,2.9091,2.9033,2.9287,2.927,2.933,2.8787,2.8448,2.7885,2.7513,2.7357,2.7372,2.7482,2.7603,2.7852,3.8533,3.8805,3.7847,3.8063,3.8838,3.8676,3.8659,3.8954,3.9232,3.8888,3.8394,3.8725,3.8556,3.8129,3.8526,3.8682,3.8248,3.8449,3.8744,3.8871,3.8655,3.8401,3.8215,3.8101,3.7902,3.7655,3.7554,3.751,3.751,3.751,3.751,3.748,3.7359,3.7269,3.7179,3.712,3.6984,3.6816,3.68,3.6754,3.6677,3.66,3.6569,3.6569,3.6507,3.6398,3.6211,3.5927,3.5508,3.4898,3.4566,3.4159,3.3709,3.3466,3.3361,3.3294,3.3294,3.3294,3.3294,3.3294,3.3294,3.3294,3.3294,3.3171,3.2931,3.2899,3.2775,3.2561,3.2345,3.2291,3.2237,3.1964,3.1776,3.1776,3.1537,3.1254,3.1061,3.1005,3.1005,3.1005,3.1005,3.1005,3.0911,3.0691,3.026,2.9883,2.9321,2.8586,2.8247,2.7797,2.7505,2.721,2.727,2.744,2.7828,2.8195,2.87,2.924,2.9274,2.9286,2.955,2.9631,2.9608,2.9509,2.9523,2.9238,2.8705,2.8198,2.7644,2.7381,2.7333,2.7431,2.7614,2.7831,2.8048,3.8888,3.9183,3.8308,3.8424,3.9232,3.8788,3.8854,3.9282,3.9315,3.902,3.8725,3.8775,3.849,3.7969,3.8447,3.8405,3.8019,3.8346,3.8455,3.8441,3.8303,3.8089,3.7886,3.7786,3.767,3.7524,3.751,3.751,3.7495,3.7435,3.739,3.7344,3.721,3.7089,3.7013,3.6922,3.68,3.6662,3.6631,3.6569,3.6523,3.6492,3.6492,3.6476,3.6305,3.6116,3.5896,3.5493,3.5085,3.475,3.4363,3.3902,3.3536,3.3378,3.3294,3.3294,3.3294,3.3294,3.3294,3.3294,3.3294,3.3294,3.3294,3.3206,3.2984,3.2913,3.2753,3.2399,3.22,3.2037,3.1891,3.1593,3.1402,3.1365,3.1365,3.1272,3.1043,3.1005,3.1005,3.1005,3.1005,3.0879,3.0596,3.0355,2.9767,2.936,2.8685,2.8018,2.7857,2.7496,2.7292,2.719,2.7213,2.7509,2.7945,2.8356,2.8735,2.9194,2.9584,2.9745,2.9964,2.9906,2.9849,2.9512,2.9419,2.8892,2.8375,2.7964,2.7489,2.7404,2.732,2.7379,2.7555,2.7935,2.8214,3.9242,3.9258,3.9239,3.9162,3.9245,3.9222,3.9249,3.9315,3.9315,3.9239,3.9093,3.8609,3.8463,3.8524,3.8188,3.8073,3.825,3.8069,3.7958,3.7945,3.7902,3.7857,3.78,3.7626,3.7539,3.751,3.748,3.745,3.7435,3.73,3.7194,3.718,3.7059,3.6892,3.677,3.6708,3.6647,3.6523,3.6507,3.6492,3.6492,3.6492,3.6492,3.6476,3.6006,3.5672,3.5464,3.4872,3.4568,3.4668,3.4005,3.3553,3.3329,3.3294,3.3294,3.3294,3.3294,3.3294,3.3294,3.3294,3.3294,3.3294,3.3294,3.3241,3.3086,3.2962,3.2803,3.2381,3.2092,3.1868,3.1556,3.1272,3.1061,3.1024,3.108,3.1043,3.1024,3.1005,3.1005,3.1005,3.0968,3.0804,3.0279,3.0088,2.9399,2.8744,2.8267,2.7797,2.7484,2.7272,2.721,2.719,2.719,2.7474,2.7897,2.8344,2.8735,2.9274,2.9699,2.9998,3.0113,3.0011,2.9886,2.9555,2.9106,2.8595,2.8151,2.7762,2.7489,2.7357,2.732,2.732,2.7586,2.8038,2.8473,3.8821,3.8658,3.8849,3.8928,3.8972,3.9191,3.9302,3.9315,3.9302,3.9137,3.892,3.8747,3.8553,3.8483,3.8293,3.8155,3.8026,3.7943,3.7786,3.7611,3.7612,3.7612,3.7582,3.7538,3.751,3.7495,3.7344,3.7269,3.7269,3.7135,3.706,3.706,3.6861,3.6754,3.6708,3.6616,3.6554,3.6507,3.6492,3.6492,3.6492,3.6492,3.6492,3.646,3.5943,3.5656,3.5512,3.4691,3.4079,3.392,3.3591,3.3361,3.3294,3.3294,3.3294,3.3294,3.3294,3.3294,3.3294,3.3294,3.3294,3.3294,3.3259,3.3033,3.2453,3.2431,3.2105,3.1611,3.1328,3.1291,3.1161,3.1061,3.1005,3.1005,3.1005,3.1005,3.1005,3.1005,3.1005,3.1005,3.1005,3.0804,3.0489,2.9845,2.9179,2.87,2.8067,2.7531,2.7352,2.719,2.721,2.7201,2.7268,2.7486,2.7816,2.8276,2.8769,2.9332,2.9768,3.0112,3.0068,2.9909,2.9715,2.9485,2.8874,2.8339,2.7987,2.7644,2.7489,2.732,2.7382,2.742,2.7872,2.8324,2.8773,3.86,3.8572,3.8736,3.8791,3.8819,3.9026,3.9043,3.8934,3.8906,3.8838,3.8655,3.8625,3.8474,3.8221,3.8191,3.8003,3.7756,3.7727,3.7641,3.7554,3.7525,3.751,3.751,3.751,3.751,3.7495,3.73,3.7224,3.7164,3.6983,3.6892,3.6846,3.6693,3.6616,3.6616,3.6554,3.6492,3.6492,3.6492,3.6492,3.6492,3.6492,3.6336,3.6147,3.5639,3.5219,3.4689,3.4065,3.3664,3.3486,3.3347,3.3294,3.3294,3.3294,3.3294,3.3294,3.3294,3.3294,3.3294,3.3294,3.3294,3.3259,3.3157,3.2828,3.2453,3.2218,3.1831,3.1421,3.1254,3.1161,3.1043,3.1005,3.1005,3.1005,3.1005,3.1005,3.1005,3.1005,3.1005,3.0949,3.0779,3.047,3.0266,2.9328,2.872,2.8235,2.7655,2.7512,2.7518,2.7348,2.7325,2.7451,2.7532,2.7748,2.8092,2.854,2.8953,2.9504,2.9848,3.0193,3.008,2.984,2.9543,2.9244,2.8631,2.8128,2.7786,2.7536,2.7428,2.7351,2.742,2.7648,2.8048,2.8504,2.8949,3.849,3.8667,3.8708,3.8692,3.8694,3.8736,3.8655,3.8464,3.8448,3.842,3.8347,3.8365,3.8162,3.7857,3.7873,3.7727,3.7509,3.7538,3.7539,3.751,3.751,3.7495,3.7435,3.7495,3.748,3.742,3.7254,3.7164,3.7043,3.68,3.6693,3.6662,3.6569,3.6507,3.6523,3.6492,3.6492,3.6492,3.6492,3.6492,3.646,3.6398,3.6147,3.5768,3.5137,3.439,3.375,3.3347,3.3312,3.3294,3.3294,3.3294,3.3294,3.3294,3.3294,3.3294,3.3294,3.3294,3.3294,3.3294,3.3294,3.3241,3.2998,3.2686,3.2556,3.2255,3.1909,3.1421,3.1537,3.1344,3.1232,3.1117,3.1235,3.1319,3.1254,3.111,3.1084,3.1044,3.1005,3.0986,3.0463,2.989,2.9282,2.8709,2.821,2.8166,2.7728,2.7819,2.7851,2.7793,2.7851,2.8012,2.8046,2.8079,2.8436,2.885,2.9251,2.9665,2.9941,3.017,3.0102,2.984,2.9417,2.8956,2.8339,2.7857,2.7523,2.7333,2.732,2.7351,2.74,2.7676,2.8034,2.8535,2.899,3.7916,3.7803,3.8001,3.8101,3.8144,3.8375,3.8448,3.8394,3.8363,3.8205,3.806,3.8001,3.786,3.7582,3.7612,3.7538,3.751,3.751,3.751,3.751,3.751,3.7405,3.7329,3.7405,3.7405,3.727,3.7121,3.6968,3.68,3.6677,3.6554,3.6538,3.6538,3.6492,3.6492,3.6492,3.6492,3.6492,3.6492,3.6476,3.6352,3.6085,3.5816,3.5528,3.4743,3.3997,3.3455,3.3294,3.3294,3.3294,3.3294,3.3294,3.3294,3.3294,3.3294,3.3276,3.3276,3.3276,3.329,3.3315,3.3304,3.3336,3.3215,3.2892,3.2273,3.2209,3.1812,3.1323,3.1136,3.1374,3.1588,3.1615,3.1804,3.2006,3.1875,3.1634,3.1568,3.1248,3.1031,3.0968,3.0785,3.052,2.9863,2.9455,2.8855,2.8228,2.8081,2.8199,2.823,2.823,2.8333,2.8494,2.8551,2.8596,2.8769,2.9171,2.9561,2.9815,3.0044,3.0193,3.0102,2.9726,2.929,2.8678,2.8011,2.7631,2.7381,2.732,2.732,2.7337,2.7482,2.7903,2.8328,2.8721,2.9104,3.7799,3.7714,3.7844,3.7915,3.7929,3.8091,3.8076,3.7977,3.7963,3.789,3.7743,3.7714,3.7642,3.751,3.751,3.751,3.751,3.751,3.751,3.748,3.742,3.7315,3.7209,3.7225,3.7211,3.7105,3.6938,3.68,3.6693,3.6585,3.6507,3.6492,3.6492,3.6492,3.6492,3.6492,3.6492,3.6492,3.6492,3.6398,3.6101,3.5863,3.535,3.494,3.417,3.3559,3.3329,3.3294,3.3294,3.3308,3.3322,3.3308,3.3308,3.3308,3.3308,3.3276,3.3086,3.3335,3.351,3.3408,3.3384,3.3783,3.3532,3.314,3.2716,3.2514,3.2216,3.1905,3.1842,3.194,3.2182,3.2222,3.245,3.2529,3.2437,3.2235,3.2091,3.1509,3.1005,3.0861,3.04,3.0157,2.9843,2.9629,2.912,2.8275,2.8129,2.8274,2.8792,2.8804,2.8827,2.893,2.9033,2.9114,2.9194,2.9481,2.9871,3.0032,3.0147,3.0216,3.017,2.9658,2.9083,2.856,2.8113,2.7678,2.7452,2.7381,2.7451,2.7624,2.7893,2.8276,2.87,2.9166,2.9487,3.7842,3.7844,3.7828,3.7842,3.7828,3.7828,3.7728,3.7554,3.751,3.7569,3.751,3.751,3.7539,3.751,3.751,3.751,3.7495,3.7435,3.742,3.7405,3.7255,3.715,3.7074,3.7014,3.6954,3.6908,3.68,3.6739,3.6801,3.6615,3.6507,3.6492,3.6492,3.6492,3.6492,3.6492,3.6492,3.6492,3.6336,3.6269,3.59,3.5735,3.5124,3.4597,3.4121,3.3846,3.3821,3.3761,3.3677,3.3575,3.3593,3.3575,3.3561,3.3462,3.348,3.3486,3.3268,3.3499,3.3889,3.3629,3.3494,3.4315,3.3829,3.3398,3.3222,3.2953,3.2732,3.262,3.2542,3.2607,3.2803,3.2829,3.2881,3.296,3.2954,3.2829,3.2666,3.1894,3.1489,3.1251,3.0848,3.047,2.9865,2.9448,2.8911,2.8469,2.8377,2.8446,2.8987,2.9366,2.9389,2.9435,2.9538,2.9584,2.9665,2.9676,3.0089,3.0158,3.0216,3.0193,3.0125,2.9497,2.8944,2.879,2.8357,2.7928,2.7705,2.7738,2.7841,2.8003,2.8231,2.852,2.9032,2.9601,2.9808,3.7568,3.7568,3.7553,3.7568,3.7568,3.7568,3.7553,3.751,3.751,3.751,3.751,3.751,3.751,3.751,3.751,3.751,3.745,3.7344,3.727,3.724,3.7105,3.6968,3.6846,3.6785,3.6739,3.6631,3.6647,3.6878,3.7032,3.683,3.6522,3.6492,3.6538,3.6553,3.6569,3.6522,3.666,3.6596,3.6313,3.6207,3.61,3.5582,3.5183,3.4884,3.4709,3.4711,3.4763,3.4837,3.4894,3.4894,3.488,3.4833,3.4629,3.4256,3.4125,3.4108,3.3918,3.3973,3.4288,3.3877,3.3689,3.3884,3.3875,3.3648,3.3421,3.3283,3.3179,3.2922,3.2855,3.2934,3.3404,3.3451,3.3699,3.3843,3.3679,3.3443,3.33,3.2881,3.2385,3.2214,3.1618,3.0862,3.0174,2.9579,2.9217,2.9063,2.9091,2.9079,2.9378,2.9757,2.9952,3.0009,3.0078,3.0067,3.009,3.0055,3.0193,3.0193,3.0193,3.0136,2.9886,2.9256,2.8839,2.8722,2.8565,2.8226,2.8105,2.8077,2.8276,2.8458,2.8613,2.8768,2.9259,2.9704,2.9756,3.7627,3.751,3.751,3.751,3.751,3.751,3.751,3.751,3.751,3.751,3.751,3.751,3.751,3.751,3.751,3.745,3.7329,3.7254,3.718,3.709,3.6923,3.6816,3.6693,3.6631,3.6801,3.6846,3.6816,3.6739,3.6923,3.6661,3.6538,3.6584,3.6784,3.7015,3.7123,3.7399,3.727,3.7074,3.678,3.6485,3.6269,3.5503,3.5224,3.5197,3.5217,3.5189,3.5189,3.5189,3.5175,3.5105,3.4952,3.4928,3.4874,3.477,3.4498,3.4451,3.4241,3.4267,3.4465,3.4064,3.3897,3.4445,3.4306,3.4099,3.3932,3.387,3.3724,3.3609,3.3574,3.3679,3.3992,3.3979,3.4136,3.4267,3.4136,3.4018,3.3961,3.3705,3.3344,3.2877,3.1732,3.0884,3.0426,2.9924,2.9587,2.959,2.9733,2.9791,2.978,2.9986,3.0216,3.0216,3.0204,3.0182,3.0193,3.0193,3.0216,3.0216,3.017,3.0125,2.992,2.9378,2.8996,2.8767,2.858,2.8422,2.8254,2.8148,2.8545,2.8907,2.9021,2.9187,2.9487,2.9735,2.9798,3.7699,3.751,3.751,3.751,3.751,3.751,3.751,3.751,3.751,3.751,3.751,3.751,3.751,3.7495,3.7435,3.7359,3.7209,3.7149,3.7029,3.6907,3.6739,3.6662,3.6616,3.6615,3.6723,3.6954,3.7031,3.6769,3.703,3.6676,3.6661,3.7015,3.7461,3.7615,3.7738,3.7898,3.7951,3.7713,3.7304,3.6763,3.6118,3.5744,3.5555,3.5569,3.5569,3.5625,3.5691,3.5587,3.5554,3.5394,3.5128,3.4854,3.4949,3.4965,3.4866,3.4612,3.4287,3.4415,3.4511,3.4186,3.4072,3.4663,3.454,3.4421,3.4353,3.4277,3.4327,3.4397,3.4345,3.4293,3.4306,3.4371,3.4371,3.4384,3.4384,3.4364,3.427,3.3999,3.3487,3.2739,3.1578,3.0992,3.063,3.019,2.9831,2.9811,2.9975,2.9986,2.9987,3.0078,3.0216,3.0216,3.0216,3.0216,3.0216,3.0216,3.0216,3.0216,3.0148,3.008,2.9918,2.9646,2.9272,2.8863,2.8786,2.8614,2.8421,2.8448,2.8903,2.9259,2.9373,2.9539,2.9756,2.986,2.9911,3.7525,3.751,3.751,3.751,3.751,3.751,3.751,3.751,3.751,3.751,3.751,3.751,3.751,3.745,3.7315,3.7224,3.7119,3.6937,3.6847,3.6832,3.6647,3.6631,3.6615,3.6507,3.6738,3.7061,3.7277,3.7723,3.7831,3.7123,3.72,3.7892,3.7815,3.7768,3.8205,3.8213,3.7681,3.7471,3.672,3.6226,3.6207,3.6493,3.6638,3.6689,3.6636,3.6575,3.6427,3.6195,3.6055,3.6052,3.5718,3.5546,3.5581,3.5615,3.5379,3.509,3.4861,3.4785,3.4848,3.4398,3.4108,3.45,3.4439,3.4397,3.4397,3.4397,3.4397,3.4397,3.4397,3.4397,3.4397,3.4397,3.4397,3.4397,3.4397,3.4356,3.4293,3.3915,3.3428,3.2618,3.1469,3.123,3.0981,3.0504,3.0101,3.0147,3.0147,3.0159,3.0159,3.0204,3.0216,3.0216,3.0216,3.0216,3.0216,3.0216,3.0216,3.0216,3.0148,3.0045,2.9815,2.9599,2.9295,2.8967,2.8893,2.9005,2.9052,2.9197,2.9466,2.9601,2.9684,2.9808,2.9942,2.9994,2.9994,3.751,3.751,3.751,3.751,3.751,3.751,3.751,3.751,3.751,3.751,3.751,3.751,3.745,3.7344,3.7224,3.7089,3.6922,3.677,3.6894,3.6955,3.6816,3.6907,3.743,3.7307,3.7184,3.7584,3.7954,3.8431,3.8539,3.8262,3.8061,3.8415,3.8583,3.8554,3.8674,3.8748,3.8355,3.7791,3.7053,3.6604,3.6662,3.6824,3.6978,3.6959,3.6792,3.6688,3.6583,3.6238,3.6018,3.5938,3.5582,3.5372,3.5263,3.512,3.484,3.4744,3.4621,3.4594,3.463,3.4411,3.4354,3.4363,3.4397,3.4397,3.4397,3.4397,3.4397,3.4397,3.4397,3.4397,3.4397,3.4397,3.4397,3.4397,3.4397,3.4105,3.3937,3.362,3.3129,3.2264,3.1508,3.1313,3.108,3.0741,3.0319,3.017,3.0193,3.025,3.0227,3.0216,3.0216,3.0216,3.0216,3.0216,3.0216,3.0216,3.0216,3.0216,3.0216,3.0045,2.9666,2.9403,2.9358,2.9141,2.8949,2.9173,2.9575,2.9663,2.9684,2.9829,2.9994,2.9994,2.9994,2.9994,2.9994,3.7435,3.742,3.748,3.751,3.751,3.751,3.751,3.751,3.751,3.751,3.748,3.7435,3.7329,3.7194,3.7104,3.6922,3.6708,3.6677,3.7017,3.7139,3.7184,3.7477,3.7923,3.7969,3.7984,3.8507,3.863,3.8984,3.9184,3.9184,3.9014,3.8982,3.8981,3.9097,3.9023,3.8817,3.8477,3.7614,3.7171,3.6958,3.6931,3.6847,3.6836,3.6699,3.651,3.6301,3.6351,3.5825,3.5562,3.5716,3.5208,3.4928,3.4867,3.4701,3.4522,3.446,3.4444,3.4436,3.4447,3.4387,3.4397,3.4397,3.4397,3.4397,3.4397,3.4397,3.4397,3.4397,3.4397,3.4397,3.4397,3.4397,3.4397,3.4397,3.4377,3.3937,3.3505,3.3179,3.2841,3.2186,3.1563,3.1202,3.0997,3.0813,3.056,3.0273,3.0239,3.0331,3.0308,3.0285,3.0227,3.0227,3.0216,3.0227,3.0239,3.0239,3.0227,3.0308,3.0308,3.0194,2.9937,2.991,2.9981,2.9647,2.9267,2.9614,3.0181,3.0026,2.9849,2.9932,2.9994,2.9994,2.9994,2.9994,2.9994,3.7224,3.7239,3.742,3.751,3.751,3.751,3.751,3.751,3.751,3.7495,3.7435,3.7329,3.7224,3.7119,3.6907,3.6754,3.6677,3.6554,3.7016,3.7369,3.7523,3.7891,3.8384,3.8631,3.8523,3.8738,3.9153,3.9461,3.9645,3.9982,4.012,4.0286,3.9352,3.9292,3.8976,3.8473,3.7943,3.7269,3.6993,3.6954,3.6817,3.664,3.6451,3.6338,3.6079,3.5974,3.6463,3.5627,3.526,3.5618,3.4961,3.4543,3.4556,3.4473,3.4397,3.4397,3.4397,3.4437,3.4515,3.445,3.4397,3.4397,3.4335,3.4251,3.4209,3.4356,3.4397,3.4272,3.4196,3.4335,3.4356,3.4397,3.4397,3.4335,3.4235,3.3841,3.3319,3.2726,3.2359,3.1957,3.1632,3.1356,3.1413,3.133,3.0905,3.0595,3.0583,3.0663,3.0445,3.0388,3.0273,3.0227,3.0227,3.0239,3.0273,3.0331,3.0468,3.0618,3.0675,3.0581,3.039,3.0451,3.0473,3.0378,3.0102,3.0449,3.054,3.0135,2.9875,2.9942,2.9994,2.9994,2.9994,2.9994,2.9994,3.715,3.7209,3.73,3.739,3.751,3.751,3.751,3.751,3.751,3.7435,3.7284,3.7239,3.7089,3.6876,3.6785,3.6647,3.6569,3.6523,3.7153,3.7661,3.7892,3.843,3.9014,3.9368,3.9307,3.9645,3.9999,4.0107,4.0199,4.033,4.0168,3.9881,3.9317,3.8924,3.8517,3.7905,3.7341,3.7065,3.6805,3.6648,3.6536,3.6204,3.5965,3.5924,3.5562,3.5439,3.5531,3.5027,3.4893,3.4842,3.4599,3.4484,3.4463,3.445,3.4476,3.4489,3.4515,3.4659,3.4795,3.4638,3.441,3.4293,3.4063,3.3819,3.3917,3.4123,3.3776,3.37,3.3983,3.4266,3.3857,3.4139,3.4377,3.4293,3.404,3.3695,3.3202,3.2594,3.2268,3.2019,3.1844,3.1619,3.1802,3.1996,3.1444,3.0973,3.0962,3.0927,3.0721,3.0572,3.048,3.0377,3.0376,3.0572,3.0641,3.0698,3.079,3.0881,3.1007,3.0897,3.0771,3.0778,3.0811,3.0808,3.0655,3.0513,3.0305,3.0005,2.9901,2.9963,2.9994,2.9994,2.9994,2.9994,2.9994,3.6953,3.7058,3.7164,3.7315,3.7495,3.751,3.7464,3.742,3.742,3.7195,3.6906,3.6846,3.66,3.6321,3.6148,3.607,3.6019,3.623,3.7121,3.7689,3.8149,3.8925,3.9779,4.0153,3.9967,4.0443,4.0472,4.0441,4.0135,4.0264,3.9755,3.9292,3.9126,3.8546,3.8079,3.7327,3.7096,3.7139,3.6865,3.6792,3.6828,3.6185,3.5797,3.5682,3.5226,3.5093,3.5063,3.4816,3.4651,3.4662,3.4593,3.4541,3.4607,3.4685,3.475,3.4829,3.4933,3.5116,3.523,3.4985,3.4482,3.4168,3.3861,3.363,3.3651,3.3941,3.3715,3.3255,3.377,3.4105,3.3618,3.4054,3.4259,3.4174,3.3949,3.3587,3.314,3.2614,3.237,3.2143,3.2045,3.2065,3.2272,3.2443,3.2076,3.1582,3.1445,3.1272,3.0916,3.0801,3.0778,3.0675,3.056,3.0847,3.1123,3.1215,3.1224,3.0904,3.1017,3.1171,3.1113,3.1108,3.1136,3.1173,3.0892,3.0416,3.0196,3.012,3.0026,2.9984,2.9994,2.9994,2.9994,2.9994,2.9994,3.6708,3.6739,3.7058,3.73,3.7528,3.7511,3.7405,3.724,3.7212,3.6924,3.6428,3.6177,3.5752,3.5365,3.5344,3.5325,3.5365,3.5757,3.6645,3.7639,3.827,3.9262,4.0027,4.0397,4.0336,4.0459,4.0385,4.0141,3.9788,3.9717,3.9093,3.8437,3.8256,3.8106,3.7858,3.7351,3.7335,3.7714,3.7362,3.7524,3.7325,3.6457,3.5965,3.558,3.4967,3.474,3.5047,3.4847,3.4789,3.4999,3.4842,3.4868,3.5077,3.5221,3.5443,3.5809,3.5887,3.597,3.5961,3.5343,3.47,3.4018,3.3654,3.3537,3.3673,3.3801,3.3668,3.3062,3.387,3.4101,3.4063,3.4128,3.4194,3.4007,3.3752,3.351,3.3081,3.2688,3.2449,3.252,3.2573,3.2628,3.2812,3.2892,3.264,3.2306,3.1996,3.1675,3.1318,3.1249,3.1283,3.1088,3.1008,3.1295,3.1606,3.172,3.1646,3.1237,3.1166,3.1435,3.1383,3.1238,3.1314,3.1436,3.1111,3.0554,3.0411,3.0328,3.0167,2.9994,2.9994,2.9994,2.9994,2.9994,2.9994,3.6616,3.6723,3.6831,3.7233,3.773,3.7443,3.7254,3.7197,3.7142,3.6964,3.6613,3.6239,3.5626,3.523,3.5272,3.5249,3.5122,3.6036,3.6993,3.7654,3.8281,3.9334,4.0117,4.0437,4.0455,4.0385,4.0194,3.993,3.9732,3.9382,3.8738,3.8081,3.8066,3.7903,3.8,3.796,3.8296,3.8074,3.7869,3.7689,3.7223,3.6473,3.5857,3.5581,3.4874,3.4811,3.5299,3.5064,3.5155,3.5391,3.5221,3.5443,3.5521,3.56,3.594,3.6123,3.6127,3.5752,3.5522,3.507,3.4892,3.4096,3.3448,3.3274,3.3143,3.3605,3.3293,3.3143,3.3919,3.394,3.3486,3.43,3.4456,3.3847,3.3567,3.3428,3.3102,3.2756,3.2566,3.2884,3.3076,3.303,3.3109,3.3109,3.2914,3.2776,3.2502,3.2306,3.1984,3.2008,3.2019,3.1709,3.1594,3.1847,3.2065,3.2215,3.2348,3.2156,3.1984,3.2037,3.1887,3.1403,3.1175,3.1154,3.0955,3.0718,3.0417,3.0193,3.0099,2.9994,2.9994,2.9994,2.9994,2.9994,2.9994,3.643,3.6383,3.66,3.6801,3.7015,3.7078,3.7199,3.7296,3.7085,3.6889,3.6753,3.629,3.5684,3.5308,3.5323,3.5468,3.5122,3.5983,3.6809,3.7478,3.8071,3.9034,3.9826,4.0229,4.0159,4.0106,3.9877,3.9574,3.901,3.8884,3.8653,3.8453,3.8456,3.8674,3.8705,3.8805,3.8835,3.8616,3.8504,3.8154,3.7639,3.6995,3.6278,3.5904,3.5495,3.5255,3.5482,3.5574,3.5574,3.5691,3.5835,3.607,3.6005,3.6162,3.6492,3.6632,3.6664,3.6156,3.5538,3.5359,3.4902,3.3744,3.3184,3.2993,3.3017,3.3398,3.3171,3.3184,3.3913,3.3758,3.3513,3.4405,3.4244,3.3629,3.3457,3.3325,3.3226,3.2879,3.2863,3.3191,3.3306,3.3306,3.3281,3.3269,3.3178,3.3086,3.2971,3.2776,3.2594,3.2548,3.2513,3.2249,3.2111,3.2318,3.2548,3.2743,3.2849,3.2974,3.272,3.2409,3.1891,3.136,3.1129,3.0847,3.0588,3.0365,3.0167,2.9994,2.9994,2.9994,2.9994,2.9994,2.9994,2.9994,2.9994,3.6132,3.58,3.6368,3.6069,3.5477,3.6475,3.7188,3.7571,3.6892,3.6654,3.6769,3.6265,3.5687,3.5289,3.5267,3.5266,3.5378,3.593,3.6529,3.7092,3.7746,3.8693,3.9316,3.9663,3.9648,3.9646,3.943,3.887,3.8128,3.839,3.8642,3.9021,3.9281,3.9424,3.9417,3.9312,3.9271,3.9156,3.9011,3.867,3.8246,3.7599,3.6981,3.6546,3.6175,3.5979,3.6083,3.6149,3.6136,3.6188,3.624,3.6541,3.6754,3.6976,3.739,3.7642,3.7746,3.6724,3.5794,3.5571,3.4739,3.3611,3.3321,3.3262,3.3292,3.3304,3.3172,3.3238,3.3742,3.3671,3.3696,3.3768,3.3839,3.3549,3.3407,3.3337,3.3306,3.3214,3.3203,3.3281,3.3281,3.3281,3.3281,3.3281,3.3281,3.3235,3.312,3.3005,3.2846,3.2743,3.272,3.2709,3.264,3.2753,3.2961,3.3076,3.307,3.3069,3.267,3.2319,3.1797,3.1362,3.1028,3.0718,3.0287,3.0062,3.002,2.9994,2.9994,2.9994,2.9994,2.9994,2.9994,2.9994,3.0067,3.5268,3.517,3.535,3.5505,3.5709,3.6053,3.678,3.7553,3.6684,3.643,3.6899,3.6326,3.5727,3.5278,3.5625,3.5527,3.5733,3.6151,3.6693,3.7162,3.7556,3.8339,3.8815,3.9053,3.9038,3.891,3.8653,3.8381,3.8073,3.8214,3.8878,3.9485,3.9704,3.9837,3.9834,3.9769,3.9603,3.9436,3.9281,3.8991,3.8537,3.7788,3.7344,3.6974,3.6567,3.6462,3.6658,3.6737,3.675,3.6763,3.7155,3.7403,3.6959,3.7377,3.7808,3.7743,3.7364,3.6568,3.5715,3.5078,3.4336,3.3568,3.3306,3.3281,3.3306,3.3281,3.3281,3.3415,3.3642,3.3686,3.3627,3.3639,3.3614,3.3473,3.3338,3.3323,3.3281,3.3281,3.3281,3.3281,3.3281,3.3281,3.3281,3.3281,3.3281,3.3281,3.3247,3.3168,3.3099,3.2984,3.2938,3.2914,3.2948,3.3028,3.3109,3.3212,3.3185,3.3094,3.2771,3.242,3.2066,3.1633,3.1069,3.0588,3.0235,3.0073,2.9994,2.9994,2.9994,2.9994,2.9994,2.9994,3.0005,3.0077,3.017,3.4776,3.4641,3.4841,3.5322,3.5801,3.543,3.5965,3.678,3.6018,3.6104,3.6845,3.6103,3.5667,3.5667,3.592,3.6047,3.607,3.6567,3.6971,3.7068,3.7396,3.7871,3.8248,3.8449,3.8435,3.8281,3.8152,3.8007,3.8038,3.86,3.9269,4.002,4.0013,3.9944,3.9923,3.9711,3.9378,3.9251,3.9078,3.8836,3.8406,3.7906,3.7597,3.7337,3.6894,3.7063,3.726,3.7325,3.7338,3.7351,3.7808,3.7756,3.7403,3.773,3.7585,3.7459,3.7038,3.6131,3.5235,3.4727,3.4041,3.3544,3.3281,3.3281,3.3281,3.3281,3.3281,3.3371,3.3633,3.3819,3.3707,3.3607,3.3482,3.3369,3.3331,3.3306,3.3281,3.3281,3.3281,3.3281,3.3281,3.3281,3.3281,3.3281,3.3281,3.3281,3.3281,3.3247,3.3212,3.3178,3.3143,3.3143,3.3178,3.3235,3.3281,3.3281,3.3256,3.3206,3.3094,3.2745,3.2381,3.1812,3.1157,3.0651,3.0193,3.0099,3.0073,3.002,2.9994,3.0025,3.0098,3.016,3.0243,3.0367,3.047,3.4474,3.4099,3.4616,3.5165,3.5648,3.4721,3.4959,3.5845,3.5175,3.5597,3.6411,3.5768,3.5653,3.5963,3.6216,3.6539,3.6618,3.6928,3.6984,3.6989,3.7072,3.7409,3.7696,3.7829,3.7829,3.7844,3.793,3.8079,3.8412,3.8919,3.962,4.0574,4.0187,3.9911,3.9618,3.938,3.9016,3.867,3.8602,3.8466,3.8398,3.8112,3.79,3.7871,3.7795,3.7835,3.7848,3.7874,3.79,3.79,3.7887,3.7874,3.7861,3.7641,3.7294,3.6815,3.645,3.5655,3.4824,3.4299,3.3905,3.3519,3.3281,3.3281,3.3281,3.3281,3.3281,3.3281,3.3519,3.3568,3.3469,3.3444,3.3381,3.3331,3.3306,3.3281,3.3281,3.3281,3.3281,3.3281,3.3281,3.3281,3.3281,3.3281,3.3281,3.3281,3.3281,3.3281,3.343,3.343,3.3396,3.3384,3.3304,3.3304,3.3281,3.3281,3.3281,3.3256,3.3229,3.3094,3.2757,3.2037,3.1245,3.0728,3.0271,3.0203,3.0151,3.0083,3.0093,3.0201,3.0274,3.0383,3.0518,3.0729,3.0843,3.3612,3.3546,3.4108,3.4484,3.4602,3.4313,3.466,3.5273,3.4181,3.449,3.5491,3.577,3.5906,3.6033,3.6413,3.6731,3.6928,3.6978,3.6978,3.6998,3.6978,3.7056,3.722,3.734,3.7293,3.7381,3.7695,3.8344,3.892,3.9326,3.9587,4.0093,3.9908,3.9645,3.9105,3.8814,3.8557,3.8184,3.8161,3.8161,3.8093,3.8047,3.79,3.79,3.79,3.79,3.79,3.79,3.79,3.79,3.79,3.79,3.79,3.733,3.6945,3.6545,3.5642,3.4945,3.4434,3.393,3.3557,3.3444,3.3281,3.3281,3.3281,3.3281,3.3281,3.3281,3.3281,3.3281,3.3281,3.3281,3.3281,3.3281,3.3281,3.3281,3.3281,3.3281,3.3281,3.3281,3.3281,3.3281,3.3281,3.3281,3.3281,3.3281,3.3281,3.3373,3.3717,3.3821,3.3694,3.3625,3.3386,3.334,3.3304,3.3315,3.3338,3.3373,3.3382,3.3261,3.3113,3.2299,3.1464,3.0865,3.0417,3.0501,3.0459,3.0193,3.0234,3.0424,3.0584,3.0756,3.1081,3.135,3.1371,3.3294,3.335,3.3641,3.4137,3.4534,3.4347,3.4431,3.4576,3.3996,3.3926,3.4341,3.4735,3.5142,3.5611,3.6075,3.6703,3.69,3.6978,3.6978,3.6978,3.6978,3.6978,3.6996,3.7026,3.7123,3.7251,3.784,3.8539,3.9169,3.9371,3.947,3.9631,3.9513,3.9149,3.8557,3.8412,3.8197,3.7923,3.79,3.79,3.79,3.79,3.79,3.79,3.79,3.79,3.79,3.79,3.79,3.79,3.79,3.7588,3.739,3.6968,3.6356,3.5666,3.4896,3.4275,3.3941,3.3618,3.3281,3.3281,3.3281,3.3281,3.3281,3.3281,3.3281,3.3281,3.3281,3.3281,3.3281,3.3281,3.3281,3.3281,3.3281,3.3281,3.3281,3.3281,3.3281,3.3281,3.3281,3.3281,3.3281,3.3281,3.3304,3.3373,3.3361,3.3637,3.3947,3.4291,3.4142,3.4004,3.3832,3.349,3.3292,3.3338,3.3407,3.3453,3.3628,3.358,3.3421,3.2541,3.1708,3.1412,3.1175,3.1084,3.0967,3.0709,3.0701,3.0953,3.1077,3.116,3.1536,3.1871,3.1899,3.3294,3.3294,3.3406,3.3972,3.4823,3.4431,3.4147,3.4076,3.4034,3.3768,3.3448,3.3434,3.4088,3.4851,3.5484,3.6183,3.6717,3.6936,3.6978,3.6978,3.6978,3.6978,3.7004,3.7018,3.7073,3.7359,3.7901,3.8322,3.8779,3.8944,3.9086,3.9114,3.8895,3.857,3.8412,3.8184,3.79,3.79,3.79,3.79,3.79,3.79,3.79,3.79,3.79,3.79,3.79,3.79,3.79,3.79,3.7877,3.7459,3.7034,3.6647,3.574,3.5017,3.4539,3.3973,3.3553,3.3381,3.3281,3.3281,3.3292,3.3281,3.3281,3.3281,3.3281,3.3281,3.3281,3.3281,3.3281,3.3281,3.3281,3.3281,3.3281,3.3304,3.3304,3.3304,3.3315,3.3315,3.3327,3.3327,3.3327,3.3327,3.343,3.3488,3.3694,3.397,3.428,3.4647,3.4773,3.467,3.4555,3.4119,3.366,3.3625,3.3809,3.3947,3.4114,3.4043,3.375,3.2891,3.2387,3.2394,3.2158,3.1668,3.1544,3.1395,3.1448,3.1433,3.1485,3.1578,3.194,3.2233,3.2336,3.3294,3.335,3.381,3.3926,3.3771,3.4038,3.3922,3.3519,3.3491,3.3392,3.335,3.3406,3.4018,3.5264,3.6314,3.6871,3.6852,3.6978,3.6978,3.6978,3.6978,3.6978,3.6917,3.6841,3.6975,3.738,3.7854,3.8285,3.8523,3.8693,3.8737,3.8679,3.8679,3.8412,3.8047,3.79,3.79,3.79,3.79,3.79,3.79,3.79,3.79,3.79,3.79,3.79,3.79,3.79,3.79,3.79,3.7857,3.7451,3.6834,3.6321,3.5527,3.4602,3.4103,3.3873,3.3503,3.3338,3.3304,3.3384,3.3373,3.3281,3.3281,3.3281,3.3281,3.3281,3.3281,3.3281,3.3281,3.3281,3.3281,3.3281,3.3281,3.3338,3.3386,3.3384,3.3396,3.3442,3.3488,3.3488,3.3499,3.3625,3.3889,3.4027,3.4326,3.4613,3.4908,3.5149,3.537,3.5301,3.5221,3.4992,3.4613,3.436,3.444,3.4567,3.46,3.4513,3.4123,3.3316,3.2959,3.302,3.244,3.1778,3.1755,3.2064,3.1868,3.1836,3.1871,3.1977,3.2346,3.2512,3.2543]}]]